<?xml version="1.0" encoding="UTF-8" standalone="no" ?>
<gpx xmlns="http://www.topografix.com/GPX/1/1" xmlns:xsi="http://www.w3.org/2001/XMLSchema-instance" xsi:schemaLocation="http://www.topografix.com/GPX/1/1 http://www.topografix.com/GPX/1/1/gpx.xsd" version="1.1" creator="VisuGPX - https://www.visugpx.com">
  <metadata>
    <name>la tour de mare</name>
    <desc><![CDATA[rando du 19 janvier 2011]]></desc>
  </metadata>
  <trk>
    <name><![CDATA[la tour de mare_1]]></name>
    <trkseg>
      <trkpt lat="43.45575" lon="6.76075">
        <ele>40.2</ele>
        <time>2011-01-19 13:43:54Z</time>
      </trkpt>
      <trkpt lat="43.45566" lon="6.7605">
        <ele>17.263931</ele>
        <time>2011-01-19 13:43:58Z</time>
      </trkpt>
      <trkpt lat="43.45566" lon="6.7605">
        <ele>17.263931</ele>
        <time>2011-01-19 13:44:02Z</time>
      </trkpt>
      <trkpt lat="43.45566" lon="6.7605">
        <ele>17.263931</ele>
        <time>2011-01-19 13:44:06Z</time>
      </trkpt>
      <trkpt lat="43.45566" lon="6.7605">
        <ele>17.263931</ele>
        <time>2011-01-19 13:44:10Z</time>
      </trkpt>
      <trkpt lat="43.45566" lon="6.7605">
        <ele>17.263931</ele>
        <time>2011-01-19 13:44:14Z</time>
      </trkpt>
      <trkpt lat="43.45566" lon="6.7605">
        <ele>17.263931</ele>
        <time>2011-01-19 13:44:18Z</time>
      </trkpt>
      <trkpt lat="43.45566" lon="6.7605">
        <ele>17.263931</ele>
        <time>2011-01-19 13:44:22Z</time>
      </trkpt>
      <trkpt lat="43.45566" lon="6.7605">
        <ele>17.263931</ele>
        <time>2011-01-19 13:44:26Z</time>
      </trkpt>
      <trkpt lat="43.45578" lon="6.76063">
        <ele>36.263981</ele>
        <time>2011-01-19 13:44:30Z</time>
      </trkpt>
      <trkpt lat="43.45581" lon="6.7607">
        <ele>36.264</ele>
        <time>2011-01-19 13:44:34Z</time>
      </trkpt>
      <trkpt lat="43.45585" lon="6.76074">
        <ele>36.264015</ele>
        <time>2011-01-19 13:44:38Z</time>
      </trkpt>
      <trkpt lat="43.45589" lon="6.7608">
        <ele>37.264038</ele>
        <time>2011-01-19 13:44:42Z</time>
      </trkpt>
      <trkpt lat="43.45591" lon="6.76083">
        <ele>37.264046</ele>
        <time>2011-01-19 13:44:46Z</time>
      </trkpt>
      <trkpt lat="43.45591" lon="6.76083">
        <ele>37.264046</ele>
        <time>2011-01-19 13:44:50Z</time>
      </trkpt>
      <trkpt lat="43.45598" lon="6.76095">
        <ele>36.264084</ele>
        <time>2011-01-19 13:44:54Z</time>
      </trkpt>
      <trkpt lat="43.456" lon="6.76098">
        <ele>36.264091</ele>
        <time>2011-01-19 13:44:58Z</time>
      </trkpt>
      <trkpt lat="43.45601" lon="6.76101">
        <ele>36.264107</ele>
        <time>2011-01-19 13:45:02Z</time>
      </trkpt>
      <trkpt lat="43.45604" lon="6.76104">
        <ele>36.264114</ele>
        <time>2011-01-19 13:45:06Z</time>
      </trkpt>
      <trkpt lat="43.45609" lon="6.76107">
        <ele>36.26413</ele>
        <time>2011-01-19 13:45:10Z</time>
      </trkpt>
      <trkpt lat="43.45612" lon="6.76111">
        <ele>36.264145</ele>
        <time>2011-01-19 13:45:14Z</time>
      </trkpt>
      <trkpt lat="43.45616" lon="6.76116">
        <ele>36.264164</ele>
        <time>2011-01-19 13:45:18Z</time>
      </trkpt>
      <trkpt lat="43.45617" lon="6.76117">
        <ele>36.264168</ele>
        <time>2011-01-19 13:45:22Z</time>
      </trkpt>
      <trkpt lat="43.45617" lon="6.76117">
        <ele>36.264168</ele>
        <time>2011-01-19 13:45:26Z</time>
      </trkpt>
      <trkpt lat="43.45617" lon="6.76117">
        <ele>36.264168</ele>
        <time>2011-01-19 13:45:30Z</time>
      </trkpt>
      <trkpt lat="43.45617" lon="6.76117">
        <ele>36.264168</ele>
        <time>2011-01-19 13:45:34Z</time>
      </trkpt>
      <trkpt lat="43.45623" lon="6.76123">
        <ele>36.264187</ele>
        <time>2011-01-19 13:45:38Z</time>
      </trkpt>
      <trkpt lat="43.45623" lon="6.76123">
        <ele>36.264187</ele>
        <time>2011-01-19 13:45:42Z</time>
      </trkpt>
      <trkpt lat="43.45623" lon="6.76123">
        <ele>36.264187</ele>
        <time>2011-01-19 13:45:46Z</time>
      </trkpt>
      <trkpt lat="43.45623" lon="6.76123">
        <ele>36.264187</ele>
        <time>2011-01-19 13:45:50Z</time>
      </trkpt>
      <trkpt lat="43.45623" lon="6.76123">
        <ele>36.264187</ele>
        <time>2011-01-19 13:45:54Z</time>
      </trkpt>
      <trkpt lat="43.45623" lon="6.76123">
        <ele>36.264187</ele>
        <time>2011-01-19 13:45:58Z</time>
      </trkpt>
      <trkpt lat="43.45641" lon="6.76146">
        <ele>36.264267</ele>
        <time>2011-01-19 13:46:02Z</time>
      </trkpt>
      <trkpt lat="43.45647" lon="6.76155">
        <ele>36.264301</ele>
        <time>2011-01-19 13:46:06Z</time>
      </trkpt>
      <trkpt lat="43.45648" lon="6.76157">
        <ele>36.264305</ele>
        <time>2011-01-19 13:46:10Z</time>
      </trkpt>
      <trkpt lat="43.45648" lon="6.76157">
        <ele>36.264305</ele>
        <time>2011-01-19 13:46:14Z</time>
      </trkpt>
      <trkpt lat="43.45659" lon="6.7617">
        <ele>35.264359</ele>
        <time>2011-01-19 13:46:18Z</time>
      </trkpt>
      <trkpt lat="43.45662" lon="6.76175">
        <ele>35.26437</ele>
        <time>2011-01-19 13:46:22Z</time>
      </trkpt>
      <trkpt lat="43.45662" lon="6.76175">
        <ele>35.26437</ele>
        <time>2011-01-19 13:46:26Z</time>
      </trkpt>
      <trkpt lat="43.45666" lon="6.76181">
        <ele>34.264393</ele>
        <time>2011-01-19 13:46:30Z</time>
      </trkpt>
      <trkpt lat="43.45666" lon="6.76181">
        <ele>34.264393</ele>
        <time>2011-01-19 13:46:34Z</time>
      </trkpt>
      <trkpt lat="43.45666" lon="6.76181">
        <ele>34.264393</ele>
        <time>2011-01-19 13:46:38Z</time>
      </trkpt>
      <trkpt lat="43.45666" lon="6.76181">
        <ele>34.264393</ele>
        <time>2011-01-19 13:46:42Z</time>
      </trkpt>
      <trkpt lat="43.45676" lon="6.76194">
        <ele>35.264435</ele>
        <time>2011-01-19 13:46:46Z</time>
      </trkpt>
      <trkpt lat="43.45676" lon="6.76194">
        <ele>35.264435</ele>
        <time>2011-01-19 13:46:50Z</time>
      </trkpt>
      <trkpt lat="43.4568" lon="6.76202">
        <ele>34.264465</ele>
        <time>2011-01-19 13:46:54Z</time>
      </trkpt>
      <trkpt lat="43.4568" lon="6.76202">
        <ele>34.264465</ele>
        <time>2011-01-19 13:46:58Z</time>
      </trkpt>
      <trkpt lat="43.4568" lon="6.76215">
        <ele>34.264488</ele>
        <time>2011-01-19 13:47:02Z</time>
      </trkpt>
      <trkpt lat="43.4568" lon="6.76217">
        <ele>34.264492</ele>
        <time>2011-01-19 13:47:06Z</time>
      </trkpt>
      <trkpt lat="43.4568" lon="6.76217">
        <ele>34.264492</ele>
        <time>2011-01-19 13:47:10Z</time>
      </trkpt>
      <trkpt lat="43.45675" lon="6.76233">
        <ele>34.264526</ele>
        <time>2011-01-19 13:47:14Z</time>
      </trkpt>
      <trkpt lat="43.45675" lon="6.76234">
        <ele>34.264523</ele>
        <time>2011-01-19 13:47:18Z</time>
      </trkpt>
      <trkpt lat="43.45671" lon="6.76244">
        <ele>33.264542</ele>
        <time>2011-01-19 13:47:22Z</time>
      </trkpt>
      <trkpt lat="43.45668" lon="6.76251">
        <ele>32.264549</ele>
        <time>2011-01-19 13:47:26Z</time>
      </trkpt>
      <trkpt lat="43.45666" lon="6.76255">
        <ele>32.264557</ele>
        <time>2011-01-19 13:47:30Z</time>
      </trkpt>
      <trkpt lat="43.45661" lon="6.76263">
        <ele>32.264572</ele>
        <time>2011-01-19 13:47:34Z</time>
      </trkpt>
      <trkpt lat="43.4566" lon="6.76266">
        <ele>32.264572</ele>
        <time>2011-01-19 13:47:38Z</time>
      </trkpt>
      <trkpt lat="43.45655" lon="6.76274">
        <ele>32.264584</ele>
        <time>2011-01-19 13:47:42Z</time>
      </trkpt>
      <trkpt lat="43.45652" lon="6.7628">
        <ele>32.264595</ele>
        <time>2011-01-19 13:47:46Z</time>
      </trkpt>
      <trkpt lat="43.4565" lon="6.76286">
        <ele>32.264603</ele>
        <time>2011-01-19 13:47:50Z</time>
      </trkpt>
      <trkpt lat="43.45649" lon="6.76288">
        <ele>32.26461</ele>
        <time>2011-01-19 13:47:54Z</time>
      </trkpt>
      <trkpt lat="43.45649" lon="6.76288">
        <ele>32.26461</ele>
        <time>2011-01-19 13:47:58Z</time>
      </trkpt>
      <trkpt lat="43.45646" lon="6.763">
        <ele>33.264626</ele>
        <time>2011-01-19 13:48:02Z</time>
      </trkpt>
      <trkpt lat="43.45645" lon="6.76302">
        <ele>33.264633</ele>
        <time>2011-01-19 13:48:06Z</time>
      </trkpt>
      <trkpt lat="43.45644" lon="6.76312">
        <ele>33.264648</ele>
        <time>2011-01-19 13:48:10Z</time>
      </trkpt>
      <trkpt lat="43.45643" lon="6.76314">
        <ele>33.26466</ele>
        <time>2011-01-19 13:48:14Z</time>
      </trkpt>
      <trkpt lat="43.45643" lon="6.76327">
        <ele>33.264687</ele>
        <time>2011-01-19 13:48:18Z</time>
      </trkpt>
      <trkpt lat="43.45643" lon="6.76327">
        <ele>33.264687</ele>
        <time>2011-01-19 13:48:22Z</time>
      </trkpt>
      <trkpt lat="43.45643" lon="6.76327">
        <ele>33.264687</ele>
        <time>2011-01-19 13:48:26Z</time>
      </trkpt>
      <trkpt lat="43.45646" lon="6.76342">
        <ele>34.264725</ele>
        <time>2011-01-19 13:48:30Z</time>
      </trkpt>
      <trkpt lat="43.45646" lon="6.76347">
        <ele>34.264732</ele>
        <time>2011-01-19 13:48:34Z</time>
      </trkpt>
      <trkpt lat="43.45646" lon="6.76352">
        <ele>34.264748</ele>
        <time>2011-01-19 13:48:38Z</time>
      </trkpt>
      <trkpt lat="43.45647" lon="6.76358">
        <ele>35.264755</ele>
        <time>2011-01-19 13:48:42Z</time>
      </trkpt>
      <trkpt lat="43.45647" lon="6.76362">
        <ele>35.264771</ele>
        <time>2011-01-19 13:48:46Z</time>
      </trkpt>
      <trkpt lat="43.45647" lon="6.76362">
        <ele>35.264771</ele>
        <time>2011-01-19 13:48:50Z</time>
      </trkpt>
      <trkpt lat="43.4565" lon="6.76368">
        <ele>38.26479</ele>
        <time>2011-01-19 13:48:54Z</time>
      </trkpt>
      <trkpt lat="43.4565" lon="6.76368">
        <ele>38.26479</ele>
        <time>2011-01-19 13:48:58Z</time>
      </trkpt>
      <trkpt lat="43.4565" lon="6.76368">
        <ele>38.26479</ele>
        <time>2011-01-19 13:49:02Z</time>
      </trkpt>
      <trkpt lat="43.4565" lon="6.76368">
        <ele>38.26479</ele>
        <time>2011-01-19 13:49:06Z</time>
      </trkpt>
      <trkpt lat="43.4565" lon="6.76368">
        <ele>38.26479</ele>
        <time>2011-01-19 13:49:10Z</time>
      </trkpt>
      <trkpt lat="43.45657" lon="6.76373">
        <ele>36.264809</ele>
        <time>2011-01-19 13:49:14Z</time>
      </trkpt>
      <trkpt lat="43.45657" lon="6.76373">
        <ele>36.264809</ele>
        <time>2011-01-19 13:49:18Z</time>
      </trkpt>
      <trkpt lat="43.45657" lon="6.76373">
        <ele>36.264809</ele>
        <time>2011-01-19 13:49:22Z</time>
      </trkpt>
      <trkpt lat="43.45657" lon="6.76373">
        <ele>36.264809</ele>
        <time>2011-01-19 13:49:26Z</time>
      </trkpt>
      <trkpt lat="43.45673" lon="6.76373">
        <ele>34.264839</ele>
        <time>2011-01-19 13:49:30Z</time>
      </trkpt>
      <trkpt lat="43.45674" lon="6.76374">
        <ele>34.264843</ele>
        <time>2011-01-19 13:49:34Z</time>
      </trkpt>
      <trkpt lat="43.45682" lon="6.76374">
        <ele>35.264854</ele>
        <time>2011-01-19 13:49:38Z</time>
      </trkpt>
      <trkpt lat="43.45682" lon="6.76374">
        <ele>35.264854</ele>
        <time>2011-01-19 13:49:42Z</time>
      </trkpt>
      <trkpt lat="43.45682" lon="6.76374">
        <ele>35.264854</ele>
        <time>2011-01-19 13:49:46Z</time>
      </trkpt>
      <trkpt lat="43.45682" lon="6.76374">
        <ele>35.264854</ele>
        <time>2011-01-19 13:49:50Z</time>
      </trkpt>
      <trkpt lat="43.45682" lon="6.76374">
        <ele>35.264854</ele>
        <time>2011-01-19 13:49:54Z</time>
      </trkpt>
      <trkpt lat="43.45682" lon="6.76374">
        <ele>35.264854</ele>
        <time>2011-01-19 13:49:58Z</time>
      </trkpt>
      <trkpt lat="43.45682" lon="6.76374">
        <ele>35.264854</ele>
        <time>2011-01-19 13:50:02Z</time>
      </trkpt>
      <trkpt lat="43.4571" lon="6.76383">
        <ele>35.264923</ele>
        <time>2011-01-19 13:50:06Z</time>
      </trkpt>
      <trkpt lat="43.4571" lon="6.76383">
        <ele>35.264923</ele>
        <time>2011-01-19 13:50:10Z</time>
      </trkpt>
      <trkpt lat="43.45718" lon="6.76388">
        <ele>29.264946</ele>
        <time>2011-01-19 13:50:14Z</time>
      </trkpt>
      <trkpt lat="43.4572" lon="6.76388">
        <ele>28.264946</ele>
        <time>2011-01-19 13:50:18Z</time>
      </trkpt>
      <trkpt lat="43.4573" lon="6.76391">
        <ele>24.264973</ele>
        <time>2011-01-19 13:50:22Z</time>
      </trkpt>
      <trkpt lat="43.45733" lon="6.76392">
        <ele>24.264977</ele>
        <time>2011-01-19 13:50:26Z</time>
      </trkpt>
      <trkpt lat="43.45733" lon="6.76392">
        <ele>24.264977</ele>
        <time>2011-01-19 13:50:30Z</time>
      </trkpt>
      <trkpt lat="43.45743" lon="6.76394">
        <ele>25.264996</ele>
        <time>2011-01-19 13:50:34Z</time>
      </trkpt>
      <trkpt lat="43.45746" lon="6.76395">
        <ele>25.265007</ele>
        <time>2011-01-19 13:50:38Z</time>
      </trkpt>
      <trkpt lat="43.4575" lon="6.76397">
        <ele>25.265015</ele>
        <time>2011-01-19 13:50:42Z</time>
      </trkpt>
      <trkpt lat="43.45752" lon="6.76398">
        <ele>25.265022</ele>
        <time>2011-01-19 13:50:46Z</time>
      </trkpt>
      <trkpt lat="43.45752" lon="6.76398">
        <ele>25.265022</ele>
        <time>2011-01-19 13:50:50Z</time>
      </trkpt>
      <trkpt lat="43.45752" lon="6.76398">
        <ele>25.265022</ele>
        <time>2011-01-19 13:50:54Z</time>
      </trkpt>
      <trkpt lat="43.45752" lon="6.76398">
        <ele>25.265022</ele>
        <time>2011-01-19 13:50:58Z</time>
      </trkpt>
      <trkpt lat="43.45779" lon="6.76411">
        <ele>24.265091</ele>
        <time>2011-01-19 13:51:02Z</time>
      </trkpt>
      <trkpt lat="43.45779" lon="6.76411">
        <ele>24.265091</ele>
        <time>2011-01-19 13:51:06Z</time>
      </trkpt>
      <trkpt lat="43.45779" lon="6.76411">
        <ele>24.265091</ele>
        <time>2011-01-19 13:51:10Z</time>
      </trkpt>
      <trkpt lat="43.45779" lon="6.76411">
        <ele>24.265091</ele>
        <time>2011-01-19 13:51:14Z</time>
      </trkpt>
      <trkpt lat="43.45779" lon="6.76411">
        <ele>24.265091</ele>
        <time>2011-01-19 13:51:18Z</time>
      </trkpt>
      <trkpt lat="43.45804" lon="6.76427">
        <ele>24.265175</ele>
        <time>2011-01-19 13:51:22Z</time>
      </trkpt>
      <trkpt lat="43.45805" lon="6.76432">
        <ele>23.265186</ele>
        <time>2011-01-19 13:51:26Z</time>
      </trkpt>
      <trkpt lat="43.45806" lon="6.76436">
        <ele>23.265198</ele>
        <time>2011-01-19 13:51:30Z</time>
      </trkpt>
      <trkpt lat="43.45807" lon="6.76444">
        <ele>23.265217</ele>
        <time>2011-01-19 13:51:34Z</time>
      </trkpt>
      <trkpt lat="43.4581" lon="6.76454">
        <ele>23.265244</ele>
        <time>2011-01-19 13:51:38Z</time>
      </trkpt>
      <trkpt lat="43.45812" lon="6.76462">
        <ele>22.265266</ele>
        <time>2011-01-19 13:51:42Z</time>
      </trkpt>
      <trkpt lat="43.45812" lon="6.76462">
        <ele>22.265266</ele>
        <time>2011-01-19 13:51:46Z</time>
      </trkpt>
      <trkpt lat="43.45812" lon="6.76462">
        <ele>22.265266</ele>
        <time>2011-01-19 13:51:50Z</time>
      </trkpt>
      <trkpt lat="43.45812" lon="6.76462">
        <ele>22.265266</ele>
        <time>2011-01-19 13:51:54Z</time>
      </trkpt>
      <trkpt lat="43.45812" lon="6.76462">
        <ele>22.265266</ele>
        <time>2011-01-19 13:51:58Z</time>
      </trkpt>
      <trkpt lat="43.45812" lon="6.76462">
        <ele>22.265266</ele>
        <time>2011-01-19 13:52:02Z</time>
      </trkpt>
      <trkpt lat="43.45812" lon="6.76462">
        <ele>22.265266</ele>
        <time>2011-01-19 13:52:06Z</time>
      </trkpt>
      <trkpt lat="43.45816" lon="6.765">
        <ele>22.265358</ele>
        <time>2011-01-19 13:52:10Z</time>
      </trkpt>
      <trkpt lat="43.45816" lon="6.765">
        <ele>22.265358</ele>
        <time>2011-01-19 13:52:14Z</time>
      </trkpt>
      <trkpt lat="43.45816" lon="6.765">
        <ele>22.265358</ele>
        <time>2011-01-19 13:52:18Z</time>
      </trkpt>
      <trkpt lat="43.45816" lon="6.765">
        <ele>22.265358</ele>
        <time>2011-01-19 13:52:22Z</time>
      </trkpt>
      <trkpt lat="43.45816" lon="6.765">
        <ele>22.265358</ele>
        <time>2011-01-19 13:52:26Z</time>
      </trkpt>
      <trkpt lat="43.45816" lon="6.765">
        <ele>22.265358</ele>
        <time>2011-01-19 13:52:30Z</time>
      </trkpt>
      <trkpt lat="43.45816" lon="6.765">
        <ele>22.265358</ele>
        <time>2011-01-19 13:52:34Z</time>
      </trkpt>
      <trkpt lat="43.45816" lon="6.765">
        <ele>22.265358</ele>
        <time>2011-01-19 13:52:38Z</time>
      </trkpt>
      <trkpt lat="43.45816" lon="6.765">
        <ele>22.265358</ele>
        <time>2011-01-19 13:52:42Z</time>
      </trkpt>
      <trkpt lat="43.45816" lon="6.765">
        <ele>22.265358</ele>
        <time>2011-01-19 13:52:46Z</time>
      </trkpt>
      <trkpt lat="43.45816" lon="6.765">
        <ele>22.265358</ele>
        <time>2011-01-19 13:52:50Z</time>
      </trkpt>
      <trkpt lat="43.45816" lon="6.765">
        <ele>22.265358</ele>
        <time>2011-01-19 13:52:54Z</time>
      </trkpt>
      <trkpt lat="43.45816" lon="6.765">
        <ele>22.265358</ele>
        <time>2011-01-19 13:52:58Z</time>
      </trkpt>
      <trkpt lat="43.45816" lon="6.765">
        <ele>22.265358</ele>
        <time>2011-01-19 13:53:02Z</time>
      </trkpt>
      <trkpt lat="43.45816" lon="6.765">
        <ele>22.265358</ele>
        <time>2011-01-19 13:53:06Z</time>
      </trkpt>
      <trkpt lat="43.45803" lon="6.76535">
        <ele>21.265411</ele>
        <time>2011-01-19 13:53:10Z</time>
      </trkpt>
      <trkpt lat="43.45803" lon="6.76535">
        <ele>21.265411</ele>
        <time>2011-01-19 13:53:14Z</time>
      </trkpt>
      <trkpt lat="43.45803" lon="6.76535">
        <ele>21.265411</ele>
        <time>2011-01-19 13:53:18Z</time>
      </trkpt>
      <trkpt lat="43.45803" lon="6.76535">
        <ele>21.265411</ele>
        <time>2011-01-19 13:53:22Z</time>
      </trkpt>
      <trkpt lat="43.45803" lon="6.76535">
        <ele>21.265411</ele>
        <time>2011-01-19 13:53:26Z</time>
      </trkpt>
      <trkpt lat="43.45786" lon="6.76564">
        <ele>23.26545</ele>
        <time>2011-01-19 13:53:30Z</time>
      </trkpt>
      <trkpt lat="43.45786" lon="6.76564">
        <ele>23.26545</ele>
        <time>2011-01-19 13:53:34Z</time>
      </trkpt>
      <trkpt lat="43.45786" lon="6.76564">
        <ele>23.26545</ele>
        <time>2011-01-19 13:53:38Z</time>
      </trkpt>
      <trkpt lat="43.45786" lon="6.76564">
        <ele>23.26545</ele>
        <time>2011-01-19 13:53:42Z</time>
      </trkpt>
      <trkpt lat="43.45786" lon="6.76564">
        <ele>23.26545</ele>
        <time>2011-01-19 13:53:46Z</time>
      </trkpt>
      <trkpt lat="43.45786" lon="6.76564">
        <ele>23.26545</ele>
        <time>2011-01-19 13:53:50Z</time>
      </trkpt>
      <trkpt lat="43.45786" lon="6.76564">
        <ele>23.26545</ele>
        <time>2011-01-19 13:53:54Z</time>
      </trkpt>
      <trkpt lat="43.45768" lon="6.76586">
        <ele>24.265476</ele>
        <time>2011-01-19 13:53:58Z</time>
      </trkpt>
      <trkpt lat="43.45768" lon="6.76588">
        <ele>24.26548</ele>
        <time>2011-01-19 13:54:02Z</time>
      </trkpt>
      <trkpt lat="43.45764" lon="6.76595">
        <ele>25.265488</ele>
        <time>2011-01-19 13:54:06Z</time>
      </trkpt>
      <trkpt lat="43.45763" lon="6.76597">
        <ele>25.265495</ele>
        <time>2011-01-19 13:54:10Z</time>
      </trkpt>
      <trkpt lat="43.45761" lon="6.76598">
        <ele>25.265488</ele>
        <time>2011-01-19 13:54:14Z</time>
      </trkpt>
      <trkpt lat="43.45761" lon="6.76598">
        <ele>25.265488</ele>
        <time>2011-01-19 13:54:18Z</time>
      </trkpt>
      <trkpt lat="43.45761" lon="6.76598">
        <ele>25.265488</ele>
        <time>2011-01-19 13:54:22Z</time>
      </trkpt>
      <trkpt lat="43.45761" lon="6.76598">
        <ele>25.265488</ele>
        <time>2011-01-19 13:54:26Z</time>
      </trkpt>
      <trkpt lat="43.45752" lon="6.76609">
        <ele>25.265503</ele>
        <time>2011-01-19 13:54:30Z</time>
      </trkpt>
      <trkpt lat="43.45751" lon="6.7661">
        <ele>25.265503</ele>
        <time>2011-01-19 13:54:34Z</time>
      </trkpt>
      <trkpt lat="43.45751" lon="6.7661">
        <ele>25.265503</ele>
        <time>2011-01-19 13:54:38Z</time>
      </trkpt>
      <trkpt lat="43.45751" lon="6.7661">
        <ele>25.265503</ele>
        <time>2011-01-19 13:54:42Z</time>
      </trkpt>
      <trkpt lat="43.45751" lon="6.7661">
        <ele>25.265503</ele>
        <time>2011-01-19 13:54:46Z</time>
      </trkpt>
      <trkpt lat="43.45751" lon="6.7661">
        <ele>25.265503</ele>
        <time>2011-01-19 13:54:50Z</time>
      </trkpt>
      <trkpt lat="43.45751" lon="6.7661">
        <ele>25.265503</ele>
        <time>2011-01-19 13:54:54Z</time>
      </trkpt>
      <trkpt lat="43.45751" lon="6.7661">
        <ele>25.265503</ele>
        <time>2011-01-19 13:54:58Z</time>
      </trkpt>
      <trkpt lat="43.45751" lon="6.7661">
        <ele>25.265503</ele>
        <time>2011-01-19 13:55:02Z</time>
      </trkpt>
      <trkpt lat="43.45751" lon="6.7661">
        <ele>25.265503</ele>
        <time>2011-01-19 13:55:06Z</time>
      </trkpt>
      <trkpt lat="43.45751" lon="6.7661">
        <ele>25.265503</ele>
        <time>2011-01-19 13:55:10Z</time>
      </trkpt>
      <trkpt lat="43.4573" lon="6.76633">
        <ele>25.265522</ele>
        <time>2011-01-19 13:55:14Z</time>
      </trkpt>
      <trkpt lat="43.4573" lon="6.76633">
        <ele>25.265522</ele>
        <time>2011-01-19 13:55:18Z</time>
      </trkpt>
      <trkpt lat="43.4573" lon="6.76633">
        <ele>25.265522</ele>
        <time>2011-01-19 13:55:22Z</time>
      </trkpt>
      <trkpt lat="43.4573" lon="6.76633">
        <ele>25.265522</ele>
        <time>2011-01-19 13:55:26Z</time>
      </trkpt>
      <trkpt lat="43.4573" lon="6.76633">
        <ele>25.265522</ele>
        <time>2011-01-19 13:55:30Z</time>
      </trkpt>
      <trkpt lat="43.4571" lon="6.76658">
        <ele>25.265549</ele>
        <time>2011-01-19 13:55:34Z</time>
      </trkpt>
      <trkpt lat="43.4571" lon="6.76658">
        <ele>25.265549</ele>
        <time>2011-01-19 13:55:38Z</time>
      </trkpt>
      <trkpt lat="43.4571" lon="6.76658">
        <ele>25.265549</ele>
        <time>2011-01-19 13:55:42Z</time>
      </trkpt>
      <trkpt lat="43.4571" lon="6.76658">
        <ele>25.265549</ele>
        <time>2011-01-19 13:55:46Z</time>
      </trkpt>
      <trkpt lat="43.45693" lon="6.76688">
        <ele>25.265587</ele>
        <time>2011-01-19 13:55:50Z</time>
      </trkpt>
      <trkpt lat="43.45693" lon="6.76688">
        <ele>25.265587</ele>
        <time>2011-01-19 13:55:54Z</time>
      </trkpt>
      <trkpt lat="43.45693" lon="6.76688">
        <ele>25.265587</ele>
        <time>2011-01-19 13:55:58Z</time>
      </trkpt>
      <trkpt lat="43.45693" lon="6.76688">
        <ele>25.265587</ele>
        <time>2011-01-19 13:56:02Z</time>
      </trkpt>
      <trkpt lat="43.45681" lon="6.76722">
        <ele>24.26564</ele>
        <time>2011-01-19 13:56:06Z</time>
      </trkpt>
      <trkpt lat="43.45681" lon="6.76722">
        <ele>24.26564</ele>
        <time>2011-01-19 13:56:10Z</time>
      </trkpt>
      <trkpt lat="43.45675" lon="6.76739">
        <ele>24.265671</ele>
        <time>2011-01-19 13:56:14Z</time>
      </trkpt>
      <trkpt lat="43.45675" lon="6.76739">
        <ele>24.265671</ele>
        <time>2011-01-19 13:56:18Z</time>
      </trkpt>
      <trkpt lat="43.45673" lon="6.76747">
        <ele>24.265686</ele>
        <time>2011-01-19 13:56:22Z</time>
      </trkpt>
      <trkpt lat="43.45672" lon="6.76752">
        <ele>24.265697</ele>
        <time>2011-01-19 13:56:26Z</time>
      </trkpt>
      <trkpt lat="43.45672" lon="6.76757">
        <ele>24.265709</ele>
        <time>2011-01-19 13:56:30Z</time>
      </trkpt>
      <trkpt lat="43.45672" lon="6.76758">
        <ele>25.265709</ele>
        <time>2011-01-19 13:56:34Z</time>
      </trkpt>
      <trkpt lat="43.45672" lon="6.76758">
        <ele>25.265709</ele>
        <time>2011-01-19 13:56:38Z</time>
      </trkpt>
      <trkpt lat="43.45672" lon="6.76758">
        <ele>25.265709</ele>
        <time>2011-01-19 13:56:42Z</time>
      </trkpt>
      <trkpt lat="43.45672" lon="6.76758">
        <ele>25.265709</ele>
        <time>2011-01-19 13:56:46Z</time>
      </trkpt>
      <trkpt lat="43.45672" lon="6.76758">
        <ele>25.265709</ele>
        <time>2011-01-19 13:56:50Z</time>
      </trkpt>
      <trkpt lat="43.45672" lon="6.76758">
        <ele>25.265709</ele>
        <time>2011-01-19 13:56:54Z</time>
      </trkpt>
      <trkpt lat="43.45672" lon="6.76758">
        <ele>25.265709</ele>
        <time>2011-01-19 13:56:58Z</time>
      </trkpt>
      <trkpt lat="43.45672" lon="6.76758">
        <ele>25.265709</ele>
        <time>2011-01-19 13:57:02Z</time>
      </trkpt>
      <trkpt lat="43.45677" lon="6.76782">
        <ele>25.265774</ele>
        <time>2011-01-19 13:57:06Z</time>
      </trkpt>
      <trkpt lat="43.45678" lon="6.76784">
        <ele>25.265781</ele>
        <time>2011-01-19 13:57:10Z</time>
      </trkpt>
      <trkpt lat="43.45678" lon="6.76784">
        <ele>25.265781</ele>
        <time>2011-01-19 13:57:14Z</time>
      </trkpt>
      <trkpt lat="43.45678" lon="6.76784">
        <ele>25.265781</ele>
        <time>2011-01-19 13:57:18Z</time>
      </trkpt>
      <trkpt lat="43.45687" lon="6.76804">
        <ele>26.265839</ele>
        <time>2011-01-19 13:57:22Z</time>
      </trkpt>
      <trkpt lat="43.45687" lon="6.76804">
        <ele>26.265839</ele>
        <time>2011-01-19 13:57:26Z</time>
      </trkpt>
      <trkpt lat="43.45687" lon="6.76804">
        <ele>26.265839</ele>
        <time>2011-01-19 13:57:30Z</time>
      </trkpt>
      <trkpt lat="43.45687" lon="6.76804">
        <ele>26.265839</ele>
        <time>2011-01-19 13:57:34Z</time>
      </trkpt>
      <trkpt lat="43.45687" lon="6.76804">
        <ele>26.265839</ele>
        <time>2011-01-19 13:57:38Z</time>
      </trkpt>
      <trkpt lat="43.4571" lon="6.76828">
        <ele>28.26593</ele>
        <time>2011-01-19 13:57:42Z</time>
      </trkpt>
      <trkpt lat="43.45712" lon="6.76831">
        <ele>28.265938</ele>
        <time>2011-01-19 13:57:46Z</time>
      </trkpt>
      <trkpt lat="43.45715" lon="6.76839">
        <ele>28.265965</ele>
        <time>2011-01-19 13:57:50Z</time>
      </trkpt>
      <trkpt lat="43.45717" lon="6.76847">
        <ele>28.265987</ele>
        <time>2011-01-19 13:57:54Z</time>
      </trkpt>
      <trkpt lat="43.45717" lon="6.76847">
        <ele>28.265987</ele>
        <time>2011-01-19 13:57:58Z</time>
      </trkpt>
      <trkpt lat="43.45717" lon="6.76847">
        <ele>28.265987</ele>
        <time>2011-01-19 13:58:02Z</time>
      </trkpt>
      <trkpt lat="43.45717" lon="6.76847">
        <ele>28.265987</ele>
        <time>2011-01-19 13:58:06Z</time>
      </trkpt>
      <trkpt lat="43.45717" lon="6.76847">
        <ele>28.265987</ele>
        <time>2011-01-19 13:58:10Z</time>
      </trkpt>
      <trkpt lat="43.45717" lon="6.76847">
        <ele>28.265987</ele>
        <time>2011-01-19 13:58:14Z</time>
      </trkpt>
      <trkpt lat="43.45717" lon="6.76847">
        <ele>28.265987</ele>
        <time>2011-01-19 13:58:18Z</time>
      </trkpt>
      <trkpt lat="43.45717" lon="6.76847">
        <ele>28.265987</ele>
        <time>2011-01-19 13:58:22Z</time>
      </trkpt>
      <trkpt lat="43.45726" lon="6.76886">
        <ele>30.26609</ele>
        <time>2011-01-19 13:58:26Z</time>
      </trkpt>
      <trkpt lat="43.45726" lon="6.76886">
        <ele>30.26609</ele>
        <time>2011-01-19 13:58:30Z</time>
      </trkpt>
      <trkpt lat="43.45726" lon="6.76886">
        <ele>30.26609</ele>
        <time>2011-01-19 13:58:34Z</time>
      </trkpt>
      <trkpt lat="43.45726" lon="6.76886">
        <ele>30.26609</ele>
        <time>2011-01-19 13:58:38Z</time>
      </trkpt>
      <trkpt lat="43.45726" lon="6.76886">
        <ele>30.26609</ele>
        <time>2011-01-19 13:58:42Z</time>
      </trkpt>
      <trkpt lat="43.45726" lon="6.76886">
        <ele>30.26609</ele>
        <time>2011-01-19 13:58:46Z</time>
      </trkpt>
      <trkpt lat="43.45734" lon="6.76922">
        <ele>33.266182</ele>
        <time>2011-01-19 13:58:50Z</time>
      </trkpt>
      <trkpt lat="43.45735" lon="6.7693">
        <ele>33.266201</ele>
        <time>2011-01-19 13:58:54Z</time>
      </trkpt>
      <trkpt lat="43.45736" lon="6.76943">
        <ele>34.266235</ele>
        <time>2011-01-19 13:58:58Z</time>
      </trkpt>
      <trkpt lat="43.45736" lon="6.76944">
        <ele>34.266239</ele>
        <time>2011-01-19 13:59:02Z</time>
      </trkpt>
      <trkpt lat="43.45736" lon="6.76944">
        <ele>34.266239</ele>
        <time>2011-01-19 13:59:06Z</time>
      </trkpt>
      <trkpt lat="43.45736" lon="6.76944">
        <ele>34.266239</ele>
        <time>2011-01-19 13:59:10Z</time>
      </trkpt>
      <trkpt lat="43.45736" lon="6.76944">
        <ele>34.266239</ele>
        <time>2011-01-19 13:59:14Z</time>
      </trkpt>
      <trkpt lat="43.45736" lon="6.76944">
        <ele>34.266239</ele>
        <time>2011-01-19 13:59:18Z</time>
      </trkpt>
      <trkpt lat="43.45736" lon="6.76944">
        <ele>34.266239</ele>
        <time>2011-01-19 13:59:22Z</time>
      </trkpt>
      <trkpt lat="43.45736" lon="6.76944">
        <ele>34.266239</ele>
        <time>2011-01-19 13:59:26Z</time>
      </trkpt>
      <trkpt lat="43.45744" lon="6.76978">
        <ele>35.266331</ele>
        <time>2011-01-19 13:59:30Z</time>
      </trkpt>
      <trkpt lat="43.45745" lon="6.76979">
        <ele>35.266331</ele>
        <time>2011-01-19 13:59:34Z</time>
      </trkpt>
      <trkpt lat="43.45747" lon="6.76984">
        <ele>35.266346</ele>
        <time>2011-01-19 13:59:38Z</time>
      </trkpt>
      <trkpt lat="43.45748" lon="6.76989">
        <ele>35.266357</ele>
        <time>2011-01-19 13:59:42Z</time>
      </trkpt>
      <trkpt lat="43.45748" lon="6.76989">
        <ele>35.266357</ele>
        <time>2011-01-19 13:59:46Z</time>
      </trkpt>
      <trkpt lat="43.4575" lon="6.77004">
        <ele>36.266396</ele>
        <time>2011-01-19 13:59:50Z</time>
      </trkpt>
      <trkpt lat="43.4575" lon="6.77004">
        <ele>36.266396</ele>
        <time>2011-01-19 13:59:54Z</time>
      </trkpt>
      <trkpt lat="43.45753" lon="6.77019">
        <ele>36.266434</ele>
        <time>2011-01-19 13:59:58Z</time>
      </trkpt>
      <trkpt lat="43.45754" lon="6.77023">
        <ele>36.266445</ele>
        <time>2011-01-19 14:00:02Z</time>
      </trkpt>
      <trkpt lat="43.45754" lon="6.77023">
        <ele>36.266445</ele>
        <time>2011-01-19 14:00:06Z</time>
      </trkpt>
      <trkpt lat="43.45761" lon="6.7704">
        <ele>37.266495</ele>
        <time>2011-01-19 14:00:10Z</time>
      </trkpt>
      <trkpt lat="43.45764" lon="6.77044">
        <ele>37.26651</ele>
        <time>2011-01-19 14:00:14Z</time>
      </trkpt>
      <trkpt lat="43.45764" lon="6.77044">
        <ele>37.26651</ele>
        <time>2011-01-19 14:00:18Z</time>
      </trkpt>
      <trkpt lat="43.45773" lon="6.77051">
        <ele>37.266541</ele>
        <time>2011-01-19 14:00:22Z</time>
      </trkpt>
      <trkpt lat="43.45773" lon="6.77051">
        <ele>37.266541</ele>
        <time>2011-01-19 14:00:26Z</time>
      </trkpt>
      <trkpt lat="43.45773" lon="6.77051">
        <ele>37.266541</ele>
        <time>2011-01-19 14:00:30Z</time>
      </trkpt>
      <trkpt lat="43.45773" lon="6.77051">
        <ele>37.266541</ele>
        <time>2011-01-19 14:00:34Z</time>
      </trkpt>
      <trkpt lat="43.45773" lon="6.77051">
        <ele>37.266541</ele>
        <time>2011-01-19 14:00:38Z</time>
      </trkpt>
      <trkpt lat="43.45785" lon="6.77057">
        <ele>37.266575</ele>
        <time>2011-01-19 14:00:42Z</time>
      </trkpt>
      <trkpt lat="43.45785" lon="6.77057">
        <ele>37.266575</ele>
        <time>2011-01-19 14:00:46Z</time>
      </trkpt>
      <trkpt lat="43.45789" lon="6.7706">
        <ele>36.266582</ele>
        <time>2011-01-19 14:00:50Z</time>
      </trkpt>
      <trkpt lat="43.45791" lon="6.7706">
        <ele>36.26659</ele>
        <time>2011-01-19 14:00:54Z</time>
      </trkpt>
      <trkpt lat="43.45791" lon="6.7706">
        <ele>36.26659</ele>
        <time>2011-01-19 14:00:58Z</time>
      </trkpt>
      <trkpt lat="43.45791" lon="6.7706">
        <ele>36.26659</ele>
        <time>2011-01-19 14:01:02Z</time>
      </trkpt>
      <trkpt lat="43.45804" lon="6.77065">
        <ele>37.266621</ele>
        <time>2011-01-19 14:01:06Z</time>
      </trkpt>
      <trkpt lat="43.45805" lon="6.77066">
        <ele>37.266621</ele>
        <time>2011-01-19 14:01:10Z</time>
      </trkpt>
      <trkpt lat="43.45805" lon="6.77066">
        <ele>37.266621</ele>
        <time>2011-01-19 14:01:14Z</time>
      </trkpt>
      <trkpt lat="43.45805" lon="6.77066">
        <ele>37.266621</ele>
        <time>2011-01-19 14:01:18Z</time>
      </trkpt>
      <trkpt lat="43.45805" lon="6.77066">
        <ele>37.266621</ele>
        <time>2011-01-19 14:01:22Z</time>
      </trkpt>
      <trkpt lat="43.45828" lon="6.77072">
        <ele>38.266678</ele>
        <time>2011-01-19 14:01:26Z</time>
      </trkpt>
      <trkpt lat="43.45829" lon="6.77072">
        <ele>38.266678</ele>
        <time>2011-01-19 14:01:30Z</time>
      </trkpt>
      <trkpt lat="43.45829" lon="6.77072">
        <ele>38.266678</ele>
        <time>2011-01-19 14:01:34Z</time>
      </trkpt>
      <trkpt lat="43.45843" lon="6.77074">
        <ele>38.266708</ele>
        <time>2011-01-19 14:01:38Z</time>
      </trkpt>
      <trkpt lat="43.45845" lon="6.77075">
        <ele>38.266708</ele>
        <time>2011-01-19 14:01:42Z</time>
      </trkpt>
      <trkpt lat="43.45845" lon="6.77075">
        <ele>38.266708</ele>
        <time>2011-01-19 14:01:46Z</time>
      </trkpt>
      <trkpt lat="43.45852" lon="6.77078">
        <ele>37.266731</ele>
        <time>2011-01-19 14:01:50Z</time>
      </trkpt>
      <trkpt lat="43.45855" lon="6.77078">
        <ele>37.266735</ele>
        <time>2011-01-19 14:01:54Z</time>
      </trkpt>
      <trkpt lat="43.45861" lon="6.77077">
        <ele>37.266739</ele>
        <time>2011-01-19 14:01:58Z</time>
      </trkpt>
      <trkpt lat="43.45861" lon="6.77077">
        <ele>37.266739</ele>
        <time>2011-01-19 14:02:02Z</time>
      </trkpt>
      <trkpt lat="43.45861" lon="6.77077">
        <ele>37.266739</ele>
        <time>2011-01-19 14:02:06Z</time>
      </trkpt>
      <trkpt lat="43.45861" lon="6.77077">
        <ele>37.266739</ele>
        <time>2011-01-19 14:02:10Z</time>
      </trkpt>
      <trkpt lat="43.45861" lon="6.77077">
        <ele>37.266739</ele>
        <time>2011-01-19 14:02:14Z</time>
      </trkpt>
      <trkpt lat="43.45876" lon="6.77073">
        <ele>37.266754</ele>
        <time>2011-01-19 14:02:18Z</time>
      </trkpt>
      <trkpt lat="43.45876" lon="6.77073">
        <ele>37.266754</ele>
        <time>2011-01-19 14:02:22Z</time>
      </trkpt>
      <trkpt lat="43.45883" lon="6.77074">
        <ele>36.266769</ele>
        <time>2011-01-19 14:02:26Z</time>
      </trkpt>
      <trkpt lat="43.45887" lon="6.77075">
        <ele>36.266777</ele>
        <time>2011-01-19 14:02:30Z</time>
      </trkpt>
      <trkpt lat="43.4589" lon="6.77075">
        <ele>36.266781</ele>
        <time>2011-01-19 14:02:34Z</time>
      </trkpt>
      <trkpt lat="43.4589" lon="6.77075">
        <ele>36.266781</ele>
        <time>2011-01-19 14:02:38Z</time>
      </trkpt>
      <trkpt lat="43.4589" lon="6.77075">
        <ele>36.266781</ele>
        <time>2011-01-19 14:02:42Z</time>
      </trkpt>
      <trkpt lat="43.4589" lon="6.77075">
        <ele>36.266781</ele>
        <time>2011-01-19 14:02:46Z</time>
      </trkpt>
      <trkpt lat="43.4589" lon="6.77075">
        <ele>36.266781</ele>
        <time>2011-01-19 14:02:50Z</time>
      </trkpt>
      <trkpt lat="43.4589" lon="6.77075">
        <ele>36.266781</ele>
        <time>2011-01-19 14:02:54Z</time>
      </trkpt>
      <trkpt lat="43.4589" lon="6.77075">
        <ele>36.266781</ele>
        <time>2011-01-19 14:02:58Z</time>
      </trkpt>
      <trkpt lat="43.4589" lon="6.77075">
        <ele>36.266781</ele>
        <time>2011-01-19 14:03:02Z</time>
      </trkpt>
      <trkpt lat="43.45916" lon="6.77082">
        <ele>38.266838</ele>
        <time>2011-01-19 14:03:06Z</time>
      </trkpt>
      <trkpt lat="43.45916" lon="6.77082">
        <ele>38.266838</ele>
        <time>2011-01-19 14:03:10Z</time>
      </trkpt>
      <trkpt lat="43.45916" lon="6.77082">
        <ele>38.266838</ele>
        <time>2011-01-19 14:03:14Z</time>
      </trkpt>
      <trkpt lat="43.45916" lon="6.77082">
        <ele>38.266838</ele>
        <time>2011-01-19 14:03:18Z</time>
      </trkpt>
      <trkpt lat="43.45933" lon="6.7708">
        <ele>39.266869</ele>
        <time>2011-01-19 14:03:22Z</time>
      </trkpt>
      <trkpt lat="43.45935" lon="6.77079">
        <ele>39.266869</ele>
        <time>2011-01-19 14:03:26Z</time>
      </trkpt>
      <trkpt lat="43.45935" lon="6.77079">
        <ele>39.266869</ele>
        <time>2011-01-19 14:03:30Z</time>
      </trkpt>
      <trkpt lat="43.45935" lon="6.77079">
        <ele>39.266869</ele>
        <time>2011-01-19 14:03:34Z</time>
      </trkpt>
      <trkpt lat="43.45935" lon="6.77079">
        <ele>39.266869</ele>
        <time>2011-01-19 14:03:38Z</time>
      </trkpt>
      <trkpt lat="43.45935" lon="6.77079">
        <ele>39.266869</ele>
        <time>2011-01-19 14:03:42Z</time>
      </trkpt>
      <trkpt lat="43.45935" lon="6.77079">
        <ele>39.266869</ele>
        <time>2011-01-19 14:03:46Z</time>
      </trkpt>
      <trkpt lat="43.45956" lon="6.77071">
        <ele>39.26688</ele>
        <time>2011-01-19 14:03:50Z</time>
      </trkpt>
      <trkpt lat="43.45958" lon="6.7707">
        <ele>39.266884</ele>
        <time>2011-01-19 14:03:54Z</time>
      </trkpt>
      <trkpt lat="43.45969" lon="6.77064">
        <ele>40.266884</ele>
        <time>2011-01-19 14:03:58Z</time>
      </trkpt>
      <trkpt lat="43.45973" lon="6.7706">
        <ele>40.26688</ele>
        <time>2011-01-19 14:04:02Z</time>
      </trkpt>
      <trkpt lat="43.45977" lon="6.77056">
        <ele>40.266884</ele>
        <time>2011-01-19 14:04:06Z</time>
      </trkpt>
      <trkpt lat="43.45983" lon="6.7705">
        <ele>40.266876</ele>
        <time>2011-01-19 14:04:10Z</time>
      </trkpt>
      <trkpt lat="43.45987" lon="6.77047">
        <ele>41.266876</ele>
        <time>2011-01-19 14:04:14Z</time>
      </trkpt>
      <trkpt lat="43.45992" lon="6.77045">
        <ele>40.266876</ele>
        <time>2011-01-19 14:04:18Z</time>
      </trkpt>
      <trkpt lat="43.45993" lon="6.77044">
        <ele>40.266876</ele>
        <time>2011-01-19 14:04:22Z</time>
      </trkpt>
      <trkpt lat="43.46001" lon="6.77038">
        <ele>41.266876</ele>
        <time>2011-01-19 14:04:26Z</time>
      </trkpt>
      <trkpt lat="43.46001" lon="6.77038">
        <ele>41.266876</ele>
        <time>2011-01-19 14:04:30Z</time>
      </trkpt>
      <trkpt lat="43.46001" lon="6.77038">
        <ele>41.266876</ele>
        <time>2011-01-19 14:04:34Z</time>
      </trkpt>
      <trkpt lat="43.46009" lon="6.77031">
        <ele>41.266876</ele>
        <time>2011-01-19 14:04:38Z</time>
      </trkpt>
      <trkpt lat="43.46013" lon="6.77029">
        <ele>42.266876</ele>
        <time>2011-01-19 14:04:42Z</time>
      </trkpt>
      <trkpt lat="43.46013" lon="6.77029">
        <ele>42.266876</ele>
        <time>2011-01-19 14:04:46Z</time>
      </trkpt>
      <trkpt lat="43.46013" lon="6.77029">
        <ele>42.266876</ele>
        <time>2011-01-19 14:04:50Z</time>
      </trkpt>
      <trkpt lat="43.46013" lon="6.77029">
        <ele>42.266876</ele>
        <time>2011-01-19 14:04:54Z</time>
      </trkpt>
      <trkpt lat="43.46028" lon="6.77017">
        <ele>42.266876</ele>
        <time>2011-01-19 14:04:58Z</time>
      </trkpt>
      <trkpt lat="43.46029" lon="6.77016">
        <ele>42.266876</ele>
        <time>2011-01-19 14:05:02Z</time>
      </trkpt>
      <trkpt lat="43.46034" lon="6.77013">
        <ele>42.266876</ele>
        <time>2011-01-19 14:05:06Z</time>
      </trkpt>
      <trkpt lat="43.46036" lon="6.77012">
        <ele>42.266876</ele>
        <time>2011-01-19 14:05:10Z</time>
      </trkpt>
      <trkpt lat="43.46041" lon="6.77009">
        <ele>42.266876</ele>
        <time>2011-01-19 14:05:14Z</time>
      </trkpt>
      <trkpt lat="43.46045" lon="6.7701">
        <ele>43.266884</ele>
        <time>2011-01-19 14:05:18Z</time>
      </trkpt>
      <trkpt lat="43.4605" lon="6.77009">
        <ele>42.266891</ele>
        <time>2011-01-19 14:05:22Z</time>
      </trkpt>
      <trkpt lat="43.46052" lon="6.77007">
        <ele>42.266891</ele>
        <time>2011-01-19 14:05:26Z</time>
      </trkpt>
      <trkpt lat="43.46052" lon="6.77007">
        <ele>42.266891</ele>
        <time>2011-01-19 14:05:30Z</time>
      </trkpt>
      <trkpt lat="43.46057" lon="6.77005">
        <ele>41.266895</ele>
        <time>2011-01-19 14:05:34Z</time>
      </trkpt>
      <trkpt lat="43.46059" lon="6.77005">
        <ele>40.266899</ele>
        <time>2011-01-19 14:05:38Z</time>
      </trkpt>
      <trkpt lat="43.46063" lon="6.77005">
        <ele>39.266899</ele>
        <time>2011-01-19 14:05:42Z</time>
      </trkpt>
      <trkpt lat="43.46063" lon="6.77004">
        <ele>39.266899</ele>
        <time>2011-01-19 14:05:46Z</time>
      </trkpt>
      <trkpt lat="43.46063" lon="6.77004">
        <ele>39.266899</ele>
        <time>2011-01-19 14:05:50Z</time>
      </trkpt>
      <trkpt lat="43.46066" lon="6.77001">
        <ele>37.266895</ele>
        <time>2011-01-19 14:05:54Z</time>
      </trkpt>
      <trkpt lat="43.46066" lon="6.77001">
        <ele>37.266895</ele>
        <time>2011-01-19 14:05:58Z</time>
      </trkpt>
      <trkpt lat="43.46066" lon="6.77001">
        <ele>37.266895</ele>
        <time>2011-01-19 14:06:02Z</time>
      </trkpt>
      <trkpt lat="43.46069" lon="6.76999">
        <ele>37.266899</ele>
        <time>2011-01-19 14:06:06Z</time>
      </trkpt>
      <trkpt lat="43.4607" lon="6.76999">
        <ele>37.266899</ele>
        <time>2011-01-19 14:06:10Z</time>
      </trkpt>
      <trkpt lat="43.4607" lon="6.76999">
        <ele>37.266899</ele>
        <time>2011-01-19 14:06:14Z</time>
      </trkpt>
      <trkpt lat="43.4607" lon="6.76999">
        <ele>37.266899</ele>
        <time>2011-01-19 14:06:18Z</time>
      </trkpt>
      <trkpt lat="43.4607" lon="6.76999">
        <ele>37.266899</ele>
        <time>2011-01-19 14:06:22Z</time>
      </trkpt>
      <trkpt lat="43.4607" lon="6.76999">
        <ele>37.266899</ele>
        <time>2011-01-19 14:06:26Z</time>
      </trkpt>
      <trkpt lat="43.4607" lon="6.76999">
        <ele>37.266899</ele>
        <time>2011-01-19 14:06:30Z</time>
      </trkpt>
      <trkpt lat="43.4607" lon="6.76999">
        <ele>37.266899</ele>
        <time>2011-01-19 14:06:34Z</time>
      </trkpt>
      <trkpt lat="43.4607" lon="6.76999">
        <ele>37.266899</ele>
        <time>2011-01-19 14:06:38Z</time>
      </trkpt>
      <trkpt lat="43.4607" lon="6.76999">
        <ele>37.266899</ele>
        <time>2011-01-19 14:06:42Z</time>
      </trkpt>
      <trkpt lat="43.4607" lon="6.76999">
        <ele>37.266899</ele>
        <time>2011-01-19 14:06:46Z</time>
      </trkpt>
      <trkpt lat="43.46096" lon="6.76983">
        <ele>34.266907</ele>
        <time>2011-01-19 14:06:50Z</time>
      </trkpt>
      <trkpt lat="43.46096" lon="6.76983">
        <ele>34.266907</ele>
        <time>2011-01-19 14:06:54Z</time>
      </trkpt>
      <trkpt lat="43.46096" lon="6.76983">
        <ele>34.266907</ele>
        <time>2011-01-19 14:06:58Z</time>
      </trkpt>
      <trkpt lat="43.46109" lon="6.76977">
        <ele>35.266914</ele>
        <time>2011-01-19 14:07:02Z</time>
      </trkpt>
      <trkpt lat="43.4611" lon="6.76977">
        <ele>35.266914</ele>
        <time>2011-01-19 14:07:06Z</time>
      </trkpt>
      <trkpt lat="43.4611" lon="6.76977">
        <ele>35.266914</ele>
        <time>2011-01-19 14:07:10Z</time>
      </trkpt>
      <trkpt lat="43.4611" lon="6.76977">
        <ele>35.266914</ele>
        <time>2011-01-19 14:07:14Z</time>
      </trkpt>
      <trkpt lat="43.4611" lon="6.76977">
        <ele>35.266914</ele>
        <time>2011-01-19 14:07:18Z</time>
      </trkpt>
      <trkpt lat="43.4611" lon="6.76977">
        <ele>35.266914</ele>
        <time>2011-01-19 14:07:22Z</time>
      </trkpt>
      <trkpt lat="43.4611" lon="6.76977">
        <ele>35.266914</ele>
        <time>2011-01-19 14:07:26Z</time>
      </trkpt>
      <trkpt lat="43.4611" lon="6.76977">
        <ele>35.266914</ele>
        <time>2011-01-19 14:07:30Z</time>
      </trkpt>
      <trkpt lat="43.4611" lon="6.76977">
        <ele>35.266914</ele>
        <time>2011-01-19 14:07:34Z</time>
      </trkpt>
      <trkpt lat="43.46138" lon="6.76969">
        <ele>34.266945</ele>
        <time>2011-01-19 14:07:38Z</time>
      </trkpt>
      <trkpt lat="43.46138" lon="6.76969">
        <ele>34.266945</ele>
        <time>2011-01-19 14:07:42Z</time>
      </trkpt>
      <trkpt lat="43.46138" lon="6.76969">
        <ele>34.266945</ele>
        <time>2011-01-19 14:07:46Z</time>
      </trkpt>
      <trkpt lat="43.46138" lon="6.76969">
        <ele>34.266945</ele>
        <time>2011-01-19 14:07:50Z</time>
      </trkpt>
      <trkpt lat="43.46138" lon="6.76969">
        <ele>34.266945</ele>
        <time>2011-01-19 14:07:54Z</time>
      </trkpt>
      <trkpt lat="43.46138" lon="6.76969">
        <ele>34.266945</ele>
        <time>2011-01-19 14:07:58Z</time>
      </trkpt>
      <trkpt lat="43.46138" lon="6.76969">
        <ele>34.266945</ele>
        <time>2011-01-19 14:08:02Z</time>
      </trkpt>
      <trkpt lat="43.46138" lon="6.76969">
        <ele>34.266945</ele>
        <time>2011-01-19 14:08:06Z</time>
      </trkpt>
      <trkpt lat="43.46166" lon="6.76966">
        <ele>33.266983</ele>
        <time>2011-01-19 14:08:10Z</time>
      </trkpt>
      <trkpt lat="43.46166" lon="6.76966">
        <ele>33.266983</ele>
        <time>2011-01-19 14:08:14Z</time>
      </trkpt>
      <trkpt lat="43.46166" lon="6.76966">
        <ele>33.266983</ele>
        <time>2011-01-19 14:08:18Z</time>
      </trkpt>
      <trkpt lat="43.46179" lon="6.76968">
        <ele>32.267006</ele>
        <time>2011-01-19 14:08:22Z</time>
      </trkpt>
      <trkpt lat="43.46183" lon="6.76971">
        <ele>32.267021</ele>
        <time>2011-01-19 14:08:26Z</time>
      </trkpt>
      <trkpt lat="43.46185" lon="6.76973">
        <ele>31.267029</ele>
        <time>2011-01-19 14:08:30Z</time>
      </trkpt>
      <trkpt lat="43.46187" lon="6.76982">
        <ele>31.267052</ele>
        <time>2011-01-19 14:08:34Z</time>
      </trkpt>
      <trkpt lat="43.46188" lon="6.76987">
        <ele>31.267063</ele>
        <time>2011-01-19 14:08:38Z</time>
      </trkpt>
      <trkpt lat="43.46188" lon="6.76987">
        <ele>31.267063</ele>
        <time>2011-01-19 14:08:42Z</time>
      </trkpt>
      <trkpt lat="43.46191" lon="6.76995">
        <ele>30.267086</ele>
        <time>2011-01-19 14:08:46Z</time>
      </trkpt>
      <trkpt lat="43.46193" lon="6.77005">
        <ele>30.267113</ele>
        <time>2011-01-19 14:08:50Z</time>
      </trkpt>
      <trkpt lat="43.46194" lon="6.77013">
        <ele>29.267136</ele>
        <time>2011-01-19 14:08:54Z</time>
      </trkpt>
      <trkpt lat="43.46195" lon="6.7702">
        <ele>29.267151</ele>
        <time>2011-01-19 14:08:58Z</time>
      </trkpt>
      <trkpt lat="43.46195" lon="6.77024">
        <ele>29.267159</ele>
        <time>2011-01-19 14:09:02Z</time>
      </trkpt>
      <trkpt lat="43.46195" lon="6.77024">
        <ele>29.267159</ele>
        <time>2011-01-19 14:09:06Z</time>
      </trkpt>
      <trkpt lat="43.46195" lon="6.77024">
        <ele>29.267159</ele>
        <time>2011-01-19 14:09:10Z</time>
      </trkpt>
      <trkpt lat="43.46195" lon="6.77024">
        <ele>29.267159</ele>
        <time>2011-01-19 14:09:14Z</time>
      </trkpt>
      <trkpt lat="43.46195" lon="6.77024">
        <ele>29.267159</ele>
        <time>2011-01-19 14:09:18Z</time>
      </trkpt>
      <trkpt lat="43.46195" lon="6.77024">
        <ele>29.267159</ele>
        <time>2011-01-19 14:09:22Z</time>
      </trkpt>
      <trkpt lat="43.46201" lon="6.7706">
        <ele>28.26725</ele>
        <time>2011-01-19 14:09:26Z</time>
      </trkpt>
      <trkpt lat="43.46201" lon="6.77067">
        <ele>28.267269</ele>
        <time>2011-01-19 14:09:30Z</time>
      </trkpt>
      <trkpt lat="43.46201" lon="6.77067">
        <ele>28.267269</ele>
        <time>2011-01-19 14:09:34Z</time>
      </trkpt>
      <trkpt lat="43.46201" lon="6.77067">
        <ele>28.267269</ele>
        <time>2011-01-19 14:09:38Z</time>
      </trkpt>
      <trkpt lat="43.46201" lon="6.77067">
        <ele>28.267269</ele>
        <time>2011-01-19 14:09:42Z</time>
      </trkpt>
      <trkpt lat="43.46201" lon="6.77067">
        <ele>28.267269</ele>
        <time>2011-01-19 14:09:46Z</time>
      </trkpt>
      <trkpt lat="43.46201" lon="6.77067">
        <ele>28.267269</ele>
        <time>2011-01-19 14:09:50Z</time>
      </trkpt>
      <trkpt lat="43.46201" lon="6.77067">
        <ele>28.267269</ele>
        <time>2011-01-19 14:09:54Z</time>
      </trkpt>
      <trkpt lat="43.46204" lon="6.77105">
        <ele>30.267357</ele>
        <time>2011-01-19 14:09:58Z</time>
      </trkpt>
      <trkpt lat="43.46204" lon="6.77105">
        <ele>30.267357</ele>
        <time>2011-01-19 14:10:02Z</time>
      </trkpt>
      <trkpt lat="43.46204" lon="6.77105">
        <ele>30.267357</ele>
        <time>2011-01-19 14:10:06Z</time>
      </trkpt>
      <trkpt lat="43.46204" lon="6.77105">
        <ele>30.267357</ele>
        <time>2011-01-19 14:10:10Z</time>
      </trkpt>
      <trkpt lat="43.46204" lon="6.77105">
        <ele>30.267357</ele>
        <time>2011-01-19 14:10:14Z</time>
      </trkpt>
      <trkpt lat="43.46203" lon="6.77143">
        <ele>32.267445</ele>
        <time>2011-01-19 14:10:18Z</time>
      </trkpt>
      <trkpt lat="43.46203" lon="6.77143">
        <ele>32.267445</ele>
        <time>2011-01-19 14:10:22Z</time>
      </trkpt>
      <trkpt lat="43.46203" lon="6.77143">
        <ele>32.267445</ele>
        <time>2011-01-19 14:10:26Z</time>
      </trkpt>
      <trkpt lat="43.46203" lon="6.77143">
        <ele>32.267445</ele>
        <time>2011-01-19 14:10:30Z</time>
      </trkpt>
      <trkpt lat="43.46203" lon="6.77143">
        <ele>32.267445</ele>
        <time>2011-01-19 14:10:34Z</time>
      </trkpt>
      <trkpt lat="43.46203" lon="6.77143">
        <ele>32.267445</ele>
        <time>2011-01-19 14:10:38Z</time>
      </trkpt>
      <trkpt lat="43.46203" lon="6.77143">
        <ele>32.267445</ele>
        <time>2011-01-19 14:10:42Z</time>
      </trkpt>
      <trkpt lat="43.46203" lon="6.77143">
        <ele>32.267445</ele>
        <time>2011-01-19 14:10:46Z</time>
      </trkpt>
      <trkpt lat="43.46206" lon="6.7718">
        <ele>34.267529</ele>
        <time>2011-01-19 14:10:50Z</time>
      </trkpt>
      <trkpt lat="43.46206" lon="6.7718">
        <ele>34.267529</ele>
        <time>2011-01-19 14:10:54Z</time>
      </trkpt>
      <trkpt lat="43.46206" lon="6.7718">
        <ele>34.267529</ele>
        <time>2011-01-19 14:10:58Z</time>
      </trkpt>
      <trkpt lat="43.46206" lon="6.7718">
        <ele>34.267529</ele>
        <time>2011-01-19 14:11:02Z</time>
      </trkpt>
      <trkpt lat="43.46206" lon="6.7718">
        <ele>34.267529</ele>
        <time>2011-01-19 14:11:06Z</time>
      </trkpt>
      <trkpt lat="43.46206" lon="6.7718">
        <ele>34.267529</ele>
        <time>2011-01-19 14:11:10Z</time>
      </trkpt>
      <trkpt lat="43.46208" lon="6.77218">
        <ele>36.267616</ele>
        <time>2011-01-19 14:11:14Z</time>
      </trkpt>
      <trkpt lat="43.46208" lon="6.77218">
        <ele>36.267616</ele>
        <time>2011-01-19 14:11:18Z</time>
      </trkpt>
      <trkpt lat="43.46208" lon="6.77218">
        <ele>36.267616</ele>
        <time>2011-01-19 14:11:22Z</time>
      </trkpt>
      <trkpt lat="43.46208" lon="6.77218">
        <ele>36.267616</ele>
        <time>2011-01-19 14:11:26Z</time>
      </trkpt>
      <trkpt lat="43.46208" lon="6.77218">
        <ele>36.267616</ele>
        <time>2011-01-19 14:11:30Z</time>
      </trkpt>
      <trkpt lat="43.46208" lon="6.77218">
        <ele>36.267616</ele>
        <time>2011-01-19 14:11:34Z</time>
      </trkpt>
      <trkpt lat="43.46206" lon="6.77255">
        <ele>38.2677</ele>
        <time>2011-01-19 14:11:38Z</time>
      </trkpt>
      <trkpt lat="43.46206" lon="6.77255">
        <ele>38.2677</ele>
        <time>2011-01-19 14:11:42Z</time>
      </trkpt>
      <trkpt lat="43.46206" lon="6.77255">
        <ele>38.2677</ele>
        <time>2011-01-19 14:11:46Z</time>
      </trkpt>
      <trkpt lat="43.46206" lon="6.77255">
        <ele>38.2677</ele>
        <time>2011-01-19 14:11:50Z</time>
      </trkpt>
      <trkpt lat="43.46206" lon="6.77255">
        <ele>38.2677</ele>
        <time>2011-01-19 14:11:54Z</time>
      </trkpt>
      <trkpt lat="43.46206" lon="6.77255">
        <ele>38.2677</ele>
        <time>2011-01-19 14:11:58Z</time>
      </trkpt>
      <trkpt lat="43.46208" lon="6.77294">
        <ele>39.267792</ele>
        <time>2011-01-19 14:12:02Z</time>
      </trkpt>
      <trkpt lat="43.46208" lon="6.77294">
        <ele>39.267792</ele>
        <time>2011-01-19 14:12:06Z</time>
      </trkpt>
      <trkpt lat="43.46208" lon="6.77294">
        <ele>39.267792</ele>
        <time>2011-01-19 14:12:10Z</time>
      </trkpt>
      <trkpt lat="43.46208" lon="6.77294">
        <ele>39.267792</ele>
        <time>2011-01-19 14:12:14Z</time>
      </trkpt>
      <trkpt lat="43.46208" lon="6.77294">
        <ele>39.267792</ele>
        <time>2011-01-19 14:12:18Z</time>
      </trkpt>
      <trkpt lat="43.46209" lon="6.77332">
        <ele>38.267879</ele>
        <time>2011-01-19 14:12:22Z</time>
      </trkpt>
      <trkpt lat="43.46209" lon="6.77332">
        <ele>38.267879</ele>
        <time>2011-01-19 14:12:26Z</time>
      </trkpt>
      <trkpt lat="43.46209" lon="6.77332">
        <ele>38.267879</ele>
        <time>2011-01-19 14:12:30Z</time>
      </trkpt>
      <trkpt lat="43.46209" lon="6.77332">
        <ele>38.267879</ele>
        <time>2011-01-19 14:12:34Z</time>
      </trkpt>
      <trkpt lat="43.46209" lon="6.77332">
        <ele>38.267879</ele>
        <time>2011-01-19 14:12:38Z</time>
      </trkpt>
      <trkpt lat="43.46209" lon="6.77332">
        <ele>38.267879</ele>
        <time>2011-01-19 14:12:42Z</time>
      </trkpt>
      <trkpt lat="43.46209" lon="6.77332">
        <ele>38.267879</ele>
        <time>2011-01-19 14:12:46Z</time>
      </trkpt>
      <trkpt lat="43.46209" lon="6.77332">
        <ele>38.267879</ele>
        <time>2011-01-19 14:12:50Z</time>
      </trkpt>
      <trkpt lat="43.46209" lon="6.77332">
        <ele>38.267879</ele>
        <time>2011-01-19 14:12:54Z</time>
      </trkpt>
      <trkpt lat="43.46207" lon="6.77364">
        <ele>39.267952</ele>
        <time>2011-01-19 14:12:58Z</time>
      </trkpt>
      <trkpt lat="43.46207" lon="6.77365">
        <ele>40.267948</ele>
        <time>2011-01-19 14:13:02Z</time>
      </trkpt>
      <trkpt lat="43.46206" lon="6.77366">
        <ele>40.267952</ele>
        <time>2011-01-19 14:13:06Z</time>
      </trkpt>
      <trkpt lat="43.46206" lon="6.77366">
        <ele>40.267952</ele>
        <time>2011-01-19 14:13:10Z</time>
      </trkpt>
      <trkpt lat="43.46204" lon="6.7737">
        <ele>41.26796</ele>
        <time>2011-01-19 14:13:14Z</time>
      </trkpt>
      <trkpt lat="43.46204" lon="6.7737">
        <ele>41.26796</ele>
        <time>2011-01-19 14:13:18Z</time>
      </trkpt>
      <trkpt lat="43.46204" lon="6.7737">
        <ele>41.26796</ele>
        <time>2011-01-19 14:13:22Z</time>
      </trkpt>
      <trkpt lat="43.46204" lon="6.7737">
        <ele>41.26796</ele>
        <time>2011-01-19 14:13:26Z</time>
      </trkpt>
      <trkpt lat="43.46198" lon="6.77379">
        <ele>40.267975</ele>
        <time>2011-01-19 14:13:30Z</time>
      </trkpt>
      <trkpt lat="43.46196" lon="6.77383">
        <ele>39.267979</ele>
        <time>2011-01-19 14:13:34Z</time>
      </trkpt>
      <trkpt lat="43.46194" lon="6.77388">
        <ele>39.267982</ele>
        <time>2011-01-19 14:13:38Z</time>
      </trkpt>
      <trkpt lat="43.4619" lon="6.77394">
        <ele>39.267994</ele>
        <time>2011-01-19 14:13:42Z</time>
      </trkpt>
      <trkpt lat="43.46189" lon="6.77395">
        <ele>39.26799</ele>
        <time>2011-01-19 14:13:46Z</time>
      </trkpt>
      <trkpt lat="43.46189" lon="6.77395">
        <ele>39.26799</ele>
        <time>2011-01-19 14:13:50Z</time>
      </trkpt>
      <trkpt lat="43.46189" lon="6.77395">
        <ele>39.26799</ele>
        <time>2011-01-19 14:13:54Z</time>
      </trkpt>
      <trkpt lat="43.46183" lon="6.77403">
        <ele>40.267998</ele>
        <time>2011-01-19 14:13:58Z</time>
      </trkpt>
      <trkpt lat="43.46182" lon="6.77404">
        <ele>40.268005</ele>
        <time>2011-01-19 14:14:02Z</time>
      </trkpt>
      <trkpt lat="43.46182" lon="6.77404">
        <ele>40.268005</ele>
        <time>2011-01-19 14:14:06Z</time>
      </trkpt>
      <trkpt lat="43.46172" lon="6.77411">
        <ele>39.267998</ele>
        <time>2011-01-19 14:14:10Z</time>
      </trkpt>
      <trkpt lat="43.46172" lon="6.77411">
        <ele>39.267998</ele>
        <time>2011-01-19 14:14:14Z</time>
      </trkpt>
      <trkpt lat="43.46166" lon="6.77413">
        <ele>38.26799</ele>
        <time>2011-01-19 14:14:18Z</time>
      </trkpt>
      <trkpt lat="43.46164" lon="6.77413">
        <ele>38.267994</ele>
        <time>2011-01-19 14:14:22Z</time>
      </trkpt>
      <trkpt lat="43.46164" lon="6.77413">
        <ele>38.267994</ele>
        <time>2011-01-19 14:14:26Z</time>
      </trkpt>
      <trkpt lat="43.46164" lon="6.77413">
        <ele>38.267994</ele>
        <time>2011-01-19 14:14:30Z</time>
      </trkpt>
      <trkpt lat="43.46164" lon="6.77413">
        <ele>38.267994</ele>
        <time>2011-01-19 14:14:34Z</time>
      </trkpt>
      <trkpt lat="43.46153" lon="6.77416">
        <ele>36.267979</ele>
        <time>2011-01-19 14:14:38Z</time>
      </trkpt>
      <trkpt lat="43.46152" lon="6.77416">
        <ele>36.267979</ele>
        <time>2011-01-19 14:14:42Z</time>
      </trkpt>
      <trkpt lat="43.46152" lon="6.77416">
        <ele>36.267979</ele>
        <time>2011-01-19 14:14:46Z</time>
      </trkpt>
      <trkpt lat="43.46152" lon="6.77416">
        <ele>36.267979</ele>
        <time>2011-01-19 14:14:50Z</time>
      </trkpt>
      <trkpt lat="43.46152" lon="6.77416">
        <ele>36.267979</ele>
        <time>2011-01-19 14:14:54Z</time>
      </trkpt>
      <trkpt lat="43.46152" lon="6.77416">
        <ele>36.267979</ele>
        <time>2011-01-19 14:14:58Z</time>
      </trkpt>
      <trkpt lat="43.46152" lon="6.77416">
        <ele>36.267979</ele>
        <time>2011-01-19 14:15:02Z</time>
      </trkpt>
      <trkpt lat="43.46152" lon="6.77416">
        <ele>36.267979</ele>
        <time>2011-01-19 14:15:06Z</time>
      </trkpt>
      <trkpt lat="43.46123" lon="6.77418">
        <ele>37.267937</ele>
        <time>2011-01-19 14:15:10Z</time>
      </trkpt>
      <trkpt lat="43.46123" lon="6.77418">
        <ele>37.267937</ele>
        <time>2011-01-19 14:15:14Z</time>
      </trkpt>
      <trkpt lat="43.46123" lon="6.77418">
        <ele>37.267937</ele>
        <time>2011-01-19 14:15:18Z</time>
      </trkpt>
      <trkpt lat="43.46123" lon="6.77418">
        <ele>37.267937</ele>
        <time>2011-01-19 14:15:22Z</time>
      </trkpt>
      <trkpt lat="43.46123" lon="6.77418">
        <ele>37.267937</ele>
        <time>2011-01-19 14:15:26Z</time>
      </trkpt>
      <trkpt lat="43.46123" lon="6.77418">
        <ele>37.267937</ele>
        <time>2011-01-19 14:15:30Z</time>
      </trkpt>
      <trkpt lat="43.46095" lon="6.77421">
        <ele>39.267899</ele>
        <time>2011-01-19 14:15:34Z</time>
      </trkpt>
      <trkpt lat="43.46095" lon="6.77421">
        <ele>39.267899</ele>
        <time>2011-01-19 14:15:38Z</time>
      </trkpt>
      <trkpt lat="43.46095" lon="6.77421">
        <ele>39.267899</ele>
        <time>2011-01-19 14:15:42Z</time>
      </trkpt>
      <trkpt lat="43.46095" lon="6.77421">
        <ele>39.267899</ele>
        <time>2011-01-19 14:15:46Z</time>
      </trkpt>
      <trkpt lat="43.46095" lon="6.77421">
        <ele>39.267899</ele>
        <time>2011-01-19 14:15:50Z</time>
      </trkpt>
      <trkpt lat="43.46095" lon="6.77421">
        <ele>39.267899</ele>
        <time>2011-01-19 14:15:54Z</time>
      </trkpt>
      <trkpt lat="43.46095" lon="6.77421">
        <ele>39.267899</ele>
        <time>2011-01-19 14:15:58Z</time>
      </trkpt>
      <trkpt lat="43.46069" lon="6.77429">
        <ele>37.267876</ele>
        <time>2011-01-19 14:16:02Z</time>
      </trkpt>
      <trkpt lat="43.46069" lon="6.77429">
        <ele>37.267876</ele>
        <time>2011-01-19 14:16:06Z</time>
      </trkpt>
      <trkpt lat="43.46069" lon="6.77429">
        <ele>37.267876</ele>
        <time>2011-01-19 14:16:10Z</time>
      </trkpt>
      <trkpt lat="43.46069" lon="6.77429">
        <ele>37.267876</ele>
        <time>2011-01-19 14:16:14Z</time>
      </trkpt>
      <trkpt lat="43.46046" lon="6.77432">
        <ele>39.267841</ele>
        <time>2011-01-19 14:16:18Z</time>
      </trkpt>
      <trkpt lat="43.46044" lon="6.77432">
        <ele>39.267838</ele>
        <time>2011-01-19 14:16:22Z</time>
      </trkpt>
      <trkpt lat="43.46032" lon="6.77435">
        <ele>39.26783</ele>
        <time>2011-01-19 14:16:26Z</time>
      </trkpt>
      <trkpt lat="43.46032" lon="6.77435">
        <ele>39.26783</ele>
        <time>2011-01-19 14:16:30Z</time>
      </trkpt>
      <trkpt lat="43.46032" lon="6.77435">
        <ele>39.26783</ele>
        <time>2011-01-19 14:16:34Z</time>
      </trkpt>
      <trkpt lat="43.46019" lon="6.77436">
        <ele>39.267807</ele>
        <time>2011-01-19 14:16:38Z</time>
      </trkpt>
      <trkpt lat="43.46019" lon="6.77436">
        <ele>39.267807</ele>
        <time>2011-01-19 14:16:42Z</time>
      </trkpt>
      <trkpt lat="43.46013" lon="6.77436">
        <ele>39.267803</ele>
        <time>2011-01-19 14:16:46Z</time>
      </trkpt>
      <trkpt lat="43.46013" lon="6.77436">
        <ele>39.267803</ele>
        <time>2011-01-19 14:16:50Z</time>
      </trkpt>
      <trkpt lat="43.46008" lon="6.77435">
        <ele>41.267792</ele>
        <time>2011-01-19 14:16:54Z</time>
      </trkpt>
      <trkpt lat="43.46006" lon="6.77435">
        <ele>41.267792</ele>
        <time>2011-01-19 14:16:58Z</time>
      </trkpt>
      <trkpt lat="43.46004" lon="6.77435">
        <ele>41.267784</ele>
        <time>2011-01-19 14:17:02Z</time>
      </trkpt>
      <trkpt lat="43.46001" lon="6.77434">
        <ele>41.26778</ele>
        <time>2011-01-19 14:17:06Z</time>
      </trkpt>
      <trkpt lat="43.46" lon="6.77434">
        <ele>41.267776</ele>
        <time>2011-01-19 14:17:10Z</time>
      </trkpt>
      <trkpt lat="43.45993" lon="6.77433">
        <ele>40.267761</ele>
        <time>2011-01-19 14:17:14Z</time>
      </trkpt>
      <trkpt lat="43.45993" lon="6.77433">
        <ele>40.267761</ele>
        <time>2011-01-19 14:17:18Z</time>
      </trkpt>
      <trkpt lat="43.45984" lon="6.77429">
        <ele>40.267738</ele>
        <time>2011-01-19 14:17:22Z</time>
      </trkpt>
      <trkpt lat="43.45982" lon="6.77429">
        <ele>40.267738</ele>
        <time>2011-01-19 14:17:26Z</time>
      </trkpt>
      <trkpt lat="43.45975" lon="6.77425">
        <ele>40.267715</ele>
        <time>2011-01-19 14:17:30Z</time>
      </trkpt>
      <trkpt lat="43.45972" lon="6.77423">
        <ele>39.267708</ele>
        <time>2011-01-19 14:17:34Z</time>
      </trkpt>
      <trkpt lat="43.45966" lon="6.7742">
        <ele>38.267685</ele>
        <time>2011-01-19 14:17:38Z</time>
      </trkpt>
      <trkpt lat="43.45966" lon="6.7742">
        <ele>38.267685</ele>
        <time>2011-01-19 14:17:42Z</time>
      </trkpt>
      <trkpt lat="43.45966" lon="6.7742">
        <ele>38.267685</ele>
        <time>2011-01-19 14:17:46Z</time>
      </trkpt>
      <trkpt lat="43.45966" lon="6.7742">
        <ele>38.267685</ele>
        <time>2011-01-19 14:17:50Z</time>
      </trkpt>
      <trkpt lat="43.45966" lon="6.7742">
        <ele>38.267685</ele>
        <time>2011-01-19 14:17:54Z</time>
      </trkpt>
      <trkpt lat="43.45951" lon="6.77404">
        <ele>33.267628</ele>
        <time>2011-01-19 14:17:58Z</time>
      </trkpt>
      <trkpt lat="43.4595" lon="6.77404">
        <ele>33.267628</ele>
        <time>2011-01-19 14:18:02Z</time>
      </trkpt>
      <trkpt lat="43.4595" lon="6.77404">
        <ele>33.267628</ele>
        <time>2011-01-19 14:18:06Z</time>
      </trkpt>
      <trkpt lat="43.45944" lon="6.77404">
        <ele>32.267616</ele>
        <time>2011-01-19 14:18:10Z</time>
      </trkpt>
      <trkpt lat="43.45944" lon="6.77404">
        <ele>32.267616</ele>
        <time>2011-01-19 14:18:14Z</time>
      </trkpt>
      <trkpt lat="43.45944" lon="6.77404">
        <ele>32.267616</ele>
        <time>2011-01-19 14:18:18Z</time>
      </trkpt>
      <trkpt lat="43.45936" lon="6.77403">
        <ele>33.267601</ele>
        <time>2011-01-19 14:18:22Z</time>
      </trkpt>
      <trkpt lat="43.45936" lon="6.77403">
        <ele>33.267601</ele>
        <time>2011-01-19 14:18:26Z</time>
      </trkpt>
      <trkpt lat="43.45936" lon="6.77403">
        <ele>33.267601</ele>
        <time>2011-01-19 14:18:30Z</time>
      </trkpt>
      <trkpt lat="43.45936" lon="6.77403">
        <ele>33.267601</ele>
        <time>2011-01-19 14:18:34Z</time>
      </trkpt>
      <trkpt lat="43.45936" lon="6.77403">
        <ele>33.267601</ele>
        <time>2011-01-19 14:18:38Z</time>
      </trkpt>
      <trkpt lat="43.45914" lon="6.77399">
        <ele>32.267555</ele>
        <time>2011-01-19 14:18:42Z</time>
      </trkpt>
      <trkpt lat="43.45912" lon="6.77398">
        <ele>32.267555</ele>
        <time>2011-01-19 14:18:46Z</time>
      </trkpt>
      <trkpt lat="43.45912" lon="6.77398">
        <ele>32.267555</ele>
        <time>2011-01-19 14:18:50Z</time>
      </trkpt>
      <trkpt lat="43.45903" lon="6.77396">
        <ele>32.267532</ele>
        <time>2011-01-19 14:18:54Z</time>
      </trkpt>
      <trkpt lat="43.45903" lon="6.77396">
        <ele>32.267532</ele>
        <time>2011-01-19 14:18:58Z</time>
      </trkpt>
      <trkpt lat="43.45903" lon="6.77396">
        <ele>32.267532</ele>
        <time>2011-01-19 14:19:02Z</time>
      </trkpt>
      <trkpt lat="43.45891" lon="6.77394">
        <ele>26.267509</ele>
        <time>2011-01-19 14:19:06Z</time>
      </trkpt>
      <trkpt lat="43.45891" lon="6.77394">
        <ele>26.267509</ele>
        <time>2011-01-19 14:19:10Z</time>
      </trkpt>
      <trkpt lat="43.45883" lon="6.77392">
        <ele>27.267494</ele>
        <time>2011-01-19 14:19:14Z</time>
      </trkpt>
      <trkpt lat="43.4588" lon="6.77392">
        <ele>27.267487</ele>
        <time>2011-01-19 14:19:18Z</time>
      </trkpt>
      <trkpt lat="43.4588" lon="6.77392">
        <ele>27.267487</ele>
        <time>2011-01-19 14:19:22Z</time>
      </trkpt>
      <trkpt lat="43.45872" lon="6.77387">
        <ele>28.267464</ele>
        <time>2011-01-19 14:19:26Z</time>
      </trkpt>
      <trkpt lat="43.45868" lon="6.77385">
        <ele>29.267452</ele>
        <time>2011-01-19 14:19:30Z</time>
      </trkpt>
      <trkpt lat="43.45868" lon="6.77385">
        <ele>29.267452</ele>
        <time>2011-01-19 14:19:34Z</time>
      </trkpt>
      <trkpt lat="43.45868" lon="6.77385">
        <ele>29.267452</ele>
        <time>2011-01-19 14:19:38Z</time>
      </trkpt>
      <trkpt lat="43.45859" lon="6.77381">
        <ele>32.267426</ele>
        <time>2011-01-19 14:19:42Z</time>
      </trkpt>
      <trkpt lat="43.45856" lon="6.77381">
        <ele>32.267426</ele>
        <time>2011-01-19 14:19:46Z</time>
      </trkpt>
      <trkpt lat="43.45856" lon="6.77382">
        <ele>32.267426</ele>
        <time>2011-01-19 14:19:50Z</time>
      </trkpt>
      <trkpt lat="43.45856" lon="6.77382">
        <ele>32.267426</ele>
        <time>2011-01-19 14:19:54Z</time>
      </trkpt>
      <trkpt lat="43.45856" lon="6.77382">
        <ele>32.267426</ele>
        <time>2011-01-19 14:19:58Z</time>
      </trkpt>
      <trkpt lat="43.45857" lon="6.77392">
        <ele>28.267448</ele>
        <time>2011-01-19 14:20:02Z</time>
      </trkpt>
      <trkpt lat="43.45857" lon="6.77393">
        <ele>28.267448</ele>
        <time>2011-01-19 14:20:06Z</time>
      </trkpt>
      <trkpt lat="43.45857" lon="6.77393">
        <ele>28.267448</ele>
        <time>2011-01-19 14:20:10Z</time>
      </trkpt>
      <trkpt lat="43.45858" lon="6.77405">
        <ele>26.267479</ele>
        <time>2011-01-19 14:20:14Z</time>
      </trkpt>
      <trkpt lat="43.4586" lon="6.77412">
        <ele>25.267498</ele>
        <time>2011-01-19 14:20:18Z</time>
      </trkpt>
      <trkpt lat="43.4586" lon="6.77412">
        <ele>25.267498</ele>
        <time>2011-01-19 14:20:22Z</time>
      </trkpt>
      <trkpt lat="43.45862" lon="6.77421">
        <ele>24.267525</ele>
        <time>2011-01-19 14:20:26Z</time>
      </trkpt>
      <trkpt lat="43.45865" lon="6.77427">
        <ele>23.26754</ele>
        <time>2011-01-19 14:20:30Z</time>
      </trkpt>
      <trkpt lat="43.45867" lon="6.77432">
        <ele>23.267555</ele>
        <time>2011-01-19 14:20:34Z</time>
      </trkpt>
      <trkpt lat="43.45869" lon="6.77436">
        <ele>23.267567</ele>
        <time>2011-01-19 14:20:38Z</time>
      </trkpt>
      <trkpt lat="43.45869" lon="6.77436">
        <ele>23.267567</ele>
        <time>2011-01-19 14:20:42Z</time>
      </trkpt>
      <trkpt lat="43.45873" lon="6.77444">
        <ele>22.267593</ele>
        <time>2011-01-19 14:20:46Z</time>
      </trkpt>
      <trkpt lat="43.45873" lon="6.77444">
        <ele>22.267593</ele>
        <time>2011-01-19 14:20:50Z</time>
      </trkpt>
      <trkpt lat="43.45874" lon="6.77452">
        <ele>23.267612</ele>
        <time>2011-01-19 14:20:54Z</time>
      </trkpt>
      <trkpt lat="43.45874" lon="6.77458">
        <ele>23.267624</ele>
        <time>2011-01-19 14:20:58Z</time>
      </trkpt>
      <trkpt lat="43.45874" lon="6.77463">
        <ele>24.267639</ele>
        <time>2011-01-19 14:21:02Z</time>
      </trkpt>
      <trkpt lat="43.45875" lon="6.77465">
        <ele>24.267647</ele>
        <time>2011-01-19 14:21:06Z</time>
      </trkpt>
      <trkpt lat="43.45875" lon="6.77465">
        <ele>24.267647</ele>
        <time>2011-01-19 14:21:10Z</time>
      </trkpt>
      <trkpt lat="43.45875" lon="6.77465">
        <ele>24.267647</ele>
        <time>2011-01-19 14:21:14Z</time>
      </trkpt>
      <trkpt lat="43.45874" lon="6.77471">
        <ele>26.267654</ele>
        <time>2011-01-19 14:21:18Z</time>
      </trkpt>
      <trkpt lat="43.45872" lon="6.77475">
        <ele>26.267662</ele>
        <time>2011-01-19 14:21:22Z</time>
      </trkpt>
      <trkpt lat="43.45871" lon="6.77478">
        <ele>25.26767</ele>
        <time>2011-01-19 14:21:26Z</time>
      </trkpt>
      <trkpt lat="43.45871" lon="6.77479">
        <ele>25.267666</ele>
        <time>2011-01-19 14:21:30Z</time>
      </trkpt>
      <trkpt lat="43.4587" lon="6.77487">
        <ele>26.267685</ele>
        <time>2011-01-19 14:21:34Z</time>
      </trkpt>
      <trkpt lat="43.45869" lon="6.77492">
        <ele>26.267696</ele>
        <time>2011-01-19 14:21:38Z</time>
      </trkpt>
      <trkpt lat="43.45869" lon="6.77497">
        <ele>26.267704</ele>
        <time>2011-01-19 14:21:42Z</time>
      </trkpt>
      <trkpt lat="43.45868" lon="6.77501">
        <ele>26.267715</ele>
        <time>2011-01-19 14:21:46Z</time>
      </trkpt>
      <trkpt lat="43.45868" lon="6.77505">
        <ele>24.267723</ele>
        <time>2011-01-19 14:21:50Z</time>
      </trkpt>
      <trkpt lat="43.45867" lon="6.77507">
        <ele>24.267727</ele>
        <time>2011-01-19 14:21:54Z</time>
      </trkpt>
      <trkpt lat="43.45867" lon="6.77507">
        <ele>24.267727</ele>
        <time>2011-01-19 14:21:58Z</time>
      </trkpt>
      <trkpt lat="43.45867" lon="6.77507">
        <ele>24.267727</ele>
        <time>2011-01-19 14:22:02Z</time>
      </trkpt>
      <trkpt lat="43.45867" lon="6.77507">
        <ele>24.267727</ele>
        <time>2011-01-19 14:22:06Z</time>
      </trkpt>
      <trkpt lat="43.45863" lon="6.77515">
        <ele>23.267738</ele>
        <time>2011-01-19 14:22:10Z</time>
      </trkpt>
      <trkpt lat="43.45862" lon="6.77515">
        <ele>23.267738</ele>
        <time>2011-01-19 14:22:14Z</time>
      </trkpt>
      <trkpt lat="43.45859" lon="6.77517">
        <ele>23.267738</ele>
        <time>2011-01-19 14:22:18Z</time>
      </trkpt>
      <trkpt lat="43.45858" lon="6.77521">
        <ele>23.267742</ele>
        <time>2011-01-19 14:22:22Z</time>
      </trkpt>
      <trkpt lat="43.45856" lon="6.77525">
        <ele>24.26775</ele>
        <time>2011-01-19 14:22:26Z</time>
      </trkpt>
      <trkpt lat="43.45856" lon="6.77526">
        <ele>24.267754</ele>
        <time>2011-01-19 14:22:30Z</time>
      </trkpt>
      <trkpt lat="43.45854" lon="6.77531">
        <ele>24.267761</ele>
        <time>2011-01-19 14:22:34Z</time>
      </trkpt>
      <trkpt lat="43.45854" lon="6.77532">
        <ele>23.267761</ele>
        <time>2011-01-19 14:22:38Z</time>
      </trkpt>
      <trkpt lat="43.45854" lon="6.77532">
        <ele>23.267761</ele>
        <time>2011-01-19 14:22:42Z</time>
      </trkpt>
      <trkpt lat="43.45854" lon="6.77532">
        <ele>23.267761</ele>
        <time>2011-01-19 14:22:46Z</time>
      </trkpt>
      <trkpt lat="43.45854" lon="6.77532">
        <ele>23.267761</ele>
        <time>2011-01-19 14:22:50Z</time>
      </trkpt>
      <trkpt lat="43.45857" lon="6.77543">
        <ele>21.267792</ele>
        <time>2011-01-19 14:22:54Z</time>
      </trkpt>
      <trkpt lat="43.45857" lon="6.77545">
        <ele>22.267799</ele>
        <time>2011-01-19 14:22:58Z</time>
      </trkpt>
      <trkpt lat="43.45856" lon="6.77548">
        <ele>22.267803</ele>
        <time>2011-01-19 14:23:02Z</time>
      </trkpt>
      <trkpt lat="43.45856" lon="6.77549">
        <ele>23.267803</ele>
        <time>2011-01-19 14:23:06Z</time>
      </trkpt>
      <trkpt lat="43.45856" lon="6.77549">
        <ele>23.267803</ele>
        <time>2011-01-19 14:23:10Z</time>
      </trkpt>
      <trkpt lat="43.45852" lon="6.77564">
        <ele>24.267834</ele>
        <time>2011-01-19 14:23:14Z</time>
      </trkpt>
      <trkpt lat="43.45852" lon="6.77567">
        <ele>24.267838</ele>
        <time>2011-01-19 14:23:18Z</time>
      </trkpt>
      <trkpt lat="43.45848" lon="6.77579">
        <ele>25.267857</ele>
        <time>2011-01-19 14:23:22Z</time>
      </trkpt>
      <trkpt lat="43.45848" lon="6.77579">
        <ele>25.267857</ele>
        <time>2011-01-19 14:23:26Z</time>
      </trkpt>
      <trkpt lat="43.45845" lon="6.77586">
        <ele>27.267868</ele>
        <time>2011-01-19 14:23:30Z</time>
      </trkpt>
      <trkpt lat="43.45845" lon="6.77587">
        <ele>27.267872</ele>
        <time>2011-01-19 14:23:34Z</time>
      </trkpt>
      <trkpt lat="43.45845" lon="6.77587">
        <ele>27.267872</ele>
        <time>2011-01-19 14:23:38Z</time>
      </trkpt>
      <trkpt lat="43.45845" lon="6.77597">
        <ele>27.267895</ele>
        <time>2011-01-19 14:23:42Z</time>
      </trkpt>
      <trkpt lat="43.45844" lon="6.77602">
        <ele>26.267906</ele>
        <time>2011-01-19 14:23:46Z</time>
      </trkpt>
      <trkpt lat="43.45844" lon="6.77605">
        <ele>25.26791</ele>
        <time>2011-01-19 14:23:50Z</time>
      </trkpt>
      <trkpt lat="43.45844" lon="6.77606">
        <ele>25.267914</ele>
        <time>2011-01-19 14:23:54Z</time>
      </trkpt>
      <trkpt lat="43.45844" lon="6.77606">
        <ele>25.267914</ele>
        <time>2011-01-19 14:23:58Z</time>
      </trkpt>
      <trkpt lat="43.45844" lon="6.77606">
        <ele>25.267914</ele>
        <time>2011-01-19 14:24:02Z</time>
      </trkpt>
      <trkpt lat="43.45844" lon="6.77606">
        <ele>25.267914</ele>
        <time>2011-01-19 14:24:06Z</time>
      </trkpt>
      <trkpt lat="43.45844" lon="6.77606">
        <ele>25.267914</ele>
        <time>2011-01-19 14:24:10Z</time>
      </trkpt>
      <trkpt lat="43.45844" lon="6.77606">
        <ele>25.267914</ele>
        <time>2011-01-19 14:24:14Z</time>
      </trkpt>
      <trkpt lat="43.45844" lon="6.77606">
        <ele>25.267914</ele>
        <time>2011-01-19 14:24:18Z</time>
      </trkpt>
      <trkpt lat="43.45844" lon="6.77606">
        <ele>25.267914</ele>
        <time>2011-01-19 14:24:22Z</time>
      </trkpt>
      <trkpt lat="43.45856" lon="6.7762">
        <ele>19.267967</ele>
        <time>2011-01-19 14:24:26Z</time>
      </trkpt>
      <trkpt lat="43.45856" lon="6.7762">
        <ele>19.267967</ele>
        <time>2011-01-19 14:24:30Z</time>
      </trkpt>
      <trkpt lat="43.45847" lon="6.7762">
        <ele>21.267952</ele>
        <time>2011-01-19 14:24:34Z</time>
      </trkpt>
      <trkpt lat="43.45843" lon="6.77621">
        <ele>22.267944</ele>
        <time>2011-01-19 14:24:38Z</time>
      </trkpt>
      <trkpt lat="43.45841" lon="6.77621">
        <ele>23.267944</ele>
        <time>2011-01-19 14:24:42Z</time>
      </trkpt>
      <trkpt lat="43.45835" lon="6.77623">
        <ele>22.267937</ele>
        <time>2011-01-19 14:24:46Z</time>
      </trkpt>
      <trkpt lat="43.45834" lon="6.77623">
        <ele>21.267937</ele>
        <time>2011-01-19 14:24:50Z</time>
      </trkpt>
      <trkpt lat="43.45834" lon="6.77623">
        <ele>21.267937</ele>
        <time>2011-01-19 14:24:54Z</time>
      </trkpt>
      <trkpt lat="43.45828" lon="6.77625">
        <ele>14.267937</ele>
        <time>2011-01-19 14:24:58Z</time>
      </trkpt>
      <trkpt lat="43.45828" lon="6.77626">
        <ele>14.267933</ele>
        <time>2011-01-19 14:25:02Z</time>
      </trkpt>
      <trkpt lat="43.45828" lon="6.77626">
        <ele>14.267933</ele>
        <time>2011-01-19 14:25:06Z</time>
      </trkpt>
      <trkpt lat="43.45823" lon="6.77632">
        <ele>15.267937</ele>
        <time>2011-01-19 14:25:10Z</time>
      </trkpt>
      <trkpt lat="43.45821" lon="6.77635">
        <ele>15.267944</ele>
        <time>2011-01-19 14:25:14Z</time>
      </trkpt>
      <trkpt lat="43.45821" lon="6.77635">
        <ele>15.267944</ele>
        <time>2011-01-19 14:25:18Z</time>
      </trkpt>
      <trkpt lat="43.45821" lon="6.77635">
        <ele>15.267944</ele>
        <time>2011-01-19 14:25:22Z</time>
      </trkpt>
      <trkpt lat="43.45815" lon="6.77646">
        <ele>13.26796</ele>
        <time>2011-01-19 14:25:26Z</time>
      </trkpt>
      <trkpt lat="43.45815" lon="6.77646">
        <ele>13.26796</ele>
        <time>2011-01-19 14:25:30Z</time>
      </trkpt>
      <trkpt lat="43.45812" lon="6.7765">
        <ele>12.267963</ele>
        <time>2011-01-19 14:25:34Z</time>
      </trkpt>
      <trkpt lat="43.45811" lon="6.77652">
        <ele>11.267967</ele>
        <time>2011-01-19 14:25:38Z</time>
      </trkpt>
      <trkpt lat="43.4581" lon="6.77654">
        <ele>11.267967</ele>
        <time>2011-01-19 14:25:42Z</time>
      </trkpt>
      <trkpt lat="43.4581" lon="6.77654">
        <ele>11.267967</ele>
        <time>2011-01-19 14:25:46Z</time>
      </trkpt>
      <trkpt lat="43.4581" lon="6.77654">
        <ele>11.267967</ele>
        <time>2011-01-19 14:25:50Z</time>
      </trkpt>
      <trkpt lat="43.4581" lon="6.77654">
        <ele>11.267967</ele>
        <time>2011-01-19 14:25:54Z</time>
      </trkpt>
      <trkpt lat="43.4581" lon="6.77654">
        <ele>11.267967</ele>
        <time>2011-01-19 14:25:58Z</time>
      </trkpt>
      <trkpt lat="43.4581" lon="6.77654">
        <ele>11.267967</ele>
        <time>2011-01-19 14:26:02Z</time>
      </trkpt>
      <trkpt lat="43.4581" lon="6.77654">
        <ele>11.267967</ele>
        <time>2011-01-19 14:26:06Z</time>
      </trkpt>
      <trkpt lat="43.45801" lon="6.77676">
        <ele>13.268005</ele>
        <time>2011-01-19 14:26:10Z</time>
      </trkpt>
      <trkpt lat="43.458" lon="6.7768">
        <ele>13.268013</ele>
        <time>2011-01-19 14:26:14Z</time>
      </trkpt>
      <trkpt lat="43.45799" lon="6.77684">
        <ele>13.268021</ele>
        <time>2011-01-19 14:26:18Z</time>
      </trkpt>
      <trkpt lat="43.45798" lon="6.77687">
        <ele>13.268021</ele>
        <time>2011-01-19 14:26:22Z</time>
      </trkpt>
      <trkpt lat="43.45794" lon="6.77697">
        <ele>13.268036</ele>
        <time>2011-01-19 14:26:26Z</time>
      </trkpt>
      <trkpt lat="43.45792" lon="6.777">
        <ele>13.268044</ele>
        <time>2011-01-19 14:26:30Z</time>
      </trkpt>
      <trkpt lat="43.45792" lon="6.77701">
        <ele>13.268044</ele>
        <time>2011-01-19 14:26:34Z</time>
      </trkpt>
      <trkpt lat="43.45787" lon="6.77707">
        <ele>14.268051</ele>
        <time>2011-01-19 14:26:38Z</time>
      </trkpt>
      <trkpt lat="43.45786" lon="6.77709">
        <ele>14.268059</ele>
        <time>2011-01-19 14:26:42Z</time>
      </trkpt>
      <trkpt lat="43.45785" lon="6.7771">
        <ele>14.268051</ele>
        <time>2011-01-19 14:26:46Z</time>
      </trkpt>
      <trkpt lat="43.45781" lon="6.77716">
        <ele>15.268059</ele>
        <time>2011-01-19 14:26:50Z</time>
      </trkpt>
      <trkpt lat="43.45781" lon="6.77716">
        <ele>15.268059</ele>
        <time>2011-01-19 14:26:54Z</time>
      </trkpt>
      <trkpt lat="43.45781" lon="6.77716">
        <ele>15.268059</ele>
        <time>2011-01-19 14:26:58Z</time>
      </trkpt>
      <trkpt lat="43.45773" lon="6.77725">
        <ele>13.26807</ele>
        <time>2011-01-19 14:27:02Z</time>
      </trkpt>
      <trkpt lat="43.45771" lon="6.77727">
        <ele>13.26807</ele>
        <time>2011-01-19 14:27:06Z</time>
      </trkpt>
      <trkpt lat="43.4577" lon="6.77729">
        <ele>13.268074</ele>
        <time>2011-01-19 14:27:10Z</time>
      </trkpt>
      <trkpt lat="43.45769" lon="6.77731">
        <ele>13.268074</ele>
        <time>2011-01-19 14:27:14Z</time>
      </trkpt>
      <trkpt lat="43.45769" lon="6.77731">
        <ele>13.268074</ele>
        <time>2011-01-19 14:27:18Z</time>
      </trkpt>
      <trkpt lat="43.45768" lon="6.77736">
        <ele>13.268089</ele>
        <time>2011-01-19 14:27:22Z</time>
      </trkpt>
      <trkpt lat="43.45768" lon="6.77736">
        <ele>13.268089</ele>
        <time>2011-01-19 14:27:26Z</time>
      </trkpt>
      <trkpt lat="43.45768" lon="6.77736">
        <ele>13.268089</ele>
        <time>2011-01-19 14:27:30Z</time>
      </trkpt>
      <trkpt lat="43.45768" lon="6.7774">
        <ele>15.268097</ele>
        <time>2011-01-19 14:27:34Z</time>
      </trkpt>
      <trkpt lat="43.45768" lon="6.7774">
        <ele>15.268097</ele>
        <time>2011-01-19 14:27:38Z</time>
      </trkpt>
      <trkpt lat="43.45768" lon="6.7774">
        <ele>15.268097</ele>
        <time>2011-01-19 14:27:42Z</time>
      </trkpt>
      <trkpt lat="43.45768" lon="6.7774">
        <ele>15.268097</ele>
        <time>2011-01-19 14:27:46Z</time>
      </trkpt>
      <trkpt lat="43.45769" lon="6.77742">
        <ele>15.268105</ele>
        <time>2011-01-19 14:27:50Z</time>
      </trkpt>
      <trkpt lat="43.45771" lon="6.77743">
        <ele>11.268105</ele>
        <time>2011-01-19 14:27:54Z</time>
      </trkpt>
      <trkpt lat="43.45771" lon="6.77743">
        <ele>11.268105</ele>
        <time>2011-01-19 14:27:58Z</time>
      </trkpt>
      <trkpt lat="43.45776" lon="6.77741">
        <ele>9.268112</ele>
        <time>2011-01-19 14:28:02Z</time>
      </trkpt>
      <trkpt lat="43.45776" lon="6.77741">
        <ele>9.268112</ele>
        <time>2011-01-19 14:28:06Z</time>
      </trkpt>
      <trkpt lat="43.45779" lon="6.77739">
        <ele>8.268108</ele>
        <time>2011-01-19 14:28:10Z</time>
      </trkpt>
      <trkpt lat="43.4578" lon="6.77737">
        <ele>8.268108</ele>
        <time>2011-01-19 14:28:14Z</time>
      </trkpt>
      <trkpt lat="43.4578" lon="6.77737">
        <ele>8.268108</ele>
        <time>2011-01-19 14:28:18Z</time>
      </trkpt>
      <trkpt lat="43.4578" lon="6.77737">
        <ele>8.268108</ele>
        <time>2011-01-19 14:28:22Z</time>
      </trkpt>
      <trkpt lat="43.45785" lon="6.77725">
        <ele>7.268089</ele>
        <time>2011-01-19 14:28:26Z</time>
      </trkpt>
      <trkpt lat="43.45785" lon="6.77725">
        <ele>7.268089</ele>
        <time>2011-01-19 14:28:30Z</time>
      </trkpt>
      <trkpt lat="43.45788" lon="6.77717">
        <ele>7.268078</ele>
        <time>2011-01-19 14:28:34Z</time>
      </trkpt>
      <trkpt lat="43.4579" lon="6.77714">
        <ele>7.268066</ele>
        <time>2011-01-19 14:28:38Z</time>
      </trkpt>
      <trkpt lat="43.45792" lon="6.77708">
        <ele>7.268059</ele>
        <time>2011-01-19 14:28:42Z</time>
      </trkpt>
      <trkpt lat="43.45793" lon="6.77706">
        <ele>7.268059</ele>
        <time>2011-01-19 14:28:46Z</time>
      </trkpt>
      <trkpt lat="43.45793" lon="6.77706">
        <ele>7.268059</ele>
        <time>2011-01-19 14:28:50Z</time>
      </trkpt>
      <trkpt lat="43.45793" lon="6.77706">
        <ele>7.268059</ele>
        <time>2011-01-19 14:28:54Z</time>
      </trkpt>
      <trkpt lat="43.45793" lon="6.77706">
        <ele>7.268059</ele>
        <time>2011-01-19 14:28:58Z</time>
      </trkpt>
      <trkpt lat="43.45793" lon="6.77706">
        <ele>7.268059</ele>
        <time>2011-01-19 14:29:02Z</time>
      </trkpt>
      <trkpt lat="43.45793" lon="6.77706">
        <ele>7.268059</ele>
        <time>2011-01-19 14:29:06Z</time>
      </trkpt>
      <trkpt lat="43.45793" lon="6.77706">
        <ele>7.268059</ele>
        <time>2011-01-19 14:29:10Z</time>
      </trkpt>
      <trkpt lat="43.45793" lon="6.77706">
        <ele>7.268059</ele>
        <time>2011-01-19 14:29:14Z</time>
      </trkpt>
      <trkpt lat="43.4581" lon="6.77676">
        <ele>7.268013</ele>
        <time>2011-01-19 14:29:18Z</time>
      </trkpt>
      <trkpt lat="43.4581" lon="6.77676">
        <ele>7.268013</ele>
        <time>2011-01-19 14:29:22Z</time>
      </trkpt>
      <trkpt lat="43.4581" lon="6.77676">
        <ele>7.268013</ele>
        <time>2011-01-19 14:29:26Z</time>
      </trkpt>
      <trkpt lat="43.4581" lon="6.77676">
        <ele>7.268013</ele>
        <time>2011-01-19 14:29:30Z</time>
      </trkpt>
      <trkpt lat="43.4581" lon="6.77676">
        <ele>7.268013</ele>
        <time>2011-01-19 14:29:34Z</time>
      </trkpt>
      <trkpt lat="43.4581" lon="6.77676">
        <ele>7.268013</ele>
        <time>2011-01-19 14:29:38Z</time>
      </trkpt>
      <trkpt lat="43.4581" lon="6.77676">
        <ele>7.268013</ele>
        <time>2011-01-19 14:29:42Z</time>
      </trkpt>
      <trkpt lat="43.45829" lon="6.7765">
        <ele>7.26799</ele>
        <time>2011-01-19 14:29:46Z</time>
      </trkpt>
      <trkpt lat="43.45829" lon="6.7765">
        <ele>7.26799</ele>
        <time>2011-01-19 14:29:50Z</time>
      </trkpt>
      <trkpt lat="43.45829" lon="6.7765">
        <ele>7.26799</ele>
        <time>2011-01-19 14:29:54Z</time>
      </trkpt>
      <trkpt lat="43.45829" lon="6.7765">
        <ele>7.26799</ele>
        <time>2011-01-19 14:29:58Z</time>
      </trkpt>
      <trkpt lat="43.45829" lon="6.7765">
        <ele>7.26799</ele>
        <time>2011-01-19 14:30:02Z</time>
      </trkpt>
      <trkpt lat="43.45837" lon="6.77632">
        <ele>7.26796</ele>
        <time>2011-01-19 14:30:06Z</time>
      </trkpt>
      <trkpt lat="43.45837" lon="6.77632">
        <ele>7.26796</ele>
        <time>2011-01-19 14:30:10Z</time>
      </trkpt>
      <trkpt lat="43.45843" lon="6.77633">
        <ele>7.267975</ele>
        <time>2011-01-19 14:30:14Z</time>
      </trkpt>
      <trkpt lat="43.45844" lon="6.77634">
        <ele>7.267982</ele>
        <time>2011-01-19 14:30:18Z</time>
      </trkpt>
      <trkpt lat="43.45844" lon="6.77634">
        <ele>7.267982</ele>
        <time>2011-01-19 14:30:22Z</time>
      </trkpt>
      <trkpt lat="43.45847" lon="6.7764">
        <ele>6.267994</ele>
        <time>2011-01-19 14:30:26Z</time>
      </trkpt>
      <trkpt lat="43.45849" lon="6.77646">
        <ele>6.268013</ele>
        <time>2011-01-19 14:30:30Z</time>
      </trkpt>
      <trkpt lat="43.45849" lon="6.7765">
        <ele>7.268024</ele>
        <time>2011-01-19 14:30:34Z</time>
      </trkpt>
      <trkpt lat="43.4585" lon="6.77658">
        <ele>7.268044</ele>
        <time>2011-01-19 14:30:38Z</time>
      </trkpt>
      <trkpt lat="43.4585" lon="6.77658">
        <ele>7.268044</ele>
        <time>2011-01-19 14:30:42Z</time>
      </trkpt>
      <trkpt lat="43.45852" lon="6.77663">
        <ele>9.268059</ele>
        <time>2011-01-19 14:30:46Z</time>
      </trkpt>
      <trkpt lat="43.45852" lon="6.77668">
        <ele>9.268066</ele>
        <time>2011-01-19 14:30:50Z</time>
      </trkpt>
      <trkpt lat="43.45852" lon="6.77674">
        <ele>10.268082</ele>
        <time>2011-01-19 14:30:54Z</time>
      </trkpt>
      <trkpt lat="43.45853" lon="6.7768">
        <ele>11.268097</ele>
        <time>2011-01-19 14:30:58Z</time>
      </trkpt>
      <trkpt lat="43.45852" lon="6.77684">
        <ele>11.268105</ele>
        <time>2011-01-19 14:31:02Z</time>
      </trkpt>
      <trkpt lat="43.45852" lon="6.77687">
        <ele>11.268112</ele>
        <time>2011-01-19 14:31:06Z</time>
      </trkpt>
      <trkpt lat="43.45852" lon="6.77688">
        <ele>12.268112</ele>
        <time>2011-01-19 14:31:10Z</time>
      </trkpt>
      <trkpt lat="43.45852" lon="6.77688">
        <ele>12.268112</ele>
        <time>2011-01-19 14:31:14Z</time>
      </trkpt>
      <trkpt lat="43.45852" lon="6.77688">
        <ele>12.268116</ele>
        <time>2011-01-19 14:31:18Z</time>
      </trkpt>
      <trkpt lat="43.45852" lon="6.7769">
        <ele>12.268112</ele>
        <time>2011-01-19 14:31:22Z</time>
      </trkpt>
      <trkpt lat="43.45852" lon="6.7769">
        <ele>11.26812</ele>
        <time>2011-01-19 14:31:26Z</time>
      </trkpt>
      <trkpt lat="43.45853" lon="6.77694">
        <ele>9.268127</ele>
        <time>2011-01-19 14:31:30Z</time>
      </trkpt>
      <trkpt lat="43.45853" lon="6.77695">
        <ele>8.268127</ele>
        <time>2011-01-19 14:31:34Z</time>
      </trkpt>
      <trkpt lat="43.45855" lon="6.77698">
        <ele>10.268143</ele>
        <time>2011-01-19 14:31:38Z</time>
      </trkpt>
      <trkpt lat="43.45857" lon="6.77703">
        <ele>11.268158</ele>
        <time>2011-01-19 14:31:42Z</time>
      </trkpt>
      <trkpt lat="43.45858" lon="6.77706">
        <ele>11.268162</ele>
        <time>2011-01-19 14:31:46Z</time>
      </trkpt>
      <trkpt lat="43.4586" lon="6.7771">
        <ele>11.268173</ele>
        <time>2011-01-19 14:31:50Z</time>
      </trkpt>
      <trkpt lat="43.4586" lon="6.7771">
        <ele>11.268173</ele>
        <time>2011-01-19 14:31:54Z</time>
      </trkpt>
      <trkpt lat="43.4586" lon="6.7771">
        <ele>11.268173</ele>
        <time>2011-01-19 14:31:58Z</time>
      </trkpt>
      <trkpt lat="43.4586" lon="6.7771">
        <ele>11.268173</ele>
        <time>2011-01-19 14:32:02Z</time>
      </trkpt>
      <trkpt lat="43.45865" lon="6.77718">
        <ele>13.268204</ele>
        <time>2011-01-19 14:32:06Z</time>
      </trkpt>
      <trkpt lat="43.45867" lon="6.7772">
        <ele>14.268211</ele>
        <time>2011-01-19 14:32:10Z</time>
      </trkpt>
      <trkpt lat="43.4587" lon="6.77725">
        <ele>14.268227</ele>
        <time>2011-01-19 14:32:14Z</time>
      </trkpt>
      <trkpt lat="43.45873" lon="6.77728">
        <ele>15.268238</ele>
        <time>2011-01-19 14:32:18Z</time>
      </trkpt>
      <trkpt lat="43.45874" lon="6.77731">
        <ele>16.268246</ele>
        <time>2011-01-19 14:32:22Z</time>
      </trkpt>
      <trkpt lat="43.45874" lon="6.77731">
        <ele>16.268246</ele>
        <time>2011-01-19 14:32:26Z</time>
      </trkpt>
      <trkpt lat="43.45879" lon="6.77739">
        <ele>19.268276</ele>
        <time>2011-01-19 14:32:30Z</time>
      </trkpt>
      <trkpt lat="43.4588" lon="6.77742">
        <ele>20.26828</ele>
        <time>2011-01-19 14:32:34Z</time>
      </trkpt>
      <trkpt lat="43.4588" lon="6.77745">
        <ele>20.268284</ele>
        <time>2011-01-19 14:32:38Z</time>
      </trkpt>
      <trkpt lat="43.45881" lon="6.77746">
        <ele>20.268288</ele>
        <time>2011-01-19 14:32:42Z</time>
      </trkpt>
      <trkpt lat="43.45881" lon="6.77752">
        <ele>21.268303</ele>
        <time>2011-01-19 14:32:46Z</time>
      </trkpt>
      <trkpt lat="43.4588" lon="6.77754">
        <ele>22.268311</ele>
        <time>2011-01-19 14:32:50Z</time>
      </trkpt>
      <trkpt lat="43.4588" lon="6.77754">
        <ele>22.268311</ele>
        <time>2011-01-19 14:32:54Z</time>
      </trkpt>
      <trkpt lat="43.4588" lon="6.77754">
        <ele>22.268311</ele>
        <time>2011-01-19 14:32:58Z</time>
      </trkpt>
      <trkpt lat="43.45879" lon="6.77762">
        <ele>23.268322</ele>
        <time>2011-01-19 14:33:02Z</time>
      </trkpt>
      <trkpt lat="43.45879" lon="6.77764">
        <ele>23.268333</ele>
        <time>2011-01-19 14:33:06Z</time>
      </trkpt>
      <trkpt lat="43.45879" lon="6.77767">
        <ele>24.268333</ele>
        <time>2011-01-19 14:33:10Z</time>
      </trkpt>
      <trkpt lat="43.45879" lon="6.7777">
        <ele>25.268341</ele>
        <time>2011-01-19 14:33:14Z</time>
      </trkpt>
      <trkpt lat="43.45879" lon="6.7777">
        <ele>25.268341</ele>
        <time>2011-01-19 14:33:18Z</time>
      </trkpt>
      <trkpt lat="43.45876" lon="6.77786">
        <ele>28.268372</ele>
        <time>2011-01-19 14:33:22Z</time>
      </trkpt>
      <trkpt lat="43.45875" lon="6.77787">
        <ele>28.268379</ele>
        <time>2011-01-19 14:33:26Z</time>
      </trkpt>
      <trkpt lat="43.45873" lon="6.77795">
        <ele>28.268387</ele>
        <time>2011-01-19 14:33:30Z</time>
      </trkpt>
      <trkpt lat="43.45872" lon="6.77798">
        <ele>28.268394</ele>
        <time>2011-01-19 14:33:34Z</time>
      </trkpt>
      <trkpt lat="43.4587" lon="6.77807">
        <ele>30.26841</ele>
        <time>2011-01-19 14:33:38Z</time>
      </trkpt>
      <trkpt lat="43.45869" lon="6.7781">
        <ele>31.268417</ele>
        <time>2011-01-19 14:33:42Z</time>
      </trkpt>
      <trkpt lat="43.45869" lon="6.77813">
        <ele>31.268425</ele>
        <time>2011-01-19 14:33:46Z</time>
      </trkpt>
      <trkpt lat="43.45869" lon="6.77815">
        <ele>31.268425</ele>
        <time>2011-01-19 14:33:50Z</time>
      </trkpt>
      <trkpt lat="43.45869" lon="6.77815">
        <ele>31.268425</ele>
        <time>2011-01-19 14:33:54Z</time>
      </trkpt>
      <trkpt lat="43.45867" lon="6.7782">
        <ele>25.26844</ele>
        <time>2011-01-19 14:33:58Z</time>
      </trkpt>
      <trkpt lat="43.45867" lon="6.77823">
        <ele>26.268444</ele>
        <time>2011-01-19 14:34:02Z</time>
      </trkpt>
      <trkpt lat="43.45867" lon="6.77826">
        <ele>26.268448</ele>
        <time>2011-01-19 14:34:06Z</time>
      </trkpt>
      <trkpt lat="43.45867" lon="6.77831">
        <ele>26.268459</ele>
        <time>2011-01-19 14:34:10Z</time>
      </trkpt>
      <trkpt lat="43.45867" lon="6.77836">
        <ele>25.268475</ele>
        <time>2011-01-19 14:34:14Z</time>
      </trkpt>
      <trkpt lat="43.45868" lon="6.77837">
        <ele>24.268478</ele>
        <time>2011-01-19 14:34:18Z</time>
      </trkpt>
      <trkpt lat="43.45868" lon="6.77837">
        <ele>24.268478</ele>
        <time>2011-01-19 14:34:22Z</time>
      </trkpt>
      <trkpt lat="43.45868" lon="6.77837">
        <ele>24.268478</ele>
        <time>2011-01-19 14:34:26Z</time>
      </trkpt>
      <trkpt lat="43.45868" lon="6.7784">
        <ele>28.268486</ele>
        <time>2011-01-19 14:34:30Z</time>
      </trkpt>
      <trkpt lat="43.45867" lon="6.77842">
        <ele>30.268486</ele>
        <time>2011-01-19 14:34:34Z</time>
      </trkpt>
      <trkpt lat="43.45867" lon="6.77844">
        <ele>30.268494</ele>
        <time>2011-01-19 14:34:38Z</time>
      </trkpt>
      <trkpt lat="43.45867" lon="6.77846">
        <ele>29.268497</ele>
        <time>2011-01-19 14:34:42Z</time>
      </trkpt>
      <trkpt lat="43.45866" lon="6.7785">
        <ele>30.268505</ele>
        <time>2011-01-19 14:34:46Z</time>
      </trkpt>
      <trkpt lat="43.45865" lon="6.77851">
        <ele>30.268505</ele>
        <time>2011-01-19 14:34:50Z</time>
      </trkpt>
      <trkpt lat="43.45865" lon="6.77851">
        <ele>30.268505</ele>
        <time>2011-01-19 14:34:54Z</time>
      </trkpt>
      <trkpt lat="43.45865" lon="6.77851">
        <ele>30.268505</ele>
        <time>2011-01-19 14:34:58Z</time>
      </trkpt>
      <trkpt lat="43.45865" lon="6.77851">
        <ele>30.268505</ele>
        <time>2011-01-19 14:35:02Z</time>
      </trkpt>
      <trkpt lat="43.45865" lon="6.77864">
        <ele>30.268532</ele>
        <time>2011-01-19 14:35:06Z</time>
      </trkpt>
      <trkpt lat="43.45865" lon="6.77864">
        <ele>30.268532</ele>
        <time>2011-01-19 14:35:10Z</time>
      </trkpt>
      <trkpt lat="43.45865" lon="6.77864">
        <ele>30.268532</ele>
        <time>2011-01-19 14:35:14Z</time>
      </trkpt>
      <trkpt lat="43.45865" lon="6.77864">
        <ele>30.268532</ele>
        <time>2011-01-19 14:35:18Z</time>
      </trkpt>
      <trkpt lat="43.45865" lon="6.77864">
        <ele>30.268532</ele>
        <time>2011-01-19 14:35:22Z</time>
      </trkpt>
      <trkpt lat="43.45865" lon="6.77864">
        <ele>30.268532</ele>
        <time>2011-01-19 14:35:26Z</time>
      </trkpt>
      <trkpt lat="43.45865" lon="6.77864">
        <ele>30.268532</ele>
        <time>2011-01-19 14:35:30Z</time>
      </trkpt>
      <trkpt lat="43.45865" lon="6.77864">
        <ele>30.268532</ele>
        <time>2011-01-19 14:35:34Z</time>
      </trkpt>
      <trkpt lat="43.45881" lon="6.77883">
        <ele>27.2686</ele>
        <time>2011-01-19 14:35:38Z</time>
      </trkpt>
      <trkpt lat="43.45884" lon="6.77884">
        <ele>27.268612</ele>
        <time>2011-01-19 14:35:42Z</time>
      </trkpt>
      <trkpt lat="43.45885" lon="6.77885">
        <ele>28.268616</ele>
        <time>2011-01-19 14:35:46Z</time>
      </trkpt>
      <trkpt lat="43.45889" lon="6.77886">
        <ele>29.268623</ele>
        <time>2011-01-19 14:35:50Z</time>
      </trkpt>
      <trkpt lat="43.45889" lon="6.77886">
        <ele>29.268623</ele>
        <time>2011-01-19 14:35:54Z</time>
      </trkpt>
      <trkpt lat="43.45889" lon="6.77886">
        <ele>29.268623</ele>
        <time>2011-01-19 14:35:58Z</time>
      </trkpt>
      <trkpt lat="43.45901" lon="6.77891">
        <ele>29.268654</ele>
        <time>2011-01-19 14:36:02Z</time>
      </trkpt>
      <trkpt lat="43.45905" lon="6.77892">
        <ele>29.268661</ele>
        <time>2011-01-19 14:36:06Z</time>
      </trkpt>
      <trkpt lat="43.45905" lon="6.77892">
        <ele>29.268661</ele>
        <time>2011-01-19 14:36:10Z</time>
      </trkpt>
      <trkpt lat="43.45914" lon="6.77894">
        <ele>28.268677</ele>
        <time>2011-01-19 14:36:14Z</time>
      </trkpt>
      <trkpt lat="43.45919" lon="6.77895">
        <ele>28.268692</ele>
        <time>2011-01-19 14:36:18Z</time>
      </trkpt>
      <trkpt lat="43.45919" lon="6.77895">
        <ele>28.268692</ele>
        <time>2011-01-19 14:36:22Z</time>
      </trkpt>
      <trkpt lat="43.45919" lon="6.77895">
        <ele>28.268692</ele>
        <time>2011-01-19 14:36:26Z</time>
      </trkpt>
      <trkpt lat="43.45919" lon="6.77895">
        <ele>28.268692</ele>
        <time>2011-01-19 14:36:30Z</time>
      </trkpt>
      <trkpt lat="43.45928" lon="6.77896">
        <ele>28.268707</ele>
        <time>2011-01-19 14:36:34Z</time>
      </trkpt>
      <trkpt lat="43.45931" lon="6.77896">
        <ele>28.268715</ele>
        <time>2011-01-19 14:36:38Z</time>
      </trkpt>
      <trkpt lat="43.45935" lon="6.77895">
        <ele>28.268715</ele>
        <time>2011-01-19 14:36:42Z</time>
      </trkpt>
      <trkpt lat="43.45937" lon="6.77895">
        <ele>28.268719</ele>
        <time>2011-01-19 14:36:46Z</time>
      </trkpt>
      <trkpt lat="43.45937" lon="6.77895">
        <ele>28.268719</ele>
        <time>2011-01-19 14:36:50Z</time>
      </trkpt>
      <trkpt lat="43.45946" lon="6.77894">
        <ele>27.268734</ele>
        <time>2011-01-19 14:36:54Z</time>
      </trkpt>
      <trkpt lat="43.45946" lon="6.77894">
        <ele>27.268734</ele>
        <time>2011-01-19 14:36:58Z</time>
      </trkpt>
      <trkpt lat="43.45946" lon="6.77894">
        <ele>27.268734</ele>
        <time>2011-01-19 14:37:02Z</time>
      </trkpt>
      <trkpt lat="43.45955" lon="6.77891">
        <ele>26.268738</ele>
        <time>2011-01-19 14:37:06Z</time>
      </trkpt>
      <trkpt lat="43.45961" lon="6.77889">
        <ele>27.268745</ele>
        <time>2011-01-19 14:37:10Z</time>
      </trkpt>
      <trkpt lat="43.45962" lon="6.77888">
        <ele>27.268745</ele>
        <time>2011-01-19 14:37:14Z</time>
      </trkpt>
      <trkpt lat="43.45962" lon="6.77888">
        <ele>27.268745</ele>
        <time>2011-01-19 14:37:18Z</time>
      </trkpt>
      <trkpt lat="43.45971" lon="6.77883">
        <ele>27.268745</ele>
        <time>2011-01-19 14:37:22Z</time>
      </trkpt>
      <trkpt lat="43.45971" lon="6.77883">
        <ele>27.268745</ele>
        <time>2011-01-19 14:37:26Z</time>
      </trkpt>
      <trkpt lat="43.45971" lon="6.77883">
        <ele>27.268745</ele>
        <time>2011-01-19 14:37:30Z</time>
      </trkpt>
      <trkpt lat="43.45971" lon="6.77883">
        <ele>27.268745</ele>
        <time>2011-01-19 14:37:34Z</time>
      </trkpt>
      <trkpt lat="43.45978" lon="6.77874">
        <ele>26.268738</ele>
        <time>2011-01-19 14:37:38Z</time>
      </trkpt>
      <trkpt lat="43.45979" lon="6.7787">
        <ele>26.26873</ele>
        <time>2011-01-19 14:37:42Z</time>
      </trkpt>
      <trkpt lat="43.45981" lon="6.77869">
        <ele>26.26873</ele>
        <time>2011-01-19 14:37:46Z</time>
      </trkpt>
      <trkpt lat="43.45981" lon="6.77868">
        <ele>26.26873</ele>
        <time>2011-01-19 14:37:50Z</time>
      </trkpt>
      <trkpt lat="43.45981" lon="6.77868">
        <ele>27.26873</ele>
        <time>2011-01-19 14:37:54Z</time>
      </trkpt>
      <trkpt lat="43.45981" lon="6.77868">
        <ele>28.26873</ele>
        <time>2011-01-19 14:37:58Z</time>
      </trkpt>
      <trkpt lat="43.45981" lon="6.77868">
        <ele>28.26873</ele>
        <time>2011-01-19 14:38:02Z</time>
      </trkpt>
      <trkpt lat="43.45981" lon="6.77867">
        <ele>32.26873</ele>
        <time>2011-01-19 14:38:06Z</time>
      </trkpt>
      <trkpt lat="43.45981" lon="6.77867">
        <ele>32.26873</ele>
        <time>2011-01-19 14:38:10Z</time>
      </trkpt>
      <trkpt lat="43.45981" lon="6.77867">
        <ele>32.268723</ele>
        <time>2011-01-19 14:38:14Z</time>
      </trkpt>
      <trkpt lat="43.45981" lon="6.77867">
        <ele>32.268723</ele>
        <time>2011-01-19 14:38:18Z</time>
      </trkpt>
      <trkpt lat="43.45983" lon="6.77866">
        <ele>32.26873</ele>
        <time>2011-01-19 14:38:22Z</time>
      </trkpt>
      <trkpt lat="43.45983" lon="6.77866">
        <ele>33.26873</ele>
        <time>2011-01-19 14:38:26Z</time>
      </trkpt>
      <trkpt lat="43.45982" lon="6.77867">
        <ele>36.26873</ele>
        <time>2011-01-19 14:38:30Z</time>
      </trkpt>
      <trkpt lat="43.45982" lon="6.77868">
        <ele>37.26873</ele>
        <time>2011-01-19 14:38:34Z</time>
      </trkpt>
      <trkpt lat="43.45982" lon="6.77868">
        <ele>38.26873</ele>
        <time>2011-01-19 14:38:38Z</time>
      </trkpt>
      <trkpt lat="43.45982" lon="6.77866">
        <ele>39.268726</ele>
        <time>2011-01-19 14:38:42Z</time>
      </trkpt>
      <trkpt lat="43.45983" lon="6.77866">
        <ele>38.26873</ele>
        <time>2011-01-19 14:38:46Z</time>
      </trkpt>
      <trkpt lat="43.45983" lon="6.77864">
        <ele>37.268723</ele>
        <time>2011-01-19 14:38:50Z</time>
      </trkpt>
      <trkpt lat="43.45983" lon="6.77863">
        <ele>35.268723</ele>
        <time>2011-01-19 14:38:54Z</time>
      </trkpt>
      <trkpt lat="43.45983" lon="6.77863">
        <ele>35.268723</ele>
        <time>2011-01-19 14:38:58Z</time>
      </trkpt>
      <trkpt lat="43.45983" lon="6.77863">
        <ele>35.268723</ele>
        <time>2011-01-19 14:39:02Z</time>
      </trkpt>
      <trkpt lat="43.45983" lon="6.77863">
        <ele>35.268723</ele>
        <time>2011-01-19 14:39:06Z</time>
      </trkpt>
      <trkpt lat="43.45983" lon="6.77863">
        <ele>35.268723</ele>
        <time>2011-01-19 14:39:10Z</time>
      </trkpt>
      <trkpt lat="43.45983" lon="6.77863">
        <ele>35.268723</ele>
        <time>2011-01-19 14:39:14Z</time>
      </trkpt>
      <trkpt lat="43.45983" lon="6.77863">
        <ele>35.268723</ele>
        <time>2011-01-19 14:39:18Z</time>
      </trkpt>
      <trkpt lat="43.45983" lon="6.77863">
        <ele>35.268723</ele>
        <time>2011-01-19 14:39:22Z</time>
      </trkpt>
      <trkpt lat="43.45983" lon="6.77863">
        <ele>35.268723</ele>
        <time>2011-01-19 14:39:26Z</time>
      </trkpt>
      <trkpt lat="43.45983" lon="6.77863">
        <ele>35.268723</ele>
        <time>2011-01-19 14:39:30Z</time>
      </trkpt>
      <trkpt lat="43.45983" lon="6.77863">
        <ele>35.268723</ele>
        <time>2011-01-19 14:39:34Z</time>
      </trkpt>
      <trkpt lat="43.45983" lon="6.77863">
        <ele>35.268723</ele>
        <time>2011-01-19 14:39:38Z</time>
      </trkpt>
      <trkpt lat="43.45983" lon="6.77863">
        <ele>35.268723</ele>
        <time>2011-01-19 14:39:42Z</time>
      </trkpt>
      <trkpt lat="43.45983" lon="6.77863">
        <ele>35.268723</ele>
        <time>2011-01-19 14:39:46Z</time>
      </trkpt>
      <trkpt lat="43.45983" lon="6.77863">
        <ele>35.268723</ele>
        <time>2011-01-19 14:39:50Z</time>
      </trkpt>
      <trkpt lat="43.45983" lon="6.77863">
        <ele>35.268723</ele>
        <time>2011-01-19 14:39:54Z</time>
      </trkpt>
      <trkpt lat="43.45983" lon="6.77863">
        <ele>35.268723</ele>
        <time>2011-01-19 14:39:58Z</time>
      </trkpt>
      <trkpt lat="43.45983" lon="6.77863">
        <ele>35.268723</ele>
        <time>2011-01-19 14:40:02Z</time>
      </trkpt>
      <trkpt lat="43.45983" lon="6.77863">
        <ele>35.268723</ele>
        <time>2011-01-19 14:40:06Z</time>
      </trkpt>
      <trkpt lat="43.45983" lon="6.77863">
        <ele>35.268723</ele>
        <time>2011-01-19 14:40:10Z</time>
      </trkpt>
      <trkpt lat="43.45983" lon="6.77863">
        <ele>35.268723</ele>
        <time>2011-01-19 14:40:14Z</time>
      </trkpt>
      <trkpt lat="43.45983" lon="6.77863">
        <ele>35.268723</ele>
        <time>2011-01-19 14:40:18Z</time>
      </trkpt>
      <trkpt lat="43.45983" lon="6.77863">
        <ele>35.268723</ele>
        <time>2011-01-19 14:40:22Z</time>
      </trkpt>
      <trkpt lat="43.45983" lon="6.77863">
        <ele>35.268723</ele>
        <time>2011-01-19 14:40:26Z</time>
      </trkpt>
      <trkpt lat="43.45983" lon="6.77863">
        <ele>35.268723</ele>
        <time>2011-01-19 14:40:30Z</time>
      </trkpt>
      <trkpt lat="43.45983" lon="6.77863">
        <ele>35.268723</ele>
        <time>2011-01-19 14:40:34Z</time>
      </trkpt>
      <trkpt lat="43.45983" lon="6.77863">
        <ele>35.268723</ele>
        <time>2011-01-19 14:40:38Z</time>
      </trkpt>
      <trkpt lat="43.45983" lon="6.77863">
        <ele>35.268723</ele>
        <time>2011-01-19 14:40:42Z</time>
      </trkpt>
      <trkpt lat="43.45983" lon="6.77863">
        <ele>35.268723</ele>
        <time>2011-01-19 14:40:46Z</time>
      </trkpt>
      <trkpt lat="43.45983" lon="6.77863">
        <ele>35.268723</ele>
        <time>2011-01-19 14:40:50Z</time>
      </trkpt>
      <trkpt lat="43.45983" lon="6.77863">
        <ele>35.268723</ele>
        <time>2011-01-19 14:40:54Z</time>
      </trkpt>
      <trkpt lat="43.45983" lon="6.77863">
        <ele>35.268723</ele>
        <time>2011-01-19 14:40:58Z</time>
      </trkpt>
      <trkpt lat="43.45983" lon="6.77863">
        <ele>35.268723</ele>
        <time>2011-01-19 14:41:02Z</time>
      </trkpt>
      <trkpt lat="43.45983" lon="6.77863">
        <ele>35.268723</ele>
        <time>2011-01-19 14:41:06Z</time>
      </trkpt>
      <trkpt lat="43.45983" lon="6.77863">
        <ele>35.268723</ele>
        <time>2011-01-19 14:41:10Z</time>
      </trkpt>
      <trkpt lat="43.45983" lon="6.77863">
        <ele>35.268723</ele>
        <time>2011-01-19 14:41:14Z</time>
      </trkpt>
      <trkpt lat="43.45983" lon="6.77863">
        <ele>35.268723</ele>
        <time>2011-01-19 14:41:18Z</time>
      </trkpt>
      <trkpt lat="43.45983" lon="6.77863">
        <ele>35.268723</ele>
        <time>2011-01-19 14:41:22Z</time>
      </trkpt>
      <trkpt lat="43.45983" lon="6.77863">
        <ele>35.268723</ele>
        <time>2011-01-19 14:41:26Z</time>
      </trkpt>
      <trkpt lat="43.45983" lon="6.77863">
        <ele>35.268723</ele>
        <time>2011-01-19 14:41:30Z</time>
      </trkpt>
      <trkpt lat="43.45983" lon="6.77863">
        <ele>35.268723</ele>
        <time>2011-01-19 14:41:34Z</time>
      </trkpt>
      <trkpt lat="43.45983" lon="6.77863">
        <ele>35.268723</ele>
        <time>2011-01-19 14:41:38Z</time>
      </trkpt>
      <trkpt lat="43.45983" lon="6.77863">
        <ele>35.268723</ele>
        <time>2011-01-19 14:41:42Z</time>
      </trkpt>
      <trkpt lat="43.45983" lon="6.77863">
        <ele>35.268723</ele>
        <time>2011-01-19 14:41:46Z</time>
      </trkpt>
      <trkpt lat="43.45983" lon="6.77863">
        <ele>35.268723</ele>
        <time>2011-01-19 14:41:50Z</time>
      </trkpt>
      <trkpt lat="43.45983" lon="6.77863">
        <ele>35.268723</ele>
        <time>2011-01-19 14:41:54Z</time>
      </trkpt>
      <trkpt lat="43.45983" lon="6.77863">
        <ele>35.268723</ele>
        <time>2011-01-19 14:41:58Z</time>
      </trkpt>
      <trkpt lat="43.45983" lon="6.77863">
        <ele>35.268723</ele>
        <time>2011-01-19 14:42:02Z</time>
      </trkpt>
      <trkpt lat="43.45983" lon="6.77863">
        <ele>35.268723</ele>
        <time>2011-01-19 14:42:06Z</time>
      </trkpt>
      <trkpt lat="43.45983" lon="6.77863">
        <ele>35.268723</ele>
        <time>2011-01-19 14:42:10Z</time>
      </trkpt>
      <trkpt lat="43.45983" lon="6.77863">
        <ele>35.268723</ele>
        <time>2011-01-19 14:42:14Z</time>
      </trkpt>
      <trkpt lat="43.45983" lon="6.77863">
        <ele>35.268723</ele>
        <time>2011-01-19 14:42:18Z</time>
      </trkpt>
      <trkpt lat="43.45983" lon="6.77863">
        <ele>35.268723</ele>
        <time>2011-01-19 14:42:22Z</time>
      </trkpt>
      <trkpt lat="43.45979" lon="6.7787">
        <ele>39.26873</ele>
        <time>2011-01-19 14:42:26Z</time>
      </trkpt>
      <trkpt lat="43.45979" lon="6.7787">
        <ele>39.26873</ele>
        <time>2011-01-19 14:42:30Z</time>
      </trkpt>
      <trkpt lat="43.45979" lon="6.7787">
        <ele>39.26873</ele>
        <time>2011-01-19 14:42:34Z</time>
      </trkpt>
      <trkpt lat="43.45979" lon="6.7787">
        <ele>39.26873</ele>
        <time>2011-01-19 14:42:38Z</time>
      </trkpt>
      <trkpt lat="43.45979" lon="6.7787">
        <ele>39.26873</ele>
        <time>2011-01-19 14:42:42Z</time>
      </trkpt>
      <trkpt lat="43.45979" lon="6.7787">
        <ele>39.26873</ele>
        <time>2011-01-19 14:42:46Z</time>
      </trkpt>
      <trkpt lat="43.45979" lon="6.7787">
        <ele>39.26873</ele>
        <time>2011-01-19 14:42:50Z</time>
      </trkpt>
      <trkpt lat="43.45979" lon="6.7787">
        <ele>39.26873</ele>
        <time>2011-01-19 14:42:54Z</time>
      </trkpt>
      <trkpt lat="43.45979" lon="6.7787">
        <ele>39.26873</ele>
        <time>2011-01-19 14:42:58Z</time>
      </trkpt>
      <trkpt lat="43.45979" lon="6.7787">
        <ele>39.26873</ele>
        <time>2011-01-19 14:43:02Z</time>
      </trkpt>
      <trkpt lat="43.45979" lon="6.7787">
        <ele>39.26873</ele>
        <time>2011-01-19 14:43:06Z</time>
      </trkpt>
      <trkpt lat="43.45979" lon="6.7787">
        <ele>39.26873</ele>
        <time>2011-01-19 14:43:10Z</time>
      </trkpt>
      <trkpt lat="43.45979" lon="6.7787">
        <ele>39.26873</ele>
        <time>2011-01-19 14:43:14Z</time>
      </trkpt>
      <trkpt lat="43.45979" lon="6.7787">
        <ele>39.26873</ele>
        <time>2011-01-19 14:43:18Z</time>
      </trkpt>
      <trkpt lat="43.45979" lon="6.7787">
        <ele>39.26873</ele>
        <time>2011-01-19 14:43:22Z</time>
      </trkpt>
      <trkpt lat="43.45979" lon="6.7787">
        <ele>39.26873</ele>
        <time>2011-01-19 14:43:26Z</time>
      </trkpt>
      <trkpt lat="43.45979" lon="6.7787">
        <ele>39.26873</ele>
        <time>2011-01-19 14:43:30Z</time>
      </trkpt>
      <trkpt lat="43.45979" lon="6.7787">
        <ele>39.26873</ele>
        <time>2011-01-19 14:43:34Z</time>
      </trkpt>
      <trkpt lat="43.45979" lon="6.7787">
        <ele>39.26873</ele>
        <time>2011-01-19 14:43:38Z</time>
      </trkpt>
      <trkpt lat="43.45979" lon="6.7787">
        <ele>39.26873</ele>
        <time>2011-01-19 14:43:42Z</time>
      </trkpt>
      <trkpt lat="43.46005" lon="6.7786">
        <ele>38.268749</ele>
        <time>2011-01-19 14:43:46Z</time>
      </trkpt>
      <trkpt lat="43.46005" lon="6.7786">
        <ele>38.268749</ele>
        <time>2011-01-19 14:43:50Z</time>
      </trkpt>
      <trkpt lat="43.46011" lon="6.77862">
        <ele>38.268764</ele>
        <time>2011-01-19 14:43:54Z</time>
      </trkpt>
      <trkpt lat="43.46012" lon="6.77861">
        <ele>37.268761</ele>
        <time>2011-01-19 14:43:58Z</time>
      </trkpt>
      <trkpt lat="43.46012" lon="6.77861">
        <ele>37.268764</ele>
        <time>2011-01-19 14:44:02Z</time>
      </trkpt>
      <trkpt lat="43.46012" lon="6.77861">
        <ele>37.268764</ele>
        <time>2011-01-19 14:44:06Z</time>
      </trkpt>
      <trkpt lat="43.46012" lon="6.77861">
        <ele>37.268764</ele>
        <time>2011-01-19 14:44:10Z</time>
      </trkpt>
      <trkpt lat="43.46012" lon="6.77861">
        <ele>37.268764</ele>
        <time>2011-01-19 14:44:14Z</time>
      </trkpt>
      <trkpt lat="43.46017" lon="6.77865">
        <ele>36.268784</ele>
        <time>2011-01-19 14:44:18Z</time>
      </trkpt>
      <trkpt lat="43.46019" lon="6.77867">
        <ele>36.268784</ele>
        <time>2011-01-19 14:44:22Z</time>
      </trkpt>
      <trkpt lat="43.4602" lon="6.77868">
        <ele>36.268791</ele>
        <time>2011-01-19 14:44:26Z</time>
      </trkpt>
      <trkpt lat="43.4602" lon="6.77868">
        <ele>36.268791</ele>
        <time>2011-01-19 14:44:30Z</time>
      </trkpt>
      <trkpt lat="43.4602" lon="6.77868">
        <ele>36.268791</ele>
        <time>2011-01-19 14:44:34Z</time>
      </trkpt>
      <trkpt lat="43.4602" lon="6.77868">
        <ele>36.268791</ele>
        <time>2011-01-19 14:44:38Z</time>
      </trkpt>
      <trkpt lat="43.4602" lon="6.77868">
        <ele>36.268791</ele>
        <time>2011-01-19 14:44:42Z</time>
      </trkpt>
      <trkpt lat="43.4602" lon="6.77868">
        <ele>36.268791</ele>
        <time>2011-01-19 14:44:46Z</time>
      </trkpt>
      <trkpt lat="43.46036" lon="6.77871">
        <ele>35.268826</ele>
        <time>2011-01-19 14:44:50Z</time>
      </trkpt>
      <trkpt lat="43.46038" lon="6.77873">
        <ele>36.268829</ele>
        <time>2011-01-19 14:44:54Z</time>
      </trkpt>
      <trkpt lat="43.46038" lon="6.77873">
        <ele>36.268829</ele>
        <time>2011-01-19 14:44:58Z</time>
      </trkpt>
      <trkpt lat="43.46038" lon="6.77873">
        <ele>36.268829</ele>
        <time>2011-01-19 14:45:02Z</time>
      </trkpt>
      <trkpt lat="43.46038" lon="6.77873">
        <ele>36.268829</ele>
        <time>2011-01-19 14:45:06Z</time>
      </trkpt>
      <trkpt lat="43.46038" lon="6.77873">
        <ele>36.268829</ele>
        <time>2011-01-19 14:45:10Z</time>
      </trkpt>
      <trkpt lat="43.46038" lon="6.77873">
        <ele>36.268829</ele>
        <time>2011-01-19 14:45:14Z</time>
      </trkpt>
      <trkpt lat="43.46061" lon="6.77894">
        <ele>33.268921</ele>
        <time>2011-01-19 14:45:18Z</time>
      </trkpt>
      <trkpt lat="43.46061" lon="6.77894">
        <ele>33.268921</ele>
        <time>2011-01-19 14:45:22Z</time>
      </trkpt>
      <trkpt lat="43.46069" lon="6.77898">
        <ele>34.268944</ele>
        <time>2011-01-19 14:45:26Z</time>
      </trkpt>
      <trkpt lat="43.46072" lon="6.77899">
        <ele>34.268944</ele>
        <time>2011-01-19 14:45:30Z</time>
      </trkpt>
      <trkpt lat="43.46073" lon="6.779">
        <ele>33.268951</ele>
        <time>2011-01-19 14:45:34Z</time>
      </trkpt>
      <trkpt lat="43.46073" lon="6.779">
        <ele>33.268951</ele>
        <time>2011-01-19 14:45:38Z</time>
      </trkpt>
      <trkpt lat="43.46073" lon="6.779">
        <ele>33.268951</ele>
        <time>2011-01-19 14:45:42Z</time>
      </trkpt>
      <trkpt lat="43.46073" lon="6.779">
        <ele>33.268951</ele>
        <time>2011-01-19 14:45:46Z</time>
      </trkpt>
      <trkpt lat="43.46073" lon="6.779">
        <ele>33.268951</ele>
        <time>2011-01-19 14:45:50Z</time>
      </trkpt>
      <trkpt lat="43.46076" lon="6.77899">
        <ele>37.268951</ele>
        <time>2011-01-19 14:45:54Z</time>
      </trkpt>
      <trkpt lat="43.46075" lon="6.77896">
        <ele>37.268944</ele>
        <time>2011-01-19 14:45:58Z</time>
      </trkpt>
      <trkpt lat="43.46074" lon="6.77896">
        <ele>37.268944</ele>
        <time>2011-01-19 14:46:02Z</time>
      </trkpt>
      <trkpt lat="43.46073" lon="6.77896">
        <ele>37.268944</ele>
        <time>2011-01-19 14:46:06Z</time>
      </trkpt>
      <trkpt lat="43.46074" lon="6.77897">
        <ele>37.268944</ele>
        <time>2011-01-19 14:46:10Z</time>
      </trkpt>
      <trkpt lat="43.46075" lon="6.77897">
        <ele>37.268948</ele>
        <time>2011-01-19 14:46:14Z</time>
      </trkpt>
      <trkpt lat="43.46078" lon="6.77901">
        <ele>37.268963</ele>
        <time>2011-01-19 14:46:18Z</time>
      </trkpt>
      <trkpt lat="43.4608" lon="6.77904">
        <ele>37.26897</ele>
        <time>2011-01-19 14:46:22Z</time>
      </trkpt>
      <trkpt lat="43.46082" lon="6.77909">
        <ele>37.26899</ele>
        <time>2011-01-19 14:46:26Z</time>
      </trkpt>
      <trkpt lat="43.46083" lon="6.77914">
        <ele>38.268997</ele>
        <time>2011-01-19 14:46:30Z</time>
      </trkpt>
      <trkpt lat="43.46083" lon="6.77916">
        <ele>38.269001</ele>
        <time>2011-01-19 14:46:34Z</time>
      </trkpt>
      <trkpt lat="43.46083" lon="6.77916">
        <ele>38.269001</ele>
        <time>2011-01-19 14:46:38Z</time>
      </trkpt>
      <trkpt lat="43.46083" lon="6.77916">
        <ele>38.269001</ele>
        <time>2011-01-19 14:46:42Z</time>
      </trkpt>
      <trkpt lat="43.46083" lon="6.77916">
        <ele>38.269001</ele>
        <time>2011-01-19 14:46:46Z</time>
      </trkpt>
      <trkpt lat="43.46083" lon="6.77916">
        <ele>38.269001</ele>
        <time>2011-01-19 14:46:50Z</time>
      </trkpt>
      <trkpt lat="43.46083" lon="6.77916">
        <ele>38.269001</ele>
        <time>2011-01-19 14:46:54Z</time>
      </trkpt>
      <trkpt lat="43.46083" lon="6.77916">
        <ele>38.269001</ele>
        <time>2011-01-19 14:46:58Z</time>
      </trkpt>
      <trkpt lat="43.46093" lon="6.77923">
        <ele>40.269035</ele>
        <time>2011-01-19 14:47:02Z</time>
      </trkpt>
      <trkpt lat="43.46093" lon="6.77923">
        <ele>40.269035</ele>
        <time>2011-01-19 14:47:06Z</time>
      </trkpt>
      <trkpt lat="43.46093" lon="6.77923">
        <ele>40.269035</ele>
        <time>2011-01-19 14:47:10Z</time>
      </trkpt>
      <trkpt lat="43.46097" lon="6.77924">
        <ele>41.269043</ele>
        <time>2011-01-19 14:47:14Z</time>
      </trkpt>
      <trkpt lat="43.46097" lon="6.77924">
        <ele>41.269043</ele>
        <time>2011-01-19 14:47:18Z</time>
      </trkpt>
      <trkpt lat="43.46097" lon="6.77924">
        <ele>41.269043</ele>
        <time>2011-01-19 14:47:22Z</time>
      </trkpt>
      <trkpt lat="43.46098" lon="6.77922">
        <ele>39.269035</ele>
        <time>2011-01-19 14:47:26Z</time>
      </trkpt>
      <trkpt lat="43.46098" lon="6.77922">
        <ele>39.269035</ele>
        <time>2011-01-19 14:47:30Z</time>
      </trkpt>
      <trkpt lat="43.46098" lon="6.77921">
        <ele>36.269039</ele>
        <time>2011-01-19 14:47:34Z</time>
      </trkpt>
      <trkpt lat="43.46099" lon="6.77922">
        <ele>36.269039</ele>
        <time>2011-01-19 14:47:38Z</time>
      </trkpt>
      <trkpt lat="43.461" lon="6.77923">
        <ele>36.269047</ele>
        <time>2011-01-19 14:47:42Z</time>
      </trkpt>
      <trkpt lat="43.46101" lon="6.77925">
        <ele>36.269054</ele>
        <time>2011-01-19 14:47:46Z</time>
      </trkpt>
      <trkpt lat="43.46102" lon="6.77927">
        <ele>36.269058</ele>
        <time>2011-01-19 14:47:50Z</time>
      </trkpt>
      <trkpt lat="43.46102" lon="6.7793">
        <ele>37.269066</ele>
        <time>2011-01-19 14:47:54Z</time>
      </trkpt>
      <trkpt lat="43.46102" lon="6.7793">
        <ele>37.269066</ele>
        <time>2011-01-19 14:47:58Z</time>
      </trkpt>
      <trkpt lat="43.46101" lon="6.77926">
        <ele>38.269058</ele>
        <time>2011-01-19 14:48:02Z</time>
      </trkpt>
      <trkpt lat="43.46101" lon="6.77925">
        <ele>37.269054</ele>
        <time>2011-01-19 14:48:06Z</time>
      </trkpt>
      <trkpt lat="43.46101" lon="6.77925">
        <ele>37.269054</ele>
        <time>2011-01-19 14:48:10Z</time>
      </trkpt>
      <trkpt lat="43.461" lon="6.77923">
        <ele>36.269047</ele>
        <time>2011-01-19 14:48:14Z</time>
      </trkpt>
      <trkpt lat="43.46099" lon="6.7792">
        <ele>35.269035</ele>
        <time>2011-01-19 14:48:18Z</time>
      </trkpt>
      <trkpt lat="43.46099" lon="6.7792">
        <ele>35.269035</ele>
        <time>2011-01-19 14:48:22Z</time>
      </trkpt>
      <trkpt lat="43.46099" lon="6.77914">
        <ele>29.269024</ele>
        <time>2011-01-19 14:48:26Z</time>
      </trkpt>
      <trkpt lat="43.46099" lon="6.77914">
        <ele>28.269024</ele>
        <time>2011-01-19 14:48:30Z</time>
      </trkpt>
      <trkpt lat="43.461" lon="6.77912">
        <ele>28.26902</ele>
        <time>2011-01-19 14:48:34Z</time>
      </trkpt>
      <trkpt lat="43.461" lon="6.77912">
        <ele>28.26902</ele>
        <time>2011-01-19 14:48:38Z</time>
      </trkpt>
      <trkpt lat="43.461" lon="6.77912">
        <ele>28.26902</ele>
        <time>2011-01-19 14:48:42Z</time>
      </trkpt>
      <trkpt lat="43.46106" lon="6.77914">
        <ele>31.269035</ele>
        <time>2011-01-19 14:48:46Z</time>
      </trkpt>
      <trkpt lat="43.46106" lon="6.77914">
        <ele>31.269035</ele>
        <time>2011-01-19 14:48:50Z</time>
      </trkpt>
      <trkpt lat="43.46112" lon="6.77919">
        <ele>33.269058</ele>
        <time>2011-01-19 14:48:54Z</time>
      </trkpt>
      <trkpt lat="43.46113" lon="6.77921">
        <ele>33.269062</ele>
        <time>2011-01-19 14:48:58Z</time>
      </trkpt>
      <trkpt lat="43.46113" lon="6.77921">
        <ele>33.269062</ele>
        <time>2011-01-19 14:49:02Z</time>
      </trkpt>
      <trkpt lat="43.46117" lon="6.77928">
        <ele>35.269081</ele>
        <time>2011-01-19 14:49:06Z</time>
      </trkpt>
      <trkpt lat="43.46119" lon="6.77931">
        <ele>35.269096</ele>
        <time>2011-01-19 14:49:10Z</time>
      </trkpt>
      <trkpt lat="43.46123" lon="6.77935">
        <ele>34.269108</ele>
        <time>2011-01-19 14:49:14Z</time>
      </trkpt>
      <trkpt lat="43.46124" lon="6.77936">
        <ele>34.269112</ele>
        <time>2011-01-19 14:49:18Z</time>
      </trkpt>
      <trkpt lat="43.46124" lon="6.77936">
        <ele>34.269112</ele>
        <time>2011-01-19 14:49:22Z</time>
      </trkpt>
      <trkpt lat="43.46132" lon="6.7794">
        <ele>34.269138</ele>
        <time>2011-01-19 14:49:26Z</time>
      </trkpt>
      <trkpt lat="43.46135" lon="6.7794">
        <ele>34.269142</ele>
        <time>2011-01-19 14:49:30Z</time>
      </trkpt>
      <trkpt lat="43.46141" lon="6.77941">
        <ele>34.26915</ele>
        <time>2011-01-19 14:49:34Z</time>
      </trkpt>
      <trkpt lat="43.46143" lon="6.77941">
        <ele>34.269157</ele>
        <time>2011-01-19 14:49:38Z</time>
      </trkpt>
      <trkpt lat="43.46143" lon="6.77941">
        <ele>34.269157</ele>
        <time>2011-01-19 14:49:42Z</time>
      </trkpt>
      <trkpt lat="43.46143" lon="6.77941">
        <ele>34.269157</ele>
        <time>2011-01-19 14:49:46Z</time>
      </trkpt>
      <trkpt lat="43.46152" lon="6.77939">
        <ele>34.269165</ele>
        <time>2011-01-19 14:49:50Z</time>
      </trkpt>
      <trkpt lat="43.46153" lon="6.77937">
        <ele>35.269161</ele>
        <time>2011-01-19 14:49:54Z</time>
      </trkpt>
      <trkpt lat="43.46153" lon="6.77937">
        <ele>36.269161</ele>
        <time>2011-01-19 14:49:58Z</time>
      </trkpt>
      <trkpt lat="43.46153" lon="6.77937">
        <ele>36.269161</ele>
        <time>2011-01-19 14:50:02Z</time>
      </trkpt>
      <trkpt lat="43.46153" lon="6.77937">
        <ele>36.269161</ele>
        <time>2011-01-19 14:50:06Z</time>
      </trkpt>
      <trkpt lat="43.46153" lon="6.77937">
        <ele>36.269161</ele>
        <time>2011-01-19 14:50:10Z</time>
      </trkpt>
      <trkpt lat="43.46154" lon="6.77936">
        <ele>38.269165</ele>
        <time>2011-01-19 14:50:14Z</time>
      </trkpt>
      <trkpt lat="43.46154" lon="6.77932">
        <ele>40.26915</ele>
        <time>2011-01-19 14:50:18Z</time>
      </trkpt>
      <trkpt lat="43.46154" lon="6.77932">
        <ele>40.26915</ele>
        <time>2011-01-19 14:50:22Z</time>
      </trkpt>
      <trkpt lat="43.46153" lon="6.77923">
        <ele>42.269131</ele>
        <time>2011-01-19 14:50:26Z</time>
      </trkpt>
      <trkpt lat="43.46151" lon="6.77917">
        <ele>43.269115</ele>
        <time>2011-01-19 14:50:30Z</time>
      </trkpt>
      <trkpt lat="43.46151" lon="6.77915">
        <ele>43.269112</ele>
        <time>2011-01-19 14:50:34Z</time>
      </trkpt>
      <trkpt lat="43.46151" lon="6.77915">
        <ele>43.269112</ele>
        <time>2011-01-19 14:50:38Z</time>
      </trkpt>
      <trkpt lat="43.46149" lon="6.77904">
        <ele>44.269081</ele>
        <time>2011-01-19 14:50:42Z</time>
      </trkpt>
      <trkpt lat="43.46149" lon="6.77904">
        <ele>44.269081</ele>
        <time>2011-01-19 14:50:46Z</time>
      </trkpt>
      <trkpt lat="43.46143" lon="6.77893">
        <ele>48.269043</ele>
        <time>2011-01-19 14:50:50Z</time>
      </trkpt>
      <trkpt lat="43.46141" lon="6.77887">
        <ele>49.269028</ele>
        <time>2011-01-19 14:50:54Z</time>
      </trkpt>
      <trkpt lat="43.46141" lon="6.77886">
        <ele>49.269024</ele>
        <time>2011-01-19 14:50:58Z</time>
      </trkpt>
      <trkpt lat="43.46141" lon="6.77886">
        <ele>49.269024</ele>
        <time>2011-01-19 14:51:02Z</time>
      </trkpt>
      <trkpt lat="43.46141" lon="6.77886">
        <ele>49.269024</ele>
        <time>2011-01-19 14:51:06Z</time>
      </trkpt>
      <trkpt lat="43.46141" lon="6.77873">
        <ele>51.269001</ele>
        <time>2011-01-19 14:51:10Z</time>
      </trkpt>
      <trkpt lat="43.46141" lon="6.77873">
        <ele>51.269001</ele>
        <time>2011-01-19 14:51:14Z</time>
      </trkpt>
      <trkpt lat="43.46141" lon="6.77873">
        <ele>51.269001</ele>
        <time>2011-01-19 14:51:18Z</time>
      </trkpt>
      <trkpt lat="43.46142" lon="6.77869">
        <ele>51.268993</ele>
        <time>2011-01-19 14:51:22Z</time>
      </trkpt>
      <trkpt lat="43.46142" lon="6.77869">
        <ele>51.268993</ele>
        <time>2011-01-19 14:51:26Z</time>
      </trkpt>
      <trkpt lat="43.46142" lon="6.77869">
        <ele>51.268993</ele>
        <time>2011-01-19 14:51:30Z</time>
      </trkpt>
      <trkpt lat="43.46142" lon="6.77869">
        <ele>51.268993</ele>
        <time>2011-01-19 14:51:34Z</time>
      </trkpt>
      <trkpt lat="43.46142" lon="6.77869">
        <ele>51.268993</ele>
        <time>2011-01-19 14:51:38Z</time>
      </trkpt>
      <trkpt lat="43.46142" lon="6.77869">
        <ele>51.268993</ele>
        <time>2011-01-19 14:51:42Z</time>
      </trkpt>
      <trkpt lat="43.46142" lon="6.77869">
        <ele>51.268993</ele>
        <time>2011-01-19 14:51:46Z</time>
      </trkpt>
      <trkpt lat="43.46144" lon="6.77863">
        <ele>46.268982</ele>
        <time>2011-01-19 14:51:50Z</time>
      </trkpt>
      <trkpt lat="43.46144" lon="6.77863">
        <ele>47.268982</ele>
        <time>2011-01-19 14:51:54Z</time>
      </trkpt>
      <trkpt lat="43.46144" lon="6.77863">
        <ele>47.268982</ele>
        <time>2011-01-19 14:51:58Z</time>
      </trkpt>
      <trkpt lat="43.46144" lon="6.77863">
        <ele>47.268982</ele>
        <time>2011-01-19 14:52:02Z</time>
      </trkpt>
      <trkpt lat="43.46144" lon="6.77863">
        <ele>47.268982</ele>
        <time>2011-01-19 14:52:06Z</time>
      </trkpt>
      <trkpt lat="43.46144" lon="6.77863">
        <ele>47.268982</ele>
        <time>2011-01-19 14:52:10Z</time>
      </trkpt>
      <trkpt lat="43.46144" lon="6.77863">
        <ele>47.268982</ele>
        <time>2011-01-19 14:52:14Z</time>
      </trkpt>
      <trkpt lat="43.46144" lon="6.77863">
        <ele>47.268982</ele>
        <time>2011-01-19 14:52:18Z</time>
      </trkpt>
      <trkpt lat="43.46144" lon="6.77863">
        <ele>47.268982</ele>
        <time>2011-01-19 14:52:22Z</time>
      </trkpt>
      <trkpt lat="43.46144" lon="6.77863">
        <ele>47.268982</ele>
        <time>2011-01-19 14:52:26Z</time>
      </trkpt>
      <trkpt lat="43.46144" lon="6.77863">
        <ele>47.268982</ele>
        <time>2011-01-19 14:52:30Z</time>
      </trkpt>
      <trkpt lat="43.46144" lon="6.77863">
        <ele>47.268982</ele>
        <time>2011-01-19 14:52:34Z</time>
      </trkpt>
      <trkpt lat="43.46144" lon="6.77863">
        <ele>47.268982</ele>
        <time>2011-01-19 14:52:38Z</time>
      </trkpt>
      <trkpt lat="43.46154" lon="6.77827">
        <ele>45.268917</ele>
        <time>2011-01-19 14:52:42Z</time>
      </trkpt>
      <trkpt lat="43.46154" lon="6.77816">
        <ele>45.268894</ele>
        <time>2011-01-19 14:52:46Z</time>
      </trkpt>
      <trkpt lat="43.46155" lon="6.77812">
        <ele>44.268883</ele>
        <time>2011-01-19 14:52:50Z</time>
      </trkpt>
      <trkpt lat="43.46156" lon="6.77805">
        <ele>43.268867</ele>
        <time>2011-01-19 14:52:54Z</time>
      </trkpt>
      <trkpt lat="43.46156" lon="6.77805">
        <ele>43.268867</ele>
        <time>2011-01-19 14:52:58Z</time>
      </trkpt>
      <trkpt lat="43.46158" lon="6.77786">
        <ele>42.268829</ele>
        <time>2011-01-19 14:53:02Z</time>
      </trkpt>
      <trkpt lat="43.46159" lon="6.7778">
        <ele>41.268818</ele>
        <time>2011-01-19 14:53:06Z</time>
      </trkpt>
      <trkpt lat="43.46161" lon="6.77774">
        <ele>41.268806</ele>
        <time>2011-01-19 14:53:10Z</time>
      </trkpt>
      <trkpt lat="43.46162" lon="6.77772">
        <ele>41.268799</ele>
        <time>2011-01-19 14:53:14Z</time>
      </trkpt>
      <trkpt lat="43.46162" lon="6.77772">
        <ele>41.268799</ele>
        <time>2011-01-19 14:53:18Z</time>
      </trkpt>
      <trkpt lat="43.46162" lon="6.77772">
        <ele>41.268799</ele>
        <time>2011-01-19 14:53:22Z</time>
      </trkpt>
      <trkpt lat="43.46162" lon="6.77772">
        <ele>41.268799</ele>
        <time>2011-01-19 14:53:26Z</time>
      </trkpt>
      <trkpt lat="43.46162" lon="6.77772">
        <ele>41.268799</ele>
        <time>2011-01-19 14:53:30Z</time>
      </trkpt>
      <trkpt lat="43.46162" lon="6.77772">
        <ele>41.268799</ele>
        <time>2011-01-19 14:53:34Z</time>
      </trkpt>
      <trkpt lat="43.46175" lon="6.77739">
        <ele>42.268753</ele>
        <time>2011-01-19 14:53:38Z</time>
      </trkpt>
      <trkpt lat="43.46177" lon="6.77734">
        <ele>42.268742</ele>
        <time>2011-01-19 14:53:42Z</time>
      </trkpt>
      <trkpt lat="43.46178" lon="6.77732">
        <ele>42.268738</ele>
        <time>2011-01-19 14:53:46Z</time>
      </trkpt>
      <trkpt lat="43.46178" lon="6.77732">
        <ele>42.268738</ele>
        <time>2011-01-19 14:53:50Z</time>
      </trkpt>
      <trkpt lat="43.46178" lon="6.77732">
        <ele>42.268738</ele>
        <time>2011-01-19 14:53:54Z</time>
      </trkpt>
      <trkpt lat="43.46178" lon="6.77732">
        <ele>42.268738</ele>
        <time>2011-01-19 14:53:58Z</time>
      </trkpt>
      <trkpt lat="43.46178" lon="6.77732">
        <ele>42.268738</ele>
        <time>2011-01-19 14:54:02Z</time>
      </trkpt>
      <trkpt lat="43.46178" lon="6.77732">
        <ele>42.268738</ele>
        <time>2011-01-19 14:54:06Z</time>
      </trkpt>
      <trkpt lat="43.46178" lon="6.77732">
        <ele>42.268738</ele>
        <time>2011-01-19 14:54:10Z</time>
      </trkpt>
      <trkpt lat="43.46186" lon="6.77697">
        <ele>45.268669</ele>
        <time>2011-01-19 14:54:14Z</time>
      </trkpt>
      <trkpt lat="43.46186" lon="6.77697">
        <ele>45.268669</ele>
        <time>2011-01-19 14:54:18Z</time>
      </trkpt>
      <trkpt lat="43.46186" lon="6.77697">
        <ele>45.268669</ele>
        <time>2011-01-19 14:54:22Z</time>
      </trkpt>
      <trkpt lat="43.46186" lon="6.77697">
        <ele>45.268669</ele>
        <time>2011-01-19 14:54:26Z</time>
      </trkpt>
      <trkpt lat="43.46186" lon="6.77697">
        <ele>45.268669</ele>
        <time>2011-01-19 14:54:30Z</time>
      </trkpt>
      <trkpt lat="43.46194" lon="6.77661">
        <ele>47.2686</ele>
        <time>2011-01-19 14:54:34Z</time>
      </trkpt>
      <trkpt lat="43.46194" lon="6.77661">
        <ele>47.2686</ele>
        <time>2011-01-19 14:54:38Z</time>
      </trkpt>
      <trkpt lat="43.46194" lon="6.77661">
        <ele>47.2686</ele>
        <time>2011-01-19 14:54:42Z</time>
      </trkpt>
      <trkpt lat="43.46194" lon="6.77661">
        <ele>47.2686</ele>
        <time>2011-01-19 14:54:46Z</time>
      </trkpt>
      <trkpt lat="43.46194" lon="6.77661">
        <ele>47.2686</ele>
        <time>2011-01-19 14:54:50Z</time>
      </trkpt>
      <trkpt lat="43.46194" lon="6.77661">
        <ele>47.2686</ele>
        <time>2011-01-19 14:54:54Z</time>
      </trkpt>
      <trkpt lat="43.46204" lon="6.77624">
        <ele>50.268536</ele>
        <time>2011-01-19 14:54:58Z</time>
      </trkpt>
      <trkpt lat="43.46204" lon="6.77624">
        <ele>50.268536</ele>
        <time>2011-01-19 14:55:02Z</time>
      </trkpt>
      <trkpt lat="43.46204" lon="6.77624">
        <ele>50.268536</ele>
        <time>2011-01-19 14:55:06Z</time>
      </trkpt>
      <trkpt lat="43.46204" lon="6.77624">
        <ele>50.268536</ele>
        <time>2011-01-19 14:55:10Z</time>
      </trkpt>
      <trkpt lat="43.46204" lon="6.77624">
        <ele>50.268536</ele>
        <time>2011-01-19 14:55:14Z</time>
      </trkpt>
      <trkpt lat="43.46204" lon="6.77624">
        <ele>50.268536</ele>
        <time>2011-01-19 14:55:18Z</time>
      </trkpt>
      <trkpt lat="43.46204" lon="6.77624">
        <ele>50.268536</ele>
        <time>2011-01-19 14:55:22Z</time>
      </trkpt>
      <trkpt lat="43.46204" lon="6.77624">
        <ele>50.268536</ele>
        <time>2011-01-19 14:55:26Z</time>
      </trkpt>
      <trkpt lat="43.46213" lon="6.77589">
        <ele>53.268471</ele>
        <time>2011-01-19 14:55:30Z</time>
      </trkpt>
      <trkpt lat="43.46213" lon="6.77589">
        <ele>53.268471</ele>
        <time>2011-01-19 14:55:34Z</time>
      </trkpt>
      <trkpt lat="43.46213" lon="6.77589">
        <ele>53.268471</ele>
        <time>2011-01-19 14:55:38Z</time>
      </trkpt>
      <trkpt lat="43.46213" lon="6.77589">
        <ele>53.268471</ele>
        <time>2011-01-19 14:55:42Z</time>
      </trkpt>
      <trkpt lat="43.46213" lon="6.77589">
        <ele>53.268471</ele>
        <time>2011-01-19 14:55:46Z</time>
      </trkpt>
      <trkpt lat="43.46219" lon="6.77552">
        <ele>56.268394</ele>
        <time>2011-01-19 14:55:50Z</time>
      </trkpt>
      <trkpt lat="43.46219" lon="6.77552">
        <ele>56.268394</ele>
        <time>2011-01-19 14:55:54Z</time>
      </trkpt>
      <trkpt lat="43.46219" lon="6.77552">
        <ele>56.268394</ele>
        <time>2011-01-19 14:55:58Z</time>
      </trkpt>
      <trkpt lat="43.46219" lon="6.77552">
        <ele>56.268394</ele>
        <time>2011-01-19 14:56:02Z</time>
      </trkpt>
      <trkpt lat="43.46219" lon="6.77552">
        <ele>56.268394</ele>
        <time>2011-01-19 14:56:06Z</time>
      </trkpt>
      <trkpt lat="43.46219" lon="6.77552">
        <ele>56.268394</ele>
        <time>2011-01-19 14:56:10Z</time>
      </trkpt>
      <trkpt lat="43.46223" lon="6.77515">
        <ele>55.268318</ele>
        <time>2011-01-19 14:56:14Z</time>
      </trkpt>
      <trkpt lat="43.46223" lon="6.77515">
        <ele>55.268318</ele>
        <time>2011-01-19 14:56:18Z</time>
      </trkpt>
      <trkpt lat="43.46223" lon="6.77515">
        <ele>55.268318</ele>
        <time>2011-01-19 14:56:22Z</time>
      </trkpt>
      <trkpt lat="43.46223" lon="6.77515">
        <ele>55.268318</ele>
        <time>2011-01-19 14:56:26Z</time>
      </trkpt>
      <trkpt lat="43.46223" lon="6.77515">
        <ele>55.268318</ele>
        <time>2011-01-19 14:56:30Z</time>
      </trkpt>
      <trkpt lat="43.46223" lon="6.77515">
        <ele>55.268318</ele>
        <time>2011-01-19 14:56:34Z</time>
      </trkpt>
      <trkpt lat="43.46223" lon="6.77476">
        <ele>56.26823</ele>
        <time>2011-01-19 14:56:38Z</time>
      </trkpt>
      <trkpt lat="43.46223" lon="6.77476">
        <ele>56.26823</ele>
        <time>2011-01-19 14:56:42Z</time>
      </trkpt>
      <trkpt lat="43.46224" lon="6.77467">
        <ele>55.268211</ele>
        <time>2011-01-19 14:56:46Z</time>
      </trkpt>
      <trkpt lat="43.46224" lon="6.77467">
        <ele>55.268211</ele>
        <time>2011-01-19 14:56:50Z</time>
      </trkpt>
      <trkpt lat="43.46224" lon="6.77467">
        <ele>55.268211</ele>
        <time>2011-01-19 14:56:54Z</time>
      </trkpt>
      <trkpt lat="43.46224" lon="6.77467">
        <ele>55.268211</ele>
        <time>2011-01-19 14:56:58Z</time>
      </trkpt>
      <trkpt lat="43.46224" lon="6.77467">
        <ele>55.268211</ele>
        <time>2011-01-19 14:57:02Z</time>
      </trkpt>
      <trkpt lat="43.46224" lon="6.77467">
        <ele>55.268211</ele>
        <time>2011-01-19 14:57:06Z</time>
      </trkpt>
      <trkpt lat="43.46224" lon="6.77467">
        <ele>55.268211</ele>
        <time>2011-01-19 14:57:10Z</time>
      </trkpt>
      <trkpt lat="43.4622" lon="6.7743">
        <ele>56.26812</ele>
        <time>2011-01-19 14:57:14Z</time>
      </trkpt>
      <trkpt lat="43.4622" lon="6.7743">
        <ele>56.26812</ele>
        <time>2011-01-19 14:57:18Z</time>
      </trkpt>
      <trkpt lat="43.4622" lon="6.7743">
        <ele>56.26812</ele>
        <time>2011-01-19 14:57:22Z</time>
      </trkpt>
      <trkpt lat="43.46213" lon="6.77405">
        <ele>58.268051</ele>
        <time>2011-01-19 14:57:26Z</time>
      </trkpt>
      <trkpt lat="43.46213" lon="6.77405">
        <ele>58.268051</ele>
        <time>2011-01-19 14:57:30Z</time>
      </trkpt>
      <trkpt lat="43.46211" lon="6.774">
        <ele>59.268036</ele>
        <time>2011-01-19 14:57:34Z</time>
      </trkpt>
      <trkpt lat="43.4621" lon="6.77395">
        <ele>59.268021</ele>
        <time>2011-01-19 14:57:38Z</time>
      </trkpt>
      <trkpt lat="43.4621" lon="6.77395">
        <ele>59.268021</ele>
        <time>2011-01-19 14:57:42Z</time>
      </trkpt>
      <trkpt lat="43.4621" lon="6.77395">
        <ele>59.268021</ele>
        <time>2011-01-19 14:57:46Z</time>
      </trkpt>
      <trkpt lat="43.46205" lon="6.7738">
        <ele>59.267982</ele>
        <time>2011-01-19 14:57:50Z</time>
      </trkpt>
      <trkpt lat="43.46205" lon="6.7738">
        <ele>59.267982</ele>
        <time>2011-01-19 14:57:54Z</time>
      </trkpt>
      <trkpt lat="43.46205" lon="6.7738">
        <ele>59.267982</ele>
        <time>2011-01-19 14:57:58Z</time>
      </trkpt>
      <trkpt lat="43.46202" lon="6.77365">
        <ele>57.267948</ele>
        <time>2011-01-19 14:58:02Z</time>
      </trkpt>
      <trkpt lat="43.46202" lon="6.77364">
        <ele>57.267944</ele>
        <time>2011-01-19 14:58:06Z</time>
      </trkpt>
      <trkpt lat="43.46202" lon="6.77364">
        <ele>57.267944</ele>
        <time>2011-01-19 14:58:10Z</time>
      </trkpt>
      <trkpt lat="43.46202" lon="6.77364">
        <ele>57.267944</ele>
        <time>2011-01-19 14:58:14Z</time>
      </trkpt>
      <trkpt lat="43.46202" lon="6.77364">
        <ele>57.267944</ele>
        <time>2011-01-19 14:58:18Z</time>
      </trkpt>
      <trkpt lat="43.46202" lon="6.77364">
        <ele>57.267944</ele>
        <time>2011-01-19 14:58:22Z</time>
      </trkpt>
      <trkpt lat="43.46202" lon="6.77364">
        <ele>57.267944</ele>
        <time>2011-01-19 14:58:26Z</time>
      </trkpt>
      <trkpt lat="43.46202" lon="6.77364">
        <ele>57.267944</ele>
        <time>2011-01-19 14:58:30Z</time>
      </trkpt>
      <trkpt lat="43.46202" lon="6.77364">
        <ele>57.267944</ele>
        <time>2011-01-19 14:58:34Z</time>
      </trkpt>
      <trkpt lat="43.46202" lon="6.77364">
        <ele>57.267944</ele>
        <time>2011-01-19 14:58:38Z</time>
      </trkpt>
      <trkpt lat="43.46209" lon="6.7733">
        <ele>51.267876</ele>
        <time>2011-01-19 14:58:42Z</time>
      </trkpt>
      <trkpt lat="43.46209" lon="6.7733">
        <ele>51.267876</ele>
        <time>2011-01-19 14:58:46Z</time>
      </trkpt>
      <trkpt lat="43.46209" lon="6.7733">
        <ele>51.267876</ele>
        <time>2011-01-19 14:58:50Z</time>
      </trkpt>
      <trkpt lat="43.46209" lon="6.7733">
        <ele>51.267876</ele>
        <time>2011-01-19 14:58:54Z</time>
      </trkpt>
      <trkpt lat="43.46209" lon="6.7733">
        <ele>51.267876</ele>
        <time>2011-01-19 14:58:58Z</time>
      </trkpt>
      <trkpt lat="43.46209" lon="6.7733">
        <ele>51.267876</ele>
        <time>2011-01-19 14:59:02Z</time>
      </trkpt>
      <trkpt lat="43.46209" lon="6.7733">
        <ele>51.267876</ele>
        <time>2011-01-19 14:59:06Z</time>
      </trkpt>
      <trkpt lat="43.46209" lon="6.7733">
        <ele>51.267876</ele>
        <time>2011-01-19 14:59:10Z</time>
      </trkpt>
      <trkpt lat="43.46201" lon="6.77293">
        <ele>52.26778</ele>
        <time>2011-01-19 14:59:14Z</time>
      </trkpt>
      <trkpt lat="43.46201" lon="6.77293">
        <ele>52.26778</ele>
        <time>2011-01-19 14:59:18Z</time>
      </trkpt>
      <trkpt lat="43.46201" lon="6.77293">
        <ele>52.26778</ele>
        <time>2011-01-19 14:59:22Z</time>
      </trkpt>
      <trkpt lat="43.46201" lon="6.77293">
        <ele>52.26778</ele>
        <time>2011-01-19 14:59:26Z</time>
      </trkpt>
      <trkpt lat="43.46198" lon="6.77256">
        <ele>53.267689</ele>
        <time>2011-01-19 14:59:30Z</time>
      </trkpt>
      <trkpt lat="43.46198" lon="6.77256">
        <ele>53.267689</ele>
        <time>2011-01-19 14:59:34Z</time>
      </trkpt>
      <trkpt lat="43.46198" lon="6.77256">
        <ele>53.267689</ele>
        <time>2011-01-19 14:59:38Z</time>
      </trkpt>
      <trkpt lat="43.46198" lon="6.77256">
        <ele>53.267689</ele>
        <time>2011-01-19 14:59:42Z</time>
      </trkpt>
      <trkpt lat="43.46198" lon="6.77256">
        <ele>53.267689</ele>
        <time>2011-01-19 14:59:46Z</time>
      </trkpt>
      <trkpt lat="43.46198" lon="6.77256">
        <ele>53.267689</ele>
        <time>2011-01-19 14:59:50Z</time>
      </trkpt>
      <trkpt lat="43.46198" lon="6.77256">
        <ele>53.267689</ele>
        <time>2011-01-19 14:59:54Z</time>
      </trkpt>
      <trkpt lat="43.46198" lon="6.77256">
        <ele>53.267689</ele>
        <time>2011-01-19 14:59:58Z</time>
      </trkpt>
      <trkpt lat="43.46198" lon="6.77218">
        <ele>53.267601</ele>
        <time>2011-01-19 15:00:02Z</time>
      </trkpt>
      <trkpt lat="43.46198" lon="6.77218">
        <ele>53.267601</ele>
        <time>2011-01-19 15:00:06Z</time>
      </trkpt>
      <trkpt lat="43.46198" lon="6.77218">
        <ele>53.267601</ele>
        <time>2011-01-19 15:00:10Z</time>
      </trkpt>
      <trkpt lat="43.46198" lon="6.77218">
        <ele>53.267601</ele>
        <time>2011-01-19 15:00:14Z</time>
      </trkpt>
      <trkpt lat="43.46198" lon="6.77218">
        <ele>53.267601</ele>
        <time>2011-01-19 15:00:18Z</time>
      </trkpt>
      <trkpt lat="43.46198" lon="6.77218">
        <ele>53.267601</ele>
        <time>2011-01-19 15:00:22Z</time>
      </trkpt>
      <trkpt lat="43.46198" lon="6.77218">
        <ele>53.267601</ele>
        <time>2011-01-19 15:00:26Z</time>
      </trkpt>
      <trkpt lat="43.46196" lon="6.7718">
        <ele>53.267513</ele>
        <time>2011-01-19 15:00:30Z</time>
      </trkpt>
      <trkpt lat="43.46196" lon="6.7718">
        <ele>53.267513</ele>
        <time>2011-01-19 15:00:34Z</time>
      </trkpt>
      <trkpt lat="43.46196" lon="6.7718">
        <ele>53.267513</ele>
        <time>2011-01-19 15:00:38Z</time>
      </trkpt>
      <trkpt lat="43.46196" lon="6.7718">
        <ele>53.267513</ele>
        <time>2011-01-19 15:00:42Z</time>
      </trkpt>
      <trkpt lat="43.46196" lon="6.7718">
        <ele>53.267513</ele>
        <time>2011-01-19 15:00:46Z</time>
      </trkpt>
      <trkpt lat="43.46199" lon="6.77143">
        <ele>53.267437</ele>
        <time>2011-01-19 15:00:50Z</time>
      </trkpt>
      <trkpt lat="43.46199" lon="6.77143">
        <ele>53.267437</ele>
        <time>2011-01-19 15:00:54Z</time>
      </trkpt>
      <trkpt lat="43.46199" lon="6.77143">
        <ele>53.267437</ele>
        <time>2011-01-19 15:00:58Z</time>
      </trkpt>
      <trkpt lat="43.46199" lon="6.77143">
        <ele>53.267437</ele>
        <time>2011-01-19 15:01:02Z</time>
      </trkpt>
      <trkpt lat="43.46199" lon="6.77143">
        <ele>53.267437</ele>
        <time>2011-01-19 15:01:06Z</time>
      </trkpt>
      <trkpt lat="43.46199" lon="6.77143">
        <ele>53.267437</ele>
        <time>2011-01-19 15:01:10Z</time>
      </trkpt>
      <trkpt lat="43.46195" lon="6.77105">
        <ele>58.267342</ele>
        <time>2011-01-19 15:01:14Z</time>
      </trkpt>
      <trkpt lat="43.46195" lon="6.77105">
        <ele>58.267342</ele>
        <time>2011-01-19 15:01:18Z</time>
      </trkpt>
      <trkpt lat="43.46195" lon="6.77105">
        <ele>58.267342</ele>
        <time>2011-01-19 15:01:22Z</time>
      </trkpt>
      <trkpt lat="43.46195" lon="6.77105">
        <ele>58.267342</ele>
        <time>2011-01-19 15:01:26Z</time>
      </trkpt>
      <trkpt lat="43.4619" lon="6.77068">
        <ele>61.26725</ele>
        <time>2011-01-19 15:01:30Z</time>
      </trkpt>
      <trkpt lat="43.4619" lon="6.77068">
        <ele>61.26725</ele>
        <time>2011-01-19 15:01:34Z</time>
      </trkpt>
      <trkpt lat="43.4619" lon="6.77068">
        <ele>61.26725</ele>
        <time>2011-01-19 15:01:38Z</time>
      </trkpt>
      <trkpt lat="43.4619" lon="6.77055">
        <ele>61.267223</ele>
        <time>2011-01-19 15:01:42Z</time>
      </trkpt>
      <trkpt lat="43.4619" lon="6.7705">
        <ele>62.267208</ele>
        <time>2011-01-19 15:01:46Z</time>
      </trkpt>
      <trkpt lat="43.4619" lon="6.77048">
        <ele>62.267204</ele>
        <time>2011-01-19 15:01:50Z</time>
      </trkpt>
      <trkpt lat="43.4619" lon="6.77048">
        <ele>62.267204</ele>
        <time>2011-01-19 15:01:54Z</time>
      </trkpt>
      <trkpt lat="43.4619" lon="6.77048">
        <ele>62.267204</ele>
        <time>2011-01-19 15:01:58Z</time>
      </trkpt>
      <trkpt lat="43.4619" lon="6.77048">
        <ele>62.267204</ele>
        <time>2011-01-19 15:02:02Z</time>
      </trkpt>
      <trkpt lat="43.4619" lon="6.77048">
        <ele>62.267204</ele>
        <time>2011-01-19 15:02:06Z</time>
      </trkpt>
      <trkpt lat="43.4619" lon="6.77048">
        <ele>62.267204</ele>
        <time>2011-01-19 15:02:10Z</time>
      </trkpt>
      <trkpt lat="43.4619" lon="6.77048">
        <ele>62.267204</ele>
        <time>2011-01-19 15:02:14Z</time>
      </trkpt>
      <trkpt lat="43.4619" lon="6.77048">
        <ele>62.267204</ele>
        <time>2011-01-19 15:02:18Z</time>
      </trkpt>
      <trkpt lat="43.46193" lon="6.77009">
        <ele>63.267124</ele>
        <time>2011-01-19 15:02:22Z</time>
      </trkpt>
      <trkpt lat="43.46193" lon="6.77009">
        <ele>63.267124</ele>
        <time>2011-01-19 15:02:26Z</time>
      </trkpt>
      <trkpt lat="43.46193" lon="6.77009">
        <ele>63.267124</ele>
        <time>2011-01-19 15:02:30Z</time>
      </trkpt>
      <trkpt lat="43.46193" lon="6.77009">
        <ele>63.267124</ele>
        <time>2011-01-19 15:02:34Z</time>
      </trkpt>
      <trkpt lat="43.46193" lon="6.77009">
        <ele>63.267124</ele>
        <time>2011-01-19 15:02:38Z</time>
      </trkpt>
      <trkpt lat="43.46193" lon="6.77009">
        <ele>63.267124</ele>
        <time>2011-01-19 15:02:42Z</time>
      </trkpt>
      <trkpt lat="43.46193" lon="6.77009">
        <ele>63.267124</ele>
        <time>2011-01-19 15:02:46Z</time>
      </trkpt>
      <trkpt lat="43.46198" lon="6.76971">
        <ele>61.267044</ele>
        <time>2011-01-19 15:02:50Z</time>
      </trkpt>
      <trkpt lat="43.46198" lon="6.76971">
        <ele>61.267044</ele>
        <time>2011-01-19 15:02:54Z</time>
      </trkpt>
      <trkpt lat="43.46198" lon="6.76971">
        <ele>61.267044</ele>
        <time>2011-01-19 15:02:58Z</time>
      </trkpt>
      <trkpt lat="43.46198" lon="6.76971">
        <ele>61.267044</ele>
        <time>2011-01-19 15:03:02Z</time>
      </trkpt>
      <trkpt lat="43.46198" lon="6.76971">
        <ele>61.267044</ele>
        <time>2011-01-19 15:03:06Z</time>
      </trkpt>
      <trkpt lat="43.46198" lon="6.76971">
        <ele>61.267044</ele>
        <time>2011-01-19 15:03:10Z</time>
      </trkpt>
      <trkpt lat="43.46198" lon="6.76971">
        <ele>61.267044</ele>
        <time>2011-01-19 15:03:14Z</time>
      </trkpt>
      <trkpt lat="43.46207" lon="6.76936">
        <ele>58.266975</ele>
        <time>2011-01-19 15:03:18Z</time>
      </trkpt>
      <trkpt lat="43.46207" lon="6.76936">
        <ele>58.266975</ele>
        <time>2011-01-19 15:03:22Z</time>
      </trkpt>
      <trkpt lat="43.46207" lon="6.76936">
        <ele>58.266975</ele>
        <time>2011-01-19 15:03:26Z</time>
      </trkpt>
      <trkpt lat="43.46207" lon="6.76936">
        <ele>58.266975</ele>
        <time>2011-01-19 15:03:30Z</time>
      </trkpt>
      <trkpt lat="43.46207" lon="6.76936">
        <ele>58.266975</ele>
        <time>2011-01-19 15:03:34Z</time>
      </trkpt>
      <trkpt lat="43.46207" lon="6.76936">
        <ele>58.266975</ele>
        <time>2011-01-19 15:03:38Z</time>
      </trkpt>
      <trkpt lat="43.46207" lon="6.76936">
        <ele>58.266975</ele>
        <time>2011-01-19 15:03:42Z</time>
      </trkpt>
      <trkpt lat="43.46207" lon="6.76936">
        <ele>58.266975</ele>
        <time>2011-01-19 15:03:46Z</time>
      </trkpt>
      <trkpt lat="43.46205" lon="6.76898">
        <ele>59.266891</ele>
        <time>2011-01-19 15:03:50Z</time>
      </trkpt>
      <trkpt lat="43.46205" lon="6.76898">
        <ele>59.266891</ele>
        <time>2011-01-19 15:03:54Z</time>
      </trkpt>
      <trkpt lat="43.46205" lon="6.76898">
        <ele>59.266891</ele>
        <time>2011-01-19 15:03:58Z</time>
      </trkpt>
      <trkpt lat="43.462" lon="6.76885">
        <ele>56.266846</ele>
        <time>2011-01-19 15:04:02Z</time>
      </trkpt>
      <trkpt lat="43.462" lon="6.76885">
        <ele>56.266846</ele>
        <time>2011-01-19 15:04:06Z</time>
      </trkpt>
      <trkpt lat="43.46196" lon="6.76872">
        <ele>54.266815</ele>
        <time>2011-01-19 15:04:10Z</time>
      </trkpt>
      <trkpt lat="43.46195" lon="6.76868">
        <ele>54.266808</ele>
        <time>2011-01-19 15:04:14Z</time>
      </trkpt>
      <trkpt lat="43.46195" lon="6.76868">
        <ele>54.266808</ele>
        <time>2011-01-19 15:04:18Z</time>
      </trkpt>
      <trkpt lat="43.46189" lon="6.76857">
        <ele>54.266769</ele>
        <time>2011-01-19 15:04:22Z</time>
      </trkpt>
      <trkpt lat="43.46189" lon="6.76857">
        <ele>54.266769</ele>
        <time>2011-01-19 15:04:26Z</time>
      </trkpt>
      <trkpt lat="43.46189" lon="6.76857">
        <ele>54.266769</ele>
        <time>2011-01-19 15:04:30Z</time>
      </trkpt>
      <trkpt lat="43.46189" lon="6.76857">
        <ele>54.266769</ele>
        <time>2011-01-19 15:04:34Z</time>
      </trkpt>
      <trkpt lat="43.46189" lon="6.76857">
        <ele>54.266769</ele>
        <time>2011-01-19 15:04:38Z</time>
      </trkpt>
      <trkpt lat="43.46175" lon="6.76835">
        <ele>56.266701</ele>
        <time>2011-01-19 15:04:42Z</time>
      </trkpt>
      <trkpt lat="43.46175" lon="6.76835">
        <ele>56.266701</ele>
        <time>2011-01-19 15:04:46Z</time>
      </trkpt>
      <trkpt lat="43.46172" lon="6.76828">
        <ele>56.266678</ele>
        <time>2011-01-19 15:04:50Z</time>
      </trkpt>
      <trkpt lat="43.4617" lon="6.76825">
        <ele>57.266666</ele>
        <time>2011-01-19 15:04:54Z</time>
      </trkpt>
      <trkpt lat="43.4617" lon="6.76825">
        <ele>57.266666</ele>
        <time>2011-01-19 15:04:58Z</time>
      </trkpt>
      <trkpt lat="43.46165" lon="6.76819">
        <ele>57.266647</ele>
        <time>2011-01-19 15:05:02Z</time>
      </trkpt>
      <trkpt lat="43.46165" lon="6.76819">
        <ele>57.266647</ele>
        <time>2011-01-19 15:05:06Z</time>
      </trkpt>
      <trkpt lat="43.46155" lon="6.76818">
        <ele>57.266628</ele>
        <time>2011-01-19 15:05:10Z</time>
      </trkpt>
      <trkpt lat="43.46153" lon="6.76818">
        <ele>56.266617</ele>
        <time>2011-01-19 15:05:14Z</time>
      </trkpt>
      <trkpt lat="43.46153" lon="6.76818">
        <ele>56.266617</ele>
        <time>2011-01-19 15:05:18Z</time>
      </trkpt>
      <trkpt lat="43.46143" lon="6.76821">
        <ele>55.266613</ele>
        <time>2011-01-19 15:05:22Z</time>
      </trkpt>
      <trkpt lat="43.46143" lon="6.7682">
        <ele>56.266613</ele>
        <time>2011-01-19 15:05:26Z</time>
      </trkpt>
      <trkpt lat="43.46142" lon="6.76823">
        <ele>58.266617</ele>
        <time>2011-01-19 15:05:30Z</time>
      </trkpt>
      <trkpt lat="43.46141" lon="6.76824">
        <ele>58.266621</ele>
        <time>2011-01-19 15:05:34Z</time>
      </trkpt>
      <trkpt lat="43.46141" lon="6.76827">
        <ele>60.266624</ele>
        <time>2011-01-19 15:05:38Z</time>
      </trkpt>
      <trkpt lat="43.4614" lon="6.76827">
        <ele>60.266621</ele>
        <time>2011-01-19 15:05:42Z</time>
      </trkpt>
      <trkpt lat="43.46137" lon="6.76826">
        <ele>60.266617</ele>
        <time>2011-01-19 15:05:46Z</time>
      </trkpt>
      <trkpt lat="43.46136" lon="6.76826">
        <ele>60.266617</ele>
        <time>2011-01-19 15:05:50Z</time>
      </trkpt>
      <trkpt lat="43.46136" lon="6.76826">
        <ele>60.266617</ele>
        <time>2011-01-19 15:05:54Z</time>
      </trkpt>
      <trkpt lat="43.46127" lon="6.76831">
        <ele>60.266609</ele>
        <time>2011-01-19 15:05:58Z</time>
      </trkpt>
      <trkpt lat="43.46125" lon="6.76832">
        <ele>60.266609</ele>
        <time>2011-01-19 15:06:02Z</time>
      </trkpt>
      <trkpt lat="43.46125" lon="6.76832">
        <ele>60.266609</ele>
        <time>2011-01-19 15:06:06Z</time>
      </trkpt>
      <trkpt lat="43.46122" lon="6.76835">
        <ele>61.266609</ele>
        <time>2011-01-19 15:06:10Z</time>
      </trkpt>
      <trkpt lat="43.46122" lon="6.76834">
        <ele>62.266609</ele>
        <time>2011-01-19 15:06:14Z</time>
      </trkpt>
      <trkpt lat="43.46121" lon="6.76834">
        <ele>63.266609</ele>
        <time>2011-01-19 15:06:18Z</time>
      </trkpt>
      <trkpt lat="43.46121" lon="6.76834">
        <ele>63.266609</ele>
        <time>2011-01-19 15:06:22Z</time>
      </trkpt>
      <trkpt lat="43.46116" lon="6.76836">
        <ele>63.266605</ele>
        <time>2011-01-19 15:06:26Z</time>
      </trkpt>
      <trkpt lat="43.46113" lon="6.76836">
        <ele>63.266602</ele>
        <time>2011-01-19 15:06:30Z</time>
      </trkpt>
      <trkpt lat="43.46112" lon="6.76837">
        <ele>63.266602</ele>
        <time>2011-01-19 15:06:34Z</time>
      </trkpt>
      <trkpt lat="43.46112" lon="6.76837">
        <ele>63.266602</ele>
        <time>2011-01-19 15:06:38Z</time>
      </trkpt>
      <trkpt lat="43.46112" lon="6.76837">
        <ele>63.266602</ele>
        <time>2011-01-19 15:06:42Z</time>
      </trkpt>
      <trkpt lat="43.46109" lon="6.76837">
        <ele>61.266594</ele>
        <time>2011-01-19 15:06:46Z</time>
      </trkpt>
      <trkpt lat="43.46107" lon="6.76837">
        <ele>60.266594</ele>
        <time>2011-01-19 15:06:50Z</time>
      </trkpt>
      <trkpt lat="43.46106" lon="6.76837">
        <ele>59.266594</ele>
        <time>2011-01-19 15:06:54Z</time>
      </trkpt>
      <trkpt lat="43.46106" lon="6.76837">
        <ele>59.266594</ele>
        <time>2011-01-19 15:06:58Z</time>
      </trkpt>
      <trkpt lat="43.46105" lon="6.76842">
        <ele>58.266602</ele>
        <time>2011-01-19 15:07:02Z</time>
      </trkpt>
      <trkpt lat="43.46105" lon="6.76842">
        <ele>58.266602</ele>
        <time>2011-01-19 15:07:06Z</time>
      </trkpt>
      <trkpt lat="43.46103" lon="6.76843">
        <ele>58.266602</ele>
        <time>2011-01-19 15:07:10Z</time>
      </trkpt>
      <trkpt lat="43.46103" lon="6.76843">
        <ele>58.266602</ele>
        <time>2011-01-19 15:07:14Z</time>
      </trkpt>
      <trkpt lat="43.461" lon="6.76844">
        <ele>58.266594</ele>
        <time>2011-01-19 15:07:18Z</time>
      </trkpt>
      <trkpt lat="43.46095" lon="6.76846">
        <ele>58.266594</ele>
        <time>2011-01-19 15:07:22Z</time>
      </trkpt>
      <trkpt lat="43.46092" lon="6.76848">
        <ele>58.26659</ele>
        <time>2011-01-19 15:07:26Z</time>
      </trkpt>
      <trkpt lat="43.46092" lon="6.76848">
        <ele>58.26659</ele>
        <time>2011-01-19 15:07:30Z</time>
      </trkpt>
      <trkpt lat="43.46081" lon="6.76857">
        <ele>57.266598</ele>
        <time>2011-01-19 15:07:34Z</time>
      </trkpt>
      <trkpt lat="43.46077" lon="6.7686">
        <ele>56.266602</ele>
        <time>2011-01-19 15:07:38Z</time>
      </trkpt>
      <trkpt lat="43.46073" lon="6.76865">
        <ele>55.266602</ele>
        <time>2011-01-19 15:07:42Z</time>
      </trkpt>
      <trkpt lat="43.4607" lon="6.76867">
        <ele>55.266602</ele>
        <time>2011-01-19 15:07:46Z</time>
      </trkpt>
      <trkpt lat="43.46064" lon="6.76872">
        <ele>55.266602</ele>
        <time>2011-01-19 15:07:50Z</time>
      </trkpt>
      <trkpt lat="43.46062" lon="6.76873">
        <ele>54.266602</ele>
        <time>2011-01-19 15:07:54Z</time>
      </trkpt>
      <trkpt lat="43.46059" lon="6.76876">
        <ele>53.266602</ele>
        <time>2011-01-19 15:07:58Z</time>
      </trkpt>
      <trkpt lat="43.46059" lon="6.76876">
        <ele>53.266602</ele>
        <time>2011-01-19 15:08:02Z</time>
      </trkpt>
      <trkpt lat="43.46059" lon="6.76876">
        <ele>53.266602</ele>
        <time>2011-01-19 15:08:06Z</time>
      </trkpt>
      <trkpt lat="43.46053" lon="6.76882">
        <ele>53.266605</ele>
        <time>2011-01-19 15:08:10Z</time>
      </trkpt>
      <trkpt lat="43.46049" lon="6.76885">
        <ele>52.266605</ele>
        <time>2011-01-19 15:08:14Z</time>
      </trkpt>
      <trkpt lat="43.46048" lon="6.76886">
        <ele>52.266609</ele>
        <time>2011-01-19 15:08:18Z</time>
      </trkpt>
      <trkpt lat="43.46042" lon="6.76895">
        <ele>52.266617</ele>
        <time>2011-01-19 15:08:22Z</time>
      </trkpt>
      <trkpt lat="43.46038" lon="6.76902">
        <ele>52.266624</ele>
        <time>2011-01-19 15:08:26Z</time>
      </trkpt>
      <trkpt lat="43.46035" lon="6.76909">
        <ele>52.26664</ele>
        <time>2011-01-19 15:08:30Z</time>
      </trkpt>
      <trkpt lat="43.46034" lon="6.76912">
        <ele>53.266647</ele>
        <time>2011-01-19 15:08:34Z</time>
      </trkpt>
      <trkpt lat="43.46031" lon="6.7692">
        <ele>53.266655</ele>
        <time>2011-01-19 15:08:38Z</time>
      </trkpt>
      <trkpt lat="43.46029" lon="6.76927">
        <ele>53.26667</ele>
        <time>2011-01-19 15:08:42Z</time>
      </trkpt>
      <trkpt lat="43.46027" lon="6.76931">
        <ele>53.266678</ele>
        <time>2011-01-19 15:08:46Z</time>
      </trkpt>
      <trkpt lat="43.46026" lon="6.76933">
        <ele>53.266682</ele>
        <time>2011-01-19 15:08:50Z</time>
      </trkpt>
      <trkpt lat="43.46026" lon="6.76933">
        <ele>53.266682</ele>
        <time>2011-01-19 15:08:54Z</time>
      </trkpt>
      <trkpt lat="43.46026" lon="6.76933">
        <ele>53.266682</ele>
        <time>2011-01-19 15:08:58Z</time>
      </trkpt>
      <trkpt lat="43.46018" lon="6.76942">
        <ele>55.266685</ele>
        <time>2011-01-19 15:09:02Z</time>
      </trkpt>
      <trkpt lat="43.46015" lon="6.76945">
        <ele>55.266689</ele>
        <time>2011-01-19 15:09:06Z</time>
      </trkpt>
      <trkpt lat="43.46011" lon="6.76949">
        <ele>55.266689</ele>
        <time>2011-01-19 15:09:10Z</time>
      </trkpt>
      <trkpt lat="43.46011" lon="6.76949">
        <ele>55.266689</ele>
        <time>2011-01-19 15:09:14Z</time>
      </trkpt>
      <trkpt lat="43.46004" lon="6.76954">
        <ele>55.266693</ele>
        <time>2011-01-19 15:09:18Z</time>
      </trkpt>
      <trkpt lat="43.46003" lon="6.76955">
        <ele>55.266693</ele>
        <time>2011-01-19 15:09:22Z</time>
      </trkpt>
      <trkpt lat="43.45997" lon="6.76962">
        <ele>54.266701</ele>
        <time>2011-01-19 15:09:26Z</time>
      </trkpt>
      <trkpt lat="43.45997" lon="6.76962">
        <ele>54.266701</ele>
        <time>2011-01-19 15:09:30Z</time>
      </trkpt>
      <trkpt lat="43.45997" lon="6.76962">
        <ele>54.266701</ele>
        <time>2011-01-19 15:09:34Z</time>
      </trkpt>
      <trkpt lat="43.45985" lon="6.76972">
        <ele>53.266701</ele>
        <time>2011-01-19 15:09:38Z</time>
      </trkpt>
      <trkpt lat="43.45985" lon="6.76972">
        <ele>53.266701</ele>
        <time>2011-01-19 15:09:42Z</time>
      </trkpt>
      <trkpt lat="43.45978" lon="6.76978">
        <ele>52.266705</ele>
        <time>2011-01-19 15:09:46Z</time>
      </trkpt>
      <trkpt lat="43.45973" lon="6.76982">
        <ele>51.266701</ele>
        <time>2011-01-19 15:09:50Z</time>
      </trkpt>
      <trkpt lat="43.45967" lon="6.76985">
        <ele>51.266701</ele>
        <time>2011-01-19 15:09:54Z</time>
      </trkpt>
      <trkpt lat="43.45965" lon="6.76986">
        <ele>52.266701</ele>
        <time>2011-01-19 15:09:58Z</time>
      </trkpt>
      <trkpt lat="43.45956" lon="6.76992">
        <ele>52.266701</ele>
        <time>2011-01-19 15:10:02Z</time>
      </trkpt>
      <trkpt lat="43.45951" lon="6.76994">
        <ele>52.266697</ele>
        <time>2011-01-19 15:10:06Z</time>
      </trkpt>
      <trkpt lat="43.45947" lon="6.76995">
        <ele>52.266693</ele>
        <time>2011-01-19 15:10:10Z</time>
      </trkpt>
      <trkpt lat="43.45944" lon="6.76996">
        <ele>53.266693</ele>
        <time>2011-01-19 15:10:14Z</time>
      </trkpt>
      <trkpt lat="43.45938" lon="6.76999">
        <ele>51.266689</ele>
        <time>2011-01-19 15:10:18Z</time>
      </trkpt>
      <trkpt lat="43.45932" lon="6.77001">
        <ele>47.266685</ele>
        <time>2011-01-19 15:10:22Z</time>
      </trkpt>
      <trkpt lat="43.45927" lon="6.77002">
        <ele>46.266674</ele>
        <time>2011-01-19 15:10:26Z</time>
      </trkpt>
      <trkpt lat="43.45925" lon="6.77002">
        <ele>45.266674</ele>
        <time>2011-01-19 15:10:30Z</time>
      </trkpt>
      <trkpt lat="43.45925" lon="6.77002">
        <ele>45.266674</ele>
        <time>2011-01-19 15:10:34Z</time>
      </trkpt>
      <trkpt lat="43.45916" lon="6.76999">
        <ele>43.266651</ele>
        <time>2011-01-19 15:10:38Z</time>
      </trkpt>
      <trkpt lat="43.45914" lon="6.76999">
        <ele>42.266651</ele>
        <time>2011-01-19 15:10:42Z</time>
      </trkpt>
      <trkpt lat="43.45911" lon="6.77">
        <ele>41.266647</ele>
        <time>2011-01-19 15:10:46Z</time>
      </trkpt>
      <trkpt lat="43.45911" lon="6.77">
        <ele>42.266647</ele>
        <time>2011-01-19 15:10:50Z</time>
      </trkpt>
      <trkpt lat="43.45911" lon="6.77">
        <ele>42.266647</ele>
        <time>2011-01-19 15:10:54Z</time>
      </trkpt>
      <trkpt lat="43.45905" lon="6.77">
        <ele>39.266636</ele>
        <time>2011-01-19 15:10:58Z</time>
      </trkpt>
      <trkpt lat="43.459" lon="6.77">
        <ele>39.266632</ele>
        <time>2011-01-19 15:11:02Z</time>
      </trkpt>
      <trkpt lat="43.45899" lon="6.77">
        <ele>39.266624</ele>
        <time>2011-01-19 15:11:06Z</time>
      </trkpt>
      <trkpt lat="43.45889" lon="6.77001">
        <ele>38.266613</ele>
        <time>2011-01-19 15:11:10Z</time>
      </trkpt>
      <trkpt lat="43.4588" lon="6.77002">
        <ele>38.266602</ele>
        <time>2011-01-19 15:11:14Z</time>
      </trkpt>
      <trkpt lat="43.45876" lon="6.77002">
        <ele>38.266594</ele>
        <time>2011-01-19 15:11:18Z</time>
      </trkpt>
      <trkpt lat="43.45867" lon="6.77003">
        <ele>39.266579</ele>
        <time>2011-01-19 15:11:22Z</time>
      </trkpt>
      <trkpt lat="43.45861" lon="6.77004">
        <ele>39.266575</ele>
        <time>2011-01-19 15:11:26Z</time>
      </trkpt>
      <trkpt lat="43.4586" lon="6.77004">
        <ele>39.266571</ele>
        <time>2011-01-19 15:11:30Z</time>
      </trkpt>
      <trkpt lat="43.45852" lon="6.77006">
        <ele>40.266563</ele>
        <time>2011-01-19 15:11:34Z</time>
      </trkpt>
      <trkpt lat="43.45847" lon="6.77007">
        <ele>41.266556</ele>
        <time>2011-01-19 15:11:38Z</time>
      </trkpt>
      <trkpt lat="43.45842" lon="6.77007">
        <ele>42.266552</ele>
        <time>2011-01-19 15:11:42Z</time>
      </trkpt>
      <trkpt lat="43.45839" lon="6.77006">
        <ele>42.266541</ele>
        <time>2011-01-19 15:11:46Z</time>
      </trkpt>
      <trkpt lat="43.45833" lon="6.77003">
        <ele>42.266529</ele>
        <time>2011-01-19 15:11:50Z</time>
      </trkpt>
      <trkpt lat="43.4583" lon="6.77">
        <ele>42.266514</ele>
        <time>2011-01-19 15:11:54Z</time>
      </trkpt>
      <trkpt lat="43.45827" lon="6.76997">
        <ele>42.266502</ele>
        <time>2011-01-19 15:11:58Z</time>
      </trkpt>
      <trkpt lat="43.45824" lon="6.76993">
        <ele>43.266487</ele>
        <time>2011-01-19 15:12:02Z</time>
      </trkpt>
      <trkpt lat="43.45821" lon="6.7699">
        <ele>42.266479</ele>
        <time>2011-01-19 15:12:06Z</time>
      </trkpt>
      <trkpt lat="43.45818" lon="6.76985">
        <ele>43.26646</ele>
        <time>2011-01-19 15:12:10Z</time>
      </trkpt>
      <trkpt lat="43.45816" lon="6.76983">
        <ele>43.266457</ele>
        <time>2011-01-19 15:12:14Z</time>
      </trkpt>
      <trkpt lat="43.45814" lon="6.76976">
        <ele>44.266434</ele>
        <time>2011-01-19 15:12:18Z</time>
      </trkpt>
      <trkpt lat="43.45812" lon="6.76973">
        <ele>44.266426</ele>
        <time>2011-01-19 15:12:22Z</time>
      </trkpt>
      <trkpt lat="43.45808" lon="6.76969">
        <ele>45.266411</ele>
        <time>2011-01-19 15:12:26Z</time>
      </trkpt>
      <trkpt lat="43.45804" lon="6.76964">
        <ele>46.266388</ele>
        <time>2011-01-19 15:12:30Z</time>
      </trkpt>
      <trkpt lat="43.45801" lon="6.7696">
        <ele>47.266376</ele>
        <time>2011-01-19 15:12:34Z</time>
      </trkpt>
      <trkpt lat="43.45797" lon="6.76956">
        <ele>47.266365</ele>
        <time>2011-01-19 15:12:38Z</time>
      </trkpt>
      <trkpt lat="43.45797" lon="6.76955">
        <ele>47.266357</ele>
        <time>2011-01-19 15:12:42Z</time>
      </trkpt>
      <trkpt lat="43.45794" lon="6.76951">
        <ele>47.266342</ele>
        <time>2011-01-19 15:12:46Z</time>
      </trkpt>
      <trkpt lat="43.45792" lon="6.76946">
        <ele>47.266335</ele>
        <time>2011-01-19 15:12:50Z</time>
      </trkpt>
      <trkpt lat="43.45791" lon="6.76945">
        <ele>47.266327</ele>
        <time>2011-01-19 15:12:54Z</time>
      </trkpt>
      <trkpt lat="43.45788" lon="6.76937">
        <ele>46.266304</ele>
        <time>2011-01-19 15:12:58Z</time>
      </trkpt>
      <trkpt lat="43.45786" lon="6.76932">
        <ele>46.266289</ele>
        <time>2011-01-19 15:13:02Z</time>
      </trkpt>
      <trkpt lat="43.45784" lon="6.76929">
        <ele>46.266281</ele>
        <time>2011-01-19 15:13:06Z</time>
      </trkpt>
      <trkpt lat="43.45782" lon="6.7692">
        <ele>46.266258</ele>
        <time>2011-01-19 15:13:10Z</time>
      </trkpt>
      <trkpt lat="43.4578" lon="6.76913">
        <ele>46.266235</ele>
        <time>2011-01-19 15:13:14Z</time>
      </trkpt>
      <trkpt lat="43.4578" lon="6.7691">
        <ele>46.266228</ele>
        <time>2011-01-19 15:13:18Z</time>
      </trkpt>
      <trkpt lat="43.45778" lon="6.76898">
        <ele>48.266197</ele>
        <time>2011-01-19 15:13:22Z</time>
      </trkpt>
      <trkpt lat="43.45778" lon="6.76891">
        <ele>48.266186</ele>
        <time>2011-01-19 15:13:26Z</time>
      </trkpt>
      <trkpt lat="43.45777" lon="6.76886">
        <ele>49.266167</ele>
        <time>2011-01-19 15:13:30Z</time>
      </trkpt>
      <trkpt lat="43.45776" lon="6.7688">
        <ele>49.266155</ele>
        <time>2011-01-19 15:13:34Z</time>
      </trkpt>
      <trkpt lat="43.45776" lon="6.76877">
        <ele>48.266144</ele>
        <time>2011-01-19 15:13:38Z</time>
      </trkpt>
      <trkpt lat="43.45776" lon="6.76877">
        <ele>48.266144</ele>
        <time>2011-01-19 15:13:42Z</time>
      </trkpt>
      <trkpt lat="43.45778" lon="6.76864">
        <ele>48.266121</ele>
        <time>2011-01-19 15:13:46Z</time>
      </trkpt>
      <trkpt lat="43.45781" lon="6.76854">
        <ele>48.266098</ele>
        <time>2011-01-19 15:13:50Z</time>
      </trkpt>
      <trkpt lat="43.45781" lon="6.76854">
        <ele>48.266098</ele>
        <time>2011-01-19 15:13:54Z</time>
      </trkpt>
      <trkpt lat="43.45785" lon="6.76842">
        <ele>48.266083</ele>
        <time>2011-01-19 15:13:58Z</time>
      </trkpt>
      <trkpt lat="43.45785" lon="6.76842">
        <ele>48.266083</ele>
        <time>2011-01-19 15:14:02Z</time>
      </trkpt>
      <trkpt lat="43.45785" lon="6.76842">
        <ele>48.266083</ele>
        <time>2011-01-19 15:14:06Z</time>
      </trkpt>
      <trkpt lat="43.45785" lon="6.76842">
        <ele>48.266083</ele>
        <time>2011-01-19 15:14:10Z</time>
      </trkpt>
      <trkpt lat="43.45785" lon="6.76842">
        <ele>48.266083</ele>
        <time>2011-01-19 15:14:14Z</time>
      </trkpt>
      <trkpt lat="43.45785" lon="6.76842">
        <ele>48.266083</ele>
        <time>2011-01-19 15:14:18Z</time>
      </trkpt>
      <trkpt lat="43.45785" lon="6.76842">
        <ele>48.266083</ele>
        <time>2011-01-19 15:14:22Z</time>
      </trkpt>
      <trkpt lat="43.45785" lon="6.76842">
        <ele>48.266083</ele>
        <time>2011-01-19 15:14:26Z</time>
      </trkpt>
      <trkpt lat="43.45785" lon="6.76842">
        <ele>48.266083</ele>
        <time>2011-01-19 15:14:30Z</time>
      </trkpt>
      <trkpt lat="43.45785" lon="6.76842">
        <ele>48.266083</ele>
        <time>2011-01-19 15:14:34Z</time>
      </trkpt>
      <trkpt lat="43.458" lon="6.7681">
        <ele>47.266037</ele>
        <time>2011-01-19 15:14:38Z</time>
      </trkpt>
      <trkpt lat="43.458" lon="6.7681">
        <ele>47.266037</ele>
        <time>2011-01-19 15:14:42Z</time>
      </trkpt>
      <trkpt lat="43.458" lon="6.7681">
        <ele>47.266037</ele>
        <time>2011-01-19 15:14:46Z</time>
      </trkpt>
      <trkpt lat="43.458" lon="6.7681">
        <ele>47.266037</ele>
        <time>2011-01-19 15:14:50Z</time>
      </trkpt>
      <trkpt lat="43.458" lon="6.7681">
        <ele>47.266037</ele>
        <time>2011-01-19 15:14:54Z</time>
      </trkpt>
      <trkpt lat="43.458" lon="6.7681">
        <ele>47.266037</ele>
        <time>2011-01-19 15:14:58Z</time>
      </trkpt>
      <trkpt lat="43.458" lon="6.7681">
        <ele>47.266037</ele>
        <time>2011-01-19 15:15:02Z</time>
      </trkpt>
      <trkpt lat="43.458" lon="6.7681">
        <ele>47.266037</ele>
        <time>2011-01-19 15:15:06Z</time>
      </trkpt>
      <trkpt lat="43.45812" lon="6.76774">
        <ele>47.265976</ele>
        <time>2011-01-19 15:15:10Z</time>
      </trkpt>
      <trkpt lat="43.45812" lon="6.76774">
        <ele>47.265976</ele>
        <time>2011-01-19 15:15:14Z</time>
      </trkpt>
      <trkpt lat="43.45812" lon="6.76774">
        <ele>47.265976</ele>
        <time>2011-01-19 15:15:18Z</time>
      </trkpt>
      <trkpt lat="43.45816" lon="6.76755">
        <ele>44.265938</ele>
        <time>2011-01-19 15:15:22Z</time>
      </trkpt>
      <trkpt lat="43.45816" lon="6.76755">
        <ele>44.265938</ele>
        <time>2011-01-19 15:15:26Z</time>
      </trkpt>
      <trkpt lat="43.45821" lon="6.76737">
        <ele>41.2659</ele>
        <time>2011-01-19 15:15:30Z</time>
      </trkpt>
      <trkpt lat="43.45822" lon="6.76733">
        <ele>41.265896</ele>
        <time>2011-01-19 15:15:34Z</time>
      </trkpt>
      <trkpt lat="43.45822" lon="6.76733">
        <ele>41.265896</ele>
        <time>2011-01-19 15:15:38Z</time>
      </trkpt>
      <trkpt lat="43.45826" lon="6.76717">
        <ele>43.265869</ele>
        <time>2011-01-19 15:15:42Z</time>
      </trkpt>
      <trkpt lat="43.45826" lon="6.76717">
        <ele>43.265869</ele>
        <time>2011-01-19 15:15:46Z</time>
      </trkpt>
      <trkpt lat="43.45828" lon="6.76704">
        <ele>42.265839</ele>
        <time>2011-01-19 15:15:50Z</time>
      </trkpt>
      <trkpt lat="43.45829" lon="6.76699">
        <ele>42.265831</ele>
        <time>2011-01-19 15:15:54Z</time>
      </trkpt>
      <trkpt lat="43.4583" lon="6.76698">
        <ele>43.265831</ele>
        <time>2011-01-19 15:15:58Z</time>
      </trkpt>
      <trkpt lat="43.4583" lon="6.76698">
        <ele>43.265831</ele>
        <time>2011-01-19 15:16:02Z</time>
      </trkpt>
      <trkpt lat="43.45833" lon="6.76683">
        <ele>38.2658</ele>
        <time>2011-01-19 15:16:06Z</time>
      </trkpt>
      <trkpt lat="43.45834" lon="6.7668">
        <ele>37.265793</ele>
        <time>2011-01-19 15:16:10Z</time>
      </trkpt>
      <trkpt lat="43.45834" lon="6.7668">
        <ele>37.265793</ele>
        <time>2011-01-19 15:16:14Z</time>
      </trkpt>
      <trkpt lat="43.45836" lon="6.76665">
        <ele>36.265762</ele>
        <time>2011-01-19 15:16:18Z</time>
      </trkpt>
      <trkpt lat="43.45836" lon="6.76665">
        <ele>36.265762</ele>
        <time>2011-01-19 15:16:22Z</time>
      </trkpt>
      <trkpt lat="43.45839" lon="6.76652">
        <ele>37.265739</ele>
        <time>2011-01-19 15:16:26Z</time>
      </trkpt>
      <trkpt lat="43.45839" lon="6.76652">
        <ele>37.265739</ele>
        <time>2011-01-19 15:16:30Z</time>
      </trkpt>
      <trkpt lat="43.4584" lon="6.76639">
        <ele>36.265717</ele>
        <time>2011-01-19 15:16:34Z</time>
      </trkpt>
      <trkpt lat="43.4584" lon="6.76639">
        <ele>36.265717</ele>
        <time>2011-01-19 15:16:38Z</time>
      </trkpt>
      <trkpt lat="43.4584" lon="6.76625">
        <ele>36.265682</ele>
        <time>2011-01-19 15:16:42Z</time>
      </trkpt>
      <trkpt lat="43.45839" lon="6.7662">
        <ele>36.265667</ele>
        <time>2011-01-19 15:16:46Z</time>
      </trkpt>
      <trkpt lat="43.45839" lon="6.7662">
        <ele>36.265667</ele>
        <time>2011-01-19 15:16:50Z</time>
      </trkpt>
      <trkpt lat="43.45837" lon="6.76608">
        <ele>36.265633</ele>
        <time>2011-01-19 15:16:54Z</time>
      </trkpt>
      <trkpt lat="43.45837" lon="6.76603">
        <ele>36.265625</ele>
        <time>2011-01-19 15:16:58Z</time>
      </trkpt>
      <trkpt lat="43.45837" lon="6.766">
        <ele>35.265617</ele>
        <time>2011-01-19 15:17:02Z</time>
      </trkpt>
      <trkpt lat="43.45836" lon="6.7659">
        <ele>35.265594</ele>
        <time>2011-01-19 15:17:06Z</time>
      </trkpt>
      <trkpt lat="43.45834" lon="6.76583">
        <ele>36.265572</ele>
        <time>2011-01-19 15:17:10Z</time>
      </trkpt>
      <trkpt lat="43.45834" lon="6.76581">
        <ele>36.265572</ele>
        <time>2011-01-19 15:17:14Z</time>
      </trkpt>
      <trkpt lat="43.45832" lon="6.76571">
        <ele>36.265545</ele>
        <time>2011-01-19 15:17:18Z</time>
      </trkpt>
      <trkpt lat="43.45832" lon="6.76571">
        <ele>36.265545</ele>
        <time>2011-01-19 15:17:22Z</time>
      </trkpt>
      <trkpt lat="43.4583" lon="6.76565">
        <ele>37.26553</ele>
        <time>2011-01-19 15:17:26Z</time>
      </trkpt>
      <trkpt lat="43.45828" lon="6.76559">
        <ele>38.265511</ele>
        <time>2011-01-19 15:17:30Z</time>
      </trkpt>
      <trkpt lat="43.45828" lon="6.76559">
        <ele>38.265511</ele>
        <time>2011-01-19 15:17:34Z</time>
      </trkpt>
      <trkpt lat="43.45826" lon="6.76547">
        <ele>39.26548</ele>
        <time>2011-01-19 15:17:38Z</time>
      </trkpt>
      <trkpt lat="43.45826" lon="6.76541">
        <ele>37.265465</ele>
        <time>2011-01-19 15:17:42Z</time>
      </trkpt>
      <trkpt lat="43.45824" lon="6.76534">
        <ele>37.26545</ele>
        <time>2011-01-19 15:17:46Z</time>
      </trkpt>
      <trkpt lat="43.45824" lon="6.76533">
        <ele>37.265442</ele>
        <time>2011-01-19 15:17:50Z</time>
      </trkpt>
      <trkpt lat="43.45824" lon="6.76533">
        <ele>37.265442</ele>
        <time>2011-01-19 15:17:54Z</time>
      </trkpt>
      <trkpt lat="43.45821" lon="6.7652">
        <ele>36.265411</ele>
        <time>2011-01-19 15:17:58Z</time>
      </trkpt>
      <trkpt lat="43.4582" lon="6.76511">
        <ele>36.265388</ele>
        <time>2011-01-19 15:18:02Z</time>
      </trkpt>
      <trkpt lat="43.4582" lon="6.76511">
        <ele>36.265388</ele>
        <time>2011-01-19 15:18:06Z</time>
      </trkpt>
      <trkpt lat="43.45819" lon="6.76499">
        <ele>36.265358</ele>
        <time>2011-01-19 15:18:10Z</time>
      </trkpt>
      <trkpt lat="43.45819" lon="6.76499">
        <ele>36.265358</ele>
        <time>2011-01-19 15:18:14Z</time>
      </trkpt>
      <trkpt lat="43.45819" lon="6.76486">
        <ele>36.265335</ele>
        <time>2011-01-19 15:18:18Z</time>
      </trkpt>
      <trkpt lat="43.4582" lon="6.76481">
        <ele>37.26532</ele>
        <time>2011-01-19 15:18:22Z</time>
      </trkpt>
      <trkpt lat="43.4582" lon="6.76481">
        <ele>37.26532</ele>
        <time>2011-01-19 15:18:26Z</time>
      </trkpt>
      <trkpt lat="43.45821" lon="6.76468">
        <ele>36.265293</ele>
        <time>2011-01-19 15:18:30Z</time>
      </trkpt>
      <trkpt lat="43.45821" lon="6.76457">
        <ele>35.265266</ele>
        <time>2011-01-19 15:18:34Z</time>
      </trkpt>
      <trkpt lat="43.45821" lon="6.76449">
        <ele>35.265251</ele>
        <time>2011-01-19 15:18:38Z</time>
      </trkpt>
      <trkpt lat="43.45821" lon="6.76449">
        <ele>35.265251</ele>
        <time>2011-01-19 15:18:42Z</time>
      </trkpt>
      <trkpt lat="43.45818" lon="6.76438">
        <ele>36.265221</ele>
        <time>2011-01-19 15:18:46Z</time>
      </trkpt>
      <trkpt lat="43.45818" lon="6.7643">
        <ele>37.265202</ele>
        <time>2011-01-19 15:18:50Z</time>
      </trkpt>
      <trkpt lat="43.45818" lon="6.7643">
        <ele>37.265202</ele>
        <time>2011-01-19 15:18:54Z</time>
      </trkpt>
      <trkpt lat="43.45819" lon="6.76417">
        <ele>37.265175</ele>
        <time>2011-01-19 15:18:58Z</time>
      </trkpt>
      <trkpt lat="43.4582" lon="6.7641">
        <ele>37.265156</ele>
        <time>2011-01-19 15:19:02Z</time>
      </trkpt>
      <trkpt lat="43.4582" lon="6.76405">
        <ele>37.265152</ele>
        <time>2011-01-19 15:19:06Z</time>
      </trkpt>
      <trkpt lat="43.4582" lon="6.76401">
        <ele>36.265141</ele>
        <time>2011-01-19 15:19:10Z</time>
      </trkpt>
      <trkpt lat="43.45819" lon="6.76398">
        <ele>35.265129</ele>
        <time>2011-01-19 15:19:14Z</time>
      </trkpt>
      <trkpt lat="43.45817" lon="6.76396">
        <ele>34.265121</ele>
        <time>2011-01-19 15:19:18Z</time>
      </trkpt>
      <trkpt lat="43.45814" lon="6.76393">
        <ele>33.265114</ele>
        <time>2011-01-19 15:19:22Z</time>
      </trkpt>
      <trkpt lat="43.45811" lon="6.76391">
        <ele>34.265102</ele>
        <time>2011-01-19 15:19:26Z</time>
      </trkpt>
      <trkpt lat="43.45811" lon="6.76387">
        <ele>35.265091</ele>
        <time>2011-01-19 15:19:30Z</time>
      </trkpt>
      <trkpt lat="43.45809" lon="6.76385">
        <ele>34.265087</ele>
        <time>2011-01-19 15:19:34Z</time>
      </trkpt>
      <trkpt lat="43.45809" lon="6.76385">
        <ele>34.265087</ele>
        <time>2011-01-19 15:19:38Z</time>
      </trkpt>
      <trkpt lat="43.45809" lon="6.76385">
        <ele>34.265087</ele>
        <time>2011-01-19 15:19:42Z</time>
      </trkpt>
      <trkpt lat="43.45809" lon="6.76385">
        <ele>34.265087</ele>
        <time>2011-01-19 15:19:46Z</time>
      </trkpt>
      <trkpt lat="43.45809" lon="6.76385">
        <ele>34.265087</ele>
        <time>2011-01-19 15:19:50Z</time>
      </trkpt>
      <trkpt lat="43.45809" lon="6.76385">
        <ele>34.265087</ele>
        <time>2011-01-19 15:19:54Z</time>
      </trkpt>
      <trkpt lat="43.45809" lon="6.76385">
        <ele>34.265087</ele>
        <time>2011-01-19 15:19:58Z</time>
      </trkpt>
      <trkpt lat="43.45809" lon="6.76385">
        <ele>34.265087</ele>
        <time>2011-01-19 15:20:02Z</time>
      </trkpt>
      <trkpt lat="43.45809" lon="6.76385">
        <ele>34.265087</ele>
        <time>2011-01-19 15:20:06Z</time>
      </trkpt>
      <trkpt lat="43.45809" lon="6.76385">
        <ele>34.265087</ele>
        <time>2011-01-19 15:20:10Z</time>
      </trkpt>
      <trkpt lat="43.45809" lon="6.76385">
        <ele>34.265087</ele>
        <time>2011-01-19 15:20:14Z</time>
      </trkpt>
      <trkpt lat="43.45809" lon="6.76385">
        <ele>34.265087</ele>
        <time>2011-01-19 15:20:18Z</time>
      </trkpt>
      <trkpt lat="43.45804" lon="6.76382">
        <ele>33.265068</ele>
        <time>2011-01-19 15:20:22Z</time>
      </trkpt>
      <trkpt lat="43.45801" lon="6.76377">
        <ele>34.265057</ele>
        <time>2011-01-19 15:20:26Z</time>
      </trkpt>
      <trkpt lat="43.45797" lon="6.76374">
        <ele>34.265038</ele>
        <time>2011-01-19 15:20:30Z</time>
      </trkpt>
      <trkpt lat="43.45793" lon="6.7637">
        <ele>34.265022</ele>
        <time>2011-01-19 15:20:34Z</time>
      </trkpt>
      <trkpt lat="43.4579" lon="6.76367">
        <ele>33.265011</ele>
        <time>2011-01-19 15:20:38Z</time>
      </trkpt>
      <trkpt lat="43.45788" lon="6.76365">
        <ele>33.265003</ele>
        <time>2011-01-19 15:20:42Z</time>
      </trkpt>
      <trkpt lat="43.45784" lon="6.76362">
        <ele>33.264992</ele>
        <time>2011-01-19 15:20:46Z</time>
      </trkpt>
      <trkpt lat="43.45783" lon="6.76361">
        <ele>33.264988</ele>
        <time>2011-01-19 15:20:50Z</time>
      </trkpt>
      <trkpt lat="43.45783" lon="6.76361">
        <ele>33.264988</ele>
        <time>2011-01-19 15:20:54Z</time>
      </trkpt>
      <trkpt lat="43.45783" lon="6.76361">
        <ele>33.264988</ele>
        <time>2011-01-19 15:20:58Z</time>
      </trkpt>
      <trkpt lat="43.45783" lon="6.76361">
        <ele>33.264988</ele>
        <time>2011-01-19 15:21:02Z</time>
      </trkpt>
      <trkpt lat="43.45783" lon="6.76361">
        <ele>33.264988</ele>
        <time>2011-01-19 15:21:06Z</time>
      </trkpt>
      <trkpt lat="43.45778" lon="6.7636">
        <ele>33.264977</ele>
        <time>2011-01-19 15:21:10Z</time>
      </trkpt>
      <trkpt lat="43.45775" lon="6.76356">
        <ele>33.264969</ele>
        <time>2011-01-19 15:21:14Z</time>
      </trkpt>
      <trkpt lat="43.45772" lon="6.76352">
        <ele>34.264946</ele>
        <time>2011-01-19 15:21:18Z</time>
      </trkpt>
      <trkpt lat="43.45769" lon="6.76348">
        <ele>33.264935</ele>
        <time>2011-01-19 15:21:22Z</time>
      </trkpt>
      <trkpt lat="43.45766" lon="6.76343">
        <ele>34.264923</ele>
        <time>2011-01-19 15:21:26Z</time>
      </trkpt>
      <trkpt lat="43.45763" lon="6.76338">
        <ele>35.264908</ele>
        <time>2011-01-19 15:21:30Z</time>
      </trkpt>
      <trkpt lat="43.45762" lon="6.76333">
        <ele>35.264889</ele>
        <time>2011-01-19 15:21:34Z</time>
      </trkpt>
      <trkpt lat="43.45759" lon="6.76329">
        <ele>35.264877</ele>
        <time>2011-01-19 15:21:38Z</time>
      </trkpt>
      <trkpt lat="43.45755" lon="6.76325">
        <ele>36.264862</ele>
        <time>2011-01-19 15:21:42Z</time>
      </trkpt>
      <trkpt lat="43.45752" lon="6.76322">
        <ele>37.264847</ele>
        <time>2011-01-19 15:21:46Z</time>
      </trkpt>
      <trkpt lat="43.45749" lon="6.76318">
        <ele>37.264832</ele>
        <time>2011-01-19 15:21:50Z</time>
      </trkpt>
      <trkpt lat="43.45746" lon="6.76314">
        <ele>37.264824</ele>
        <time>2011-01-19 15:21:54Z</time>
      </trkpt>
      <trkpt lat="43.45743" lon="6.76311">
        <ele>37.264812</ele>
        <time>2011-01-19 15:21:58Z</time>
      </trkpt>
      <trkpt lat="43.4574" lon="6.76308">
        <ele>37.264793</ele>
        <time>2011-01-19 15:22:02Z</time>
      </trkpt>
      <trkpt lat="43.45738" lon="6.76306">
        <ele>37.26479</ele>
        <time>2011-01-19 15:22:06Z</time>
      </trkpt>
      <trkpt lat="43.45738" lon="6.76306">
        <ele>37.26479</ele>
        <time>2011-01-19 15:22:10Z</time>
      </trkpt>
      <trkpt lat="43.45738" lon="6.76306">
        <ele>37.26479</ele>
        <time>2011-01-19 15:22:14Z</time>
      </trkpt>
      <trkpt lat="43.4573" lon="6.76297">
        <ele>37.264755</ele>
        <time>2011-01-19 15:22:18Z</time>
      </trkpt>
      <trkpt lat="43.45726" lon="6.76294">
        <ele>37.264748</ele>
        <time>2011-01-19 15:22:22Z</time>
      </trkpt>
      <trkpt lat="43.45723" lon="6.76291">
        <ele>38.264732</ele>
        <time>2011-01-19 15:22:26Z</time>
      </trkpt>
      <trkpt lat="43.45719" lon="6.76287">
        <ele>38.264717</ele>
        <time>2011-01-19 15:22:30Z</time>
      </trkpt>
      <trkpt lat="43.45717" lon="6.76285">
        <ele>39.264709</ele>
        <time>2011-01-19 15:22:34Z</time>
      </trkpt>
      <trkpt lat="43.45717" lon="6.76285">
        <ele>39.264709</ele>
        <time>2011-01-19 15:22:38Z</time>
      </trkpt>
      <trkpt lat="43.45712" lon="6.7628">
        <ele>39.264687</ele>
        <time>2011-01-19 15:22:42Z</time>
      </trkpt>
      <trkpt lat="43.45711" lon="6.76279">
        <ele>39.264687</ele>
        <time>2011-01-19 15:22:46Z</time>
      </trkpt>
      <trkpt lat="43.45711" lon="6.76278">
        <ele>39.264679</ele>
        <time>2011-01-19 15:22:50Z</time>
      </trkpt>
      <trkpt lat="43.45711" lon="6.76278">
        <ele>39.264679</ele>
        <time>2011-01-19 15:22:54Z</time>
      </trkpt>
      <trkpt lat="43.45711" lon="6.76278">
        <ele>39.264679</ele>
        <time>2011-01-19 15:22:58Z</time>
      </trkpt>
      <trkpt lat="43.45711" lon="6.76278">
        <ele>39.264679</ele>
        <time>2011-01-19 15:23:02Z</time>
      </trkpt>
      <trkpt lat="43.45711" lon="6.76278">
        <ele>39.264679</ele>
        <time>2011-01-19 15:23:06Z</time>
      </trkpt>
      <trkpt lat="43.45711" lon="6.76278">
        <ele>39.264679</ele>
        <time>2011-01-19 15:23:10Z</time>
      </trkpt>
      <trkpt lat="43.45711" lon="6.76278">
        <ele>39.264679</ele>
        <time>2011-01-19 15:23:14Z</time>
      </trkpt>
      <trkpt lat="43.45711" lon="6.76278">
        <ele>39.264679</ele>
        <time>2011-01-19 15:23:18Z</time>
      </trkpt>
      <trkpt lat="43.45711" lon="6.76278">
        <ele>39.264679</ele>
        <time>2011-01-19 15:23:22Z</time>
      </trkpt>
      <trkpt lat="43.45711" lon="6.76278">
        <ele>39.264679</ele>
        <time>2011-01-19 15:23:26Z</time>
      </trkpt>
      <trkpt lat="43.45711" lon="6.76278">
        <ele>39.264679</ele>
        <time>2011-01-19 15:23:30Z</time>
      </trkpt>
      <trkpt lat="43.45711" lon="6.76278">
        <ele>39.264679</ele>
        <time>2011-01-19 15:23:34Z</time>
      </trkpt>
      <trkpt lat="43.45711" lon="6.76278">
        <ele>39.264679</ele>
        <time>2011-01-19 15:23:38Z</time>
      </trkpt>
      <trkpt lat="43.45705" lon="6.76271">
        <ele>41.264656</ele>
        <time>2011-01-19 15:23:42Z</time>
      </trkpt>
      <trkpt lat="43.45704" lon="6.7627">
        <ele>41.264652</ele>
        <time>2011-01-19 15:23:46Z</time>
      </trkpt>
      <trkpt lat="43.45704" lon="6.76263">
        <ele>39.264633</ele>
        <time>2011-01-19 15:23:50Z</time>
      </trkpt>
      <trkpt lat="43.45704" lon="6.76258">
        <ele>39.264626</ele>
        <time>2011-01-19 15:23:54Z</time>
      </trkpt>
      <trkpt lat="43.45703" lon="6.76252">
        <ele>38.264614</ele>
        <time>2011-01-19 15:23:58Z</time>
      </trkpt>
      <trkpt lat="43.45703" lon="6.7625">
        <ele>38.26461</ele>
        <time>2011-01-19 15:24:02Z</time>
      </trkpt>
      <trkpt lat="43.45703" lon="6.7625">
        <ele>38.26461</ele>
        <time>2011-01-19 15:24:06Z</time>
      </trkpt>
      <trkpt lat="43.45703" lon="6.7625">
        <ele>38.26461</ele>
        <time>2011-01-19 15:24:10Z</time>
      </trkpt>
      <trkpt lat="43.45703" lon="6.7625">
        <ele>38.26461</ele>
        <time>2011-01-19 15:24:14Z</time>
      </trkpt>
      <trkpt lat="43.45703" lon="6.7625">
        <ele>38.26461</ele>
        <time>2011-01-19 15:24:18Z</time>
      </trkpt>
      <trkpt lat="43.45699" lon="6.76222">
        <ele>35.264538</ele>
        <time>2011-01-19 15:24:22Z</time>
      </trkpt>
      <trkpt lat="43.45698" lon="6.76217">
        <ele>36.264526</ele>
        <time>2011-01-19 15:24:26Z</time>
      </trkpt>
      <trkpt lat="43.45698" lon="6.76217">
        <ele>36.264526</ele>
        <time>2011-01-19 15:24:30Z</time>
      </trkpt>
      <trkpt lat="43.45695" lon="6.76211">
        <ele>36.264503</ele>
        <time>2011-01-19 15:24:34Z</time>
      </trkpt>
      <trkpt lat="43.45691" lon="6.76204">
        <ele>37.264484</ele>
        <time>2011-01-19 15:24:38Z</time>
      </trkpt>
      <trkpt lat="43.45689" lon="6.762">
        <ele>38.264469</ele>
        <time>2011-01-19 15:24:42Z</time>
      </trkpt>
      <trkpt lat="43.45688" lon="6.76195">
        <ele>38.264458</ele>
        <time>2011-01-19 15:24:46Z</time>
      </trkpt>
      <trkpt lat="43.45685" lon="6.7619">
        <ele>37.264442</ele>
        <time>2011-01-19 15:24:50Z</time>
      </trkpt>
      <trkpt lat="43.45682" lon="6.76186">
        <ele>37.264427</ele>
        <time>2011-01-19 15:24:54Z</time>
      </trkpt>
      <trkpt lat="43.45678" lon="6.76182">
        <ele>37.264412</ele>
        <time>2011-01-19 15:24:58Z</time>
      </trkpt>
      <trkpt lat="43.45675" lon="6.76178">
        <ele>38.264397</ele>
        <time>2011-01-19 15:25:02Z</time>
      </trkpt>
      <trkpt lat="43.4567" lon="6.76175">
        <ele>38.264381</ele>
        <time>2011-01-19 15:25:06Z</time>
      </trkpt>
      <trkpt lat="43.45666" lon="6.76171">
        <ele>38.264374</ele>
        <time>2011-01-19 15:25:10Z</time>
      </trkpt>
      <trkpt lat="43.45662" lon="6.76168">
        <ele>39.264359</ele>
        <time>2011-01-19 15:25:14Z</time>
      </trkpt>
      <trkpt lat="43.45658" lon="6.76165">
        <ele>39.264343</ele>
        <time>2011-01-19 15:25:18Z</time>
      </trkpt>
      <trkpt lat="43.45654" lon="6.76161">
        <ele>38.264328</ele>
        <time>2011-01-19 15:25:22Z</time>
      </trkpt>
      <trkpt lat="43.45651" lon="6.76158">
        <ele>39.264313</ele>
        <time>2011-01-19 15:25:26Z</time>
      </trkpt>
      <trkpt lat="43.45647" lon="6.76154">
        <ele>39.264301</ele>
        <time>2011-01-19 15:25:30Z</time>
      </trkpt>
      <trkpt lat="43.45644" lon="6.76151">
        <ele>40.26429</ele>
        <time>2011-01-19 15:25:34Z</time>
      </trkpt>
      <trkpt lat="43.45642" lon="6.76149">
        <ele>40.264278</ele>
        <time>2011-01-19 15:25:38Z</time>
      </trkpt>
      <trkpt lat="43.45637" lon="6.76143">
        <ele>39.264259</ele>
        <time>2011-01-19 15:25:42Z</time>
      </trkpt>
      <trkpt lat="43.45637" lon="6.76143">
        <ele>39.264259</ele>
        <time>2011-01-19 15:25:46Z</time>
      </trkpt>
      <trkpt lat="43.45633" lon="6.76137">
        <ele>40.26424</ele>
        <time>2011-01-19 15:25:50Z</time>
      </trkpt>
      <trkpt lat="43.45633" lon="6.76137">
        <ele>40.26424</ele>
        <time>2011-01-19 15:25:54Z</time>
      </trkpt>
      <trkpt lat="43.45629" lon="6.76132">
        <ele>40.264221</ele>
        <time>2011-01-19 15:25:58Z</time>
      </trkpt>
      <trkpt lat="43.45625" lon="6.76126">
        <ele>39.264198</ele>
        <time>2011-01-19 15:26:02Z</time>
      </trkpt>
      <trkpt lat="43.45622" lon="6.76122">
        <ele>39.264183</ele>
        <time>2011-01-19 15:26:06Z</time>
      </trkpt>
      <trkpt lat="43.4562" lon="6.7612">
        <ele>39.264179</ele>
        <time>2011-01-19 15:26:10Z</time>
      </trkpt>
      <trkpt lat="43.4562" lon="6.7612">
        <ele>39.264179</ele>
        <time>2011-01-19 15:26:14Z</time>
      </trkpt>
      <trkpt lat="43.4562" lon="6.7612">
        <ele>39.264179</ele>
        <time>2011-01-19 15:26:18Z</time>
      </trkpt>
      <trkpt lat="43.4562" lon="6.7612">
        <ele>39.264179</ele>
        <time>2011-01-19 15:26:22Z</time>
      </trkpt>
      <trkpt lat="43.4562" lon="6.7612">
        <ele>39.264179</ele>
        <time>2011-01-19 15:26:26Z</time>
      </trkpt>
      <trkpt lat="43.45614" lon="6.76114">
        <ele>39.264153</ele>
        <time>2011-01-19 15:26:30Z</time>
      </trkpt>
      <trkpt lat="43.45614" lon="6.76115">
        <ele>39.264153</ele>
        <time>2011-01-19 15:26:34Z</time>
      </trkpt>
      <trkpt lat="43.45613" lon="6.76115">
        <ele>39.264153</ele>
        <time>2011-01-19 15:26:38Z</time>
      </trkpt>
      <trkpt lat="43.45612" lon="6.76114">
        <ele>39.264153</ele>
        <time>2011-01-19 15:26:42Z</time>
      </trkpt>
      <trkpt lat="43.45612" lon="6.76115">
        <ele>39.264153</ele>
        <time>2011-01-19 15:26:46Z</time>
      </trkpt>
      <trkpt lat="43.45609" lon="6.76114">
        <ele>38.264145</ele>
        <time>2011-01-19 15:26:50Z</time>
      </trkpt>
      <trkpt lat="43.45607" lon="6.76112">
        <ele>38.264137</ele>
        <time>2011-01-19 15:26:54Z</time>
      </trkpt>
      <trkpt lat="43.45604" lon="6.7611">
        <ele>38.26413</ele>
        <time>2011-01-19 15:26:58Z</time>
      </trkpt>
      <trkpt lat="43.45603" lon="6.7611">
        <ele>37.264122</ele>
        <time>2011-01-19 15:27:02Z</time>
      </trkpt>
      <trkpt lat="43.45603" lon="6.76109">
        <ele>36.264122</ele>
        <time>2011-01-19 15:27:06Z</time>
      </trkpt>
      <trkpt lat="43.45603" lon="6.76109">
        <ele>36.264122</ele>
        <time>2011-01-19 15:27:10Z</time>
      </trkpt>
      <trkpt lat="43.45603" lon="6.76109">
        <ele>36.264122</ele>
        <time>2011-01-19 15:27:14Z</time>
      </trkpt>
      <trkpt lat="43.45601" lon="6.76107">
        <ele>33.264114</ele>
        <time>2011-01-19 15:27:18Z</time>
      </trkpt>
      <trkpt lat="43.45599" lon="6.76105">
        <ele>33.264111</ele>
        <time>2011-01-19 15:27:22Z</time>
      </trkpt>
      <trkpt lat="43.45596" lon="6.76101">
        <ele>33.264095</ele>
        <time>2011-01-19 15:27:26Z</time>
      </trkpt>
      <trkpt lat="43.45594" lon="6.76098">
        <ele>33.264084</ele>
        <time>2011-01-19 15:27:30Z</time>
      </trkpt>
      <trkpt lat="43.45594" lon="6.76098">
        <ele>33.264084</ele>
        <time>2011-01-19 15:27:34Z</time>
      </trkpt>
      <trkpt lat="43.45589" lon="6.76093">
        <ele>32.264069</ele>
        <time>2011-01-19 15:27:38Z</time>
      </trkpt>
      <trkpt lat="43.45589" lon="6.76093">
        <ele>32.264069</ele>
        <time>2011-01-19 15:27:42Z</time>
      </trkpt>
      <trkpt lat="43.45584" lon="6.76087">
        <ele>31.264042</ele>
        <time>2011-01-19 15:27:46Z</time>
      </trkpt>
      <trkpt lat="43.45582" lon="6.76084">
        <ele>31.264038</ele>
        <time>2011-01-19 15:27:50Z</time>
      </trkpt>
      <trkpt lat="43.45582" lon="6.76084">
        <ele>31.264038</ele>
        <time>2011-01-19 15:27:54Z</time>
      </trkpt>
      <trkpt lat="43.45575" lon="6.76075">
        <ele>31.264</ele>
        <time>2011-01-19 15:27:58Z</time>
      </trkpt>
      <trkpt lat="43.45575" lon="6.76075">
        <ele>31.264</ele>
        <time>2011-01-19 15:28:02Z</time>
      </trkpt>
      <trkpt lat="43.45575" lon="6.76075">
        <ele>31.264</ele>
        <time>2011-01-19 15:28:06Z</time>
      </trkpt>
      <trkpt lat="43.45569" lon="6.76063">
        <ele>29.263966</ele>
        <time>2011-01-19 15:28:10Z</time>
      </trkpt>
      <trkpt lat="43.45569" lon="6.76063">
        <ele>29.263966</ele>
        <time>2011-01-19 15:28:14Z</time>
      </trkpt>
      <trkpt lat="43.45564" lon="6.76056">
        <ele>27.263943</ele>
        <time>2011-01-19 15:28:18Z</time>
      </trkpt>
      <trkpt lat="43.45563" lon="6.76054">
        <ele>26.263931</ele>
        <time>2011-01-19 15:28:22Z</time>
      </trkpt>
      <trkpt lat="43.45563" lon="6.76054">
        <ele>26.263931</ele>
        <time>2011-01-19 15:28:26Z</time>
      </trkpt>
      <trkpt lat="43.45552" lon="6.76044">
        <ele>25.263893</ele>
        <time>2011-01-19 15:28:30Z</time>
      </trkpt>
      <trkpt lat="43.45548" lon="6.7604">
        <ele>25.263878</ele>
        <time>2011-01-19 15:28:34Z</time>
      </trkpt>
      <trkpt lat="43.45547" lon="6.7604">
        <ele>25.263874</ele>
        <time>2011-01-19 15:28:38Z</time>
      </trkpt>
      <trkpt lat="43.45547" lon="6.7604">
        <ele>25.263874</ele>
        <time>2011-01-19 15:28:42Z</time>
      </trkpt>
      <trkpt lat="43.45543" lon="6.76032">
        <ele>26.263855</ele>
        <time>2011-01-19 15:28:46Z</time>
      </trkpt>
      <trkpt lat="43.45543" lon="6.76032">
        <ele>26.263855</ele>
        <time>2011-01-19 15:28:50Z</time>
      </trkpt>
      <trkpt lat="43.45536" lon="6.76027">
        <ele>26.263832</ele>
        <time>2011-01-19 15:28:54Z</time>
      </trkpt>
      <trkpt lat="43.45533" lon="6.76024">
        <ele>26.263817</ele>
        <time>2011-01-19 15:28:58Z</time>
      </trkpt>
      <trkpt lat="43.45531" lon="6.76022">
        <ele>26.263809</ele>
        <time>2011-01-19 15:29:02Z</time>
      </trkpt>
      <trkpt lat="43.45528" lon="6.76018">
        <ele>27.263794</ele>
        <time>2011-01-19 15:29:06Z</time>
      </trkpt>
      <trkpt lat="43.45528" lon="6.76018">
        <ele>27.263794</ele>
        <time>2011-01-19 15:29:10Z</time>
      </trkpt>
      <trkpt lat="43.45523" lon="6.76013">
        <ele>28.263771</ele>
        <time>2011-01-19 15:29:14Z</time>
      </trkpt>
      <trkpt lat="43.45522" lon="6.76011">
        <ele>28.263771</ele>
        <time>2011-01-19 15:29:18Z</time>
      </trkpt>
      <trkpt lat="43.45522" lon="6.76011">
        <ele>28.263771</ele>
        <time>2011-01-19 15:29:22Z</time>
      </trkpt>
      <trkpt lat="43.45522" lon="6.76007">
        <ele>25.263756</ele>
        <time>2011-01-19 15:29:26Z</time>
      </trkpt>
      <trkpt lat="43.45522" lon="6.76007">
        <ele>25.263756</ele>
        <time>2011-01-19 15:29:30Z</time>
      </trkpt>
      <trkpt lat="43.45522" lon="6.76007">
        <ele>25.263756</ele>
        <time>2011-01-19 15:29:34Z</time>
      </trkpt>
      <trkpt lat="43.45522" lon="6.76004">
        <ele>24.263756</ele>
        <time>2011-01-19 15:29:38Z</time>
      </trkpt>
      <trkpt lat="43.45522" lon="6.76001">
        <ele>25.263748</ele>
        <time>2011-01-19 15:29:42Z</time>
      </trkpt>
      <trkpt lat="43.45522" lon="6.76001">
        <ele>25.263748</ele>
        <time>2011-01-19 15:29:46Z</time>
      </trkpt>
      <trkpt lat="43.45522" lon="6.76001">
        <ele>25.263748</ele>
        <time>2011-01-19 15:29:50Z</time>
      </trkpt>
      <trkpt lat="43.45522" lon="6.76001">
        <ele>25.263748</ele>
        <time>2011-01-19 15:29:54Z</time>
      </trkpt>
      <trkpt lat="43.45522" lon="6.76001">
        <ele>25.263748</ele>
        <time>2011-01-19 15:29:58Z</time>
      </trkpt>
      <trkpt lat="43.45522" lon="6.76001">
        <ele>25.263748</ele>
        <time>2011-01-19 15:30:02Z</time>
      </trkpt>
      <trkpt lat="43.45522" lon="6.76001">
        <ele>25.263748</ele>
        <time>2011-01-19 15:30:06Z</time>
      </trkpt>
      <trkpt lat="43.45522" lon="6.76001">
        <ele>25.263748</ele>
        <time>2011-01-19 15:30:10Z</time>
      </trkpt>
      <trkpt lat="43.45522" lon="6.76001">
        <ele>25.263748</ele>
        <time>2011-01-19 15:30:14Z</time>
      </trkpt>
      <trkpt lat="43.45522" lon="6.76001">
        <ele>25.263748</ele>
        <time>2011-01-19 15:30:18Z</time>
      </trkpt>
      <trkpt lat="43.45522" lon="6.76001">
        <ele>25.263748</ele>
        <time>2011-01-19 15:30:22Z</time>
      </trkpt>
      <trkpt lat="43.45528" lon="6.75991">
        <ele>31.263733</ele>
        <time>2011-01-19 15:30:26Z</time>
      </trkpt>
      <trkpt lat="43.45529" lon="6.75991">
        <ele>30.263733</ele>
        <time>2011-01-19 15:30:30Z</time>
      </trkpt>
      <trkpt lat="43.45529" lon="6.75991">
        <ele>30.263733</ele>
        <time>2011-01-19 15:30:34Z</time>
      </trkpt>
      <trkpt lat="43.45529" lon="6.75991">
        <ele>30.263733</ele>
        <time>2011-01-19 15:30:38Z</time>
      </trkpt>
      <trkpt lat="43.4553" lon="6.75989">
        <ele>31.263733</ele>
        <time>2011-01-19 15:30:42Z</time>
      </trkpt>
      <trkpt lat="43.4553" lon="6.75989">
        <ele>31.263733</ele>
        <time>2011-01-19 15:30:46Z</time>
      </trkpt>
      <trkpt lat="43.4553" lon="6.75989">
        <ele>34.263733</ele>
        <time>2011-01-19 15:30:50Z</time>
      </trkpt>
      <trkpt lat="43.4553" lon="6.75989">
        <ele>34.263733</ele>
        <time>2011-01-19 15:30:54Z</time>
      </trkpt>
      <trkpt lat="43.45531" lon="6.75989">
        <ele>35.263733</ele>
        <time>2011-01-19 15:30:58Z</time>
      </trkpt>
      <trkpt lat="43.45531" lon="6.75988">
        <ele>37.263733</ele>
        <time>2011-01-19 15:31:02Z</time>
      </trkpt>
      <trkpt lat="43.45531" lon="6.75988">
        <ele>38.263733</ele>
        <time>2011-01-19 15:31:06Z</time>
      </trkpt>
      <trkpt lat="43.45531" lon="6.75988">
        <ele>38.263733</ele>
        <time>2011-01-19 15:31:10Z</time>
      </trkpt>
      <trkpt lat="43.45531" lon="6.7599">
        <ele>38.263733</ele>
        <time>2011-01-19 15:31:14Z</time>
      </trkpt>
      <trkpt lat="43.4553" lon="6.7599">
        <ele>37.263741</ele>
        <time>2011-01-19 15:31:18Z</time>
      </trkpt>
      <trkpt lat="43.45529" lon="6.75991">
        <ele>36.263733</ele>
        <time>2011-01-19 15:31:22Z</time>
      </trkpt>
      <trkpt lat="43.45529" lon="6.75991">
        <ele>37.263733</ele>
        <time>2011-01-19 15:31:26Z</time>
      </trkpt>
      <trkpt lat="43.45529" lon="6.75991">
        <ele>37.263733</ele>
        <time>2011-01-19 15:31:30Z</time>
      </trkpt>
      <trkpt lat="43.4553" lon="6.7599">
        <ele>37.263733</ele>
        <time>2011-01-19 15:31:34Z</time>
      </trkpt>
      <trkpt lat="43.45533" lon="6.75988">
        <ele>37.263733</ele>
        <time>2011-01-19 15:31:38Z</time>
      </trkpt>
      <trkpt lat="43.45535" lon="6.75984">
        <ele>37.263725</ele>
        <time>2011-01-19 15:31:42Z</time>
      </trkpt>
      <trkpt lat="43.45535" lon="6.75982">
        <ele>37.263725</ele>
        <time>2011-01-19 15:31:46Z</time>
      </trkpt>
      <trkpt lat="43.45535" lon="6.75982">
        <ele>37.263725</ele>
        <time>2011-01-19 15:31:50Z</time>
      </trkpt>
      <trkpt lat="43.45535" lon="6.75982">
        <ele>37.263725</ele>
        <time>2011-01-19 15:31:54Z</time>
      </trkpt>
      <trkpt lat="43.45538" lon="6.75969">
        <ele>38.263702</ele>
        <time>2011-01-19 15:31:58Z</time>
      </trkpt>
      <trkpt lat="43.45538" lon="6.75969">
        <ele>38.263702</ele>
        <time>2011-01-19 15:32:02Z</time>
      </trkpt>
      <trkpt lat="43.45538" lon="6.75969">
        <ele>38.263702</ele>
        <time>2011-01-19 15:32:06Z</time>
      </trkpt>
      <trkpt lat="43.4554" lon="6.75968">
        <ele>40.263702</ele>
        <time>2011-01-19 15:32:10Z</time>
      </trkpt>
      <trkpt lat="43.45541" lon="6.75969">
        <ele>41.263702</ele>
        <time>2011-01-19 15:32:14Z</time>
      </trkpt>
      <trkpt lat="43.45541" lon="6.75968">
        <ele>41.263702</ele>
        <time>2011-01-19 15:32:18Z</time>
      </trkpt>
      <trkpt lat="43.45542" lon="6.75968">
        <ele>41.263702</ele>
        <time>2011-01-19 15:32:22Z</time>
      </trkpt>
      <trkpt lat="43.45542" lon="6.75968">
        <ele>40.263706</ele>
        <time>2011-01-19 15:32:26Z</time>
      </trkpt>
      <trkpt lat="43.45542" lon="6.75968">
        <ele>39.263706</ele>
        <time>2011-01-19 15:32:30Z</time>
      </trkpt>
      <trkpt lat="43.45542" lon="6.75968">
        <ele>38.263706</ele>
        <time>2011-01-19 15:32:34Z</time>
      </trkpt>
      <trkpt lat="43.45542" lon="6.75968">
        <ele>38.263706</ele>
        <time>2011-01-19 15:32:38Z</time>
      </trkpt>
      <trkpt lat="43.45542" lon="6.75968">
        <ele>42.26371</ele>
        <time>2011-01-19 15:32:42Z</time>
      </trkpt>
      <trkpt lat="43.45543" lon="6.75969">
        <ele>43.26371</ele>
        <time>2011-01-19 15:32:46Z</time>
      </trkpt>
      <trkpt lat="43.45543" lon="6.75969">
        <ele>43.26371</ele>
        <time>2011-01-19 15:32:50Z</time>
      </trkpt>
      <trkpt lat="43.45543" lon="6.7597">
        <ele>42.26371</ele>
        <time>2011-01-19 15:32:54Z</time>
      </trkpt>
      <trkpt lat="43.45544" lon="6.75971">
        <ele>43.26371</ele>
        <time>2011-01-19 15:32:58Z</time>
      </trkpt>
      <trkpt lat="43.45544" lon="6.75971">
        <ele>44.263718</ele>
        <time>2011-01-19 15:33:02Z</time>
      </trkpt>
      <trkpt lat="43.45544" lon="6.75971">
        <ele>44.26371</ele>
        <time>2011-01-19 15:33:06Z</time>
      </trkpt>
      <trkpt lat="43.45544" lon="6.7597">
        <ele>45.26371</ele>
        <time>2011-01-19 15:33:10Z</time>
      </trkpt>
      <trkpt lat="43.45544" lon="6.7597">
        <ele>44.26371</ele>
        <time>2011-01-19 15:33:14Z</time>
      </trkpt>
      <trkpt lat="43.45544" lon="6.7597">
        <ele>44.263714</ele>
        <time>2011-01-19 15:33:18Z</time>
      </trkpt>
      <trkpt lat="43.45544" lon="6.7597">
        <ele>43.263714</ele>
        <time>2011-01-19 15:33:22Z</time>
      </trkpt>
      <trkpt lat="43.45544" lon="6.7597">
        <ele>43.263714</ele>
        <time>2011-01-19 15:33:26Z</time>
      </trkpt>
      <trkpt lat="43.45545" lon="6.7597">
        <ele>44.263718</ele>
        <time>2011-01-19 15:33:30Z</time>
      </trkpt>
      <trkpt lat="43.45545" lon="6.75969">
        <ele>45.263718</ele>
        <time>2011-01-19 15:33:34Z</time>
      </trkpt>
      <trkpt lat="43.45545" lon="6.75969">
        <ele>45.263718</ele>
        <time>2011-01-19 15:33:38Z</time>
      </trkpt>
      <trkpt lat="43.45545" lon="6.75969">
        <ele>45.26371</ele>
        <time>2011-01-19 15:33:42Z</time>
      </trkpt>
      <trkpt lat="43.45544" lon="6.75969">
        <ele>46.263714</ele>
        <time>2011-01-19 15:33:46Z</time>
      </trkpt>
      <trkpt lat="43.45544" lon="6.75969">
        <ele>46.263714</ele>
        <time>2011-01-19 15:33:50Z</time>
      </trkpt>
      <trkpt lat="43.45537" lon="6.75972">
        <ele>46.26371</ele>
        <time>2011-01-19 15:33:54Z</time>
      </trkpt>
      <trkpt lat="43.45532" lon="6.75978">
        <ele>46.26371</ele>
        <time>2011-01-19 15:33:58Z</time>
      </trkpt>
      <trkpt lat="43.45531" lon="6.75982">
        <ele>46.263718</ele>
        <time>2011-01-19 15:34:02Z</time>
      </trkpt>
      <trkpt lat="43.45527" lon="6.75991">
        <ele>45.263733</ele>
        <time>2011-01-19 15:34:06Z</time>
      </trkpt>
      <trkpt lat="43.45524" lon="6.75995">
        <ele>45.263741</ele>
        <time>2011-01-19 15:34:10Z</time>
      </trkpt>
      <trkpt lat="43.45524" lon="6.75996">
        <ele>45.263741</ele>
        <time>2011-01-19 15:34:14Z</time>
      </trkpt>
      <trkpt lat="43.45523" lon="6.75997">
        <ele>44.263741</ele>
        <time>2011-01-19 15:34:18Z</time>
      </trkpt>
      <trkpt lat="43.45524" lon="6.75996">
        <ele>44.263741</ele>
        <time>2011-01-19 15:34:22Z</time>
      </trkpt>
      <trkpt lat="43.45525" lon="6.75994">
        <ele>44.263741</ele>
        <time>2011-01-19 15:34:26Z</time>
      </trkpt>
      <trkpt lat="43.45528" lon="6.75992">
        <ele>43.263733</ele>
        <time>2011-01-19 15:34:30Z</time>
      </trkpt>
      <trkpt lat="43.4553" lon="6.75989">
        <ele>43.263733</ele>
        <time>2011-01-19 15:34:34Z</time>
      </trkpt>
      <trkpt lat="43.45532" lon="6.75986">
        <ele>44.263725</ele>
        <time>2011-01-19 15:34:38Z</time>
      </trkpt>
      <trkpt lat="43.45532" lon="6.75986">
        <ele>44.263725</ele>
        <time>2011-01-19 15:34:42Z</time>
      </trkpt>
      <trkpt lat="43.45536" lon="6.7598">
        <ele>44.263725</ele>
        <time>2011-01-19 15:34:46Z</time>
      </trkpt>
      <trkpt lat="43.45536" lon="6.7598">
        <ele>43.263725</ele>
        <time>2011-01-19 15:34:50Z</time>
      </trkpt>
      <trkpt lat="43.45536" lon="6.7598">
        <ele>43.263725</ele>
        <time>2011-01-19 15:34:54Z</time>
      </trkpt>
      <trkpt lat="43.45536" lon="6.7598">
        <ele>43.263725</ele>
        <time>2011-01-19 15:34:58Z</time>
      </trkpt>
      <trkpt lat="43.45536" lon="6.7598">
        <ele>43.263725</ele>
        <time>2011-01-19 15:35:02Z</time>
      </trkpt>
      <trkpt lat="43.45536" lon="6.7598">
        <ele>43.263725</ele>
        <time>2011-01-19 15:35:06Z</time>
      </trkpt>
      <trkpt lat="43.45536" lon="6.7598">
        <ele>43.263725</ele>
        <time>2011-01-19 15:35:10Z</time>
      </trkpt>
      <trkpt lat="43.45536" lon="6.7598">
        <ele>43.263725</ele>
        <time>2011-01-19 15:35:14Z</time>
      </trkpt>
      <trkpt lat="43.45534" lon="6.75974">
        <ele>39.263702</ele>
        <time>2011-01-19 15:35:18Z</time>
      </trkpt>
      <trkpt lat="43.45534" lon="6.75974">
        <ele>38.263702</ele>
        <time>2011-01-19 15:35:22Z</time>
      </trkpt>
      <trkpt lat="43.45534" lon="6.75974">
        <ele>38.263702</ele>
        <time>2011-01-19 15:35:26Z</time>
      </trkpt>
      <trkpt lat="43.45534" lon="6.75974">
        <ele>38.263702</ele>
        <time>2011-01-19 15:35:30Z</time>
      </trkpt>
      <trkpt lat="43.45534" lon="6.75972">
        <ele>35.263702</ele>
        <time>2011-01-19 15:35:34Z</time>
      </trkpt>
      <trkpt lat="43.45534" lon="6.75972">
        <ele>35.263702</ele>
        <time>2011-01-19 15:35:38Z</time>
      </trkpt>
      <trkpt lat="43.45534" lon="6.75972">
        <ele>35.263702</ele>
        <time>2011-01-19 15:35:42Z</time>
      </trkpt>
      <trkpt lat="43.45539" lon="6.75961">
        <ele>30.263683</ele>
        <time>2011-01-19 15:35:46Z</time>
      </trkpt>
      <trkpt lat="43.45539" lon="6.75961">
        <ele>30.263683</ele>
        <time>2011-01-19 15:35:50Z</time>
      </trkpt>
      <trkpt lat="43.45539" lon="6.75961">
        <ele>30.263683</ele>
        <time>2011-01-19 15:35:54Z</time>
      </trkpt>
      <trkpt lat="43.45539" lon="6.75961">
        <ele>30.263683</ele>
        <time>2011-01-19 15:35:58Z</time>
      </trkpt>
      <trkpt lat="43.45545" lon="6.75949">
        <ele>34.263664</ele>
        <time>2011-01-19 15:36:02Z</time>
      </trkpt>
      <trkpt lat="43.45545" lon="6.75949">
        <ele>34.263664</ele>
        <time>2011-01-19 15:36:06Z</time>
      </trkpt>
      <trkpt lat="43.45549" lon="6.75947">
        <ele>34.263672</ele>
        <time>2011-01-19 15:36:10Z</time>
      </trkpt>
      <trkpt lat="43.45549" lon="6.75947">
        <ele>34.263672</ele>
        <time>2011-01-19 15:36:14Z</time>
      </trkpt>
      <trkpt lat="43.45551" lon="6.75947">
        <ele>34.263672</ele>
        <time>2011-01-19 15:36:18Z</time>
      </trkpt>
      <trkpt lat="43.45551" lon="6.75947">
        <ele>34.263672</ele>
        <time>2011-01-19 15:36:22Z</time>
      </trkpt>
      <trkpt lat="43.45551" lon="6.75947">
        <ele>34.263672</ele>
        <time>2011-01-19 15:36:26Z</time>
      </trkpt>
    </trkseg>
  </trk>
</gpx>